<?xml version="1.0" encoding="UTF-8" standalone="no" ?>
<gpx xmlns="http://www.topografix.com/GPX/1/1" xmlns:xsi="http://www.w3.org/2001/XMLSchema-instance" xsi:schemaLocation="http://www.topografix.com/GPX/1/1 http://www.topografix.com/GPX/1/1/gpx.xsd" version="1.1" creator="VisuGPX - https://www.visugpx.com">
  <metadata>
    <name>De La Croix de Noailles à Maisons Laffitte</name>
  </metadata>
  <trk>
    <name><![CDATA[De La Croix de Noailles à Maisons Laffitte_1]]></name>
    <trkseg>
      <trkpt lat="48.94009" lon="2.0968">
        <ele>50.6</ele>
        <time>2022-03-08T09:04:14Z</time>
      </trkpt>
      <trkpt lat="48.94008" lon="2.09687">
        <ele>48.9</ele>
        <time>2022-03-08T09:05:08Z</time>
      </trkpt>
      <trkpt lat="48.94012" lon="2.09684">
        <ele>55.2</ele>
        <time>2022-03-08T09:08:11Z</time>
      </trkpt>
      <trkpt lat="48.94018" lon="2.09684">
        <ele>52.9</ele>
        <time>2022-03-08T09:08:23Z</time>
      </trkpt>
      <trkpt lat="48.94023" lon="2.09684">
        <ele>52.5</ele>
        <time>2022-03-08T09:08:28Z</time>
      </trkpt>
      <trkpt lat="48.94027" lon="2.09683">
        <ele>52.9</ele>
        <time>2022-03-08T09:08:31Z</time>
      </trkpt>
      <trkpt lat="48.94032" lon="2.09685">
        <ele>52.5</ele>
        <time>2022-03-08T09:08:34Z</time>
      </trkpt>
      <trkpt lat="48.94037" lon="2.09688">
        <ele>51.3</ele>
        <time>2022-03-08T09:08:37Z</time>
      </trkpt>
      <trkpt lat="48.94041" lon="2.09692">
        <ele>50.2</ele>
        <time>2022-03-08T09:08:39Z</time>
      </trkpt>
      <trkpt lat="48.94045" lon="2.09696">
        <ele>49.3</ele>
        <time>2022-03-08T09:08:42Z</time>
      </trkpt>
      <trkpt lat="48.9405" lon="2.097">
        <ele>49.3</ele>
        <time>2022-03-08T09:08:46Z</time>
      </trkpt>
      <trkpt lat="48.94055" lon="2.09702">
        <ele>50.7</ele>
        <time>2022-03-08T09:08:50Z</time>
      </trkpt>
      <trkpt lat="48.9406" lon="2.09704">
        <ele>53.3</ele>
        <time>2022-03-08T09:08:54Z</time>
      </trkpt>
      <trkpt lat="48.94065" lon="2.09706">
        <ele>54.4</ele>
        <time>2022-03-08T09:08:59Z</time>
      </trkpt>
      <trkpt lat="48.9407" lon="2.09708">
        <ele>54.4</ele>
        <time>2022-03-08T09:09:02Z</time>
      </trkpt>
      <trkpt lat="48.94075" lon="2.09705">
        <ele>54.8</ele>
        <time>2022-03-08T09:09:07Z</time>
      </trkpt>
      <trkpt lat="48.94075" lon="2.09696">
        <ele>55.1</ele>
        <time>2022-03-08T09:09:09Z</time>
      </trkpt>
      <trkpt lat="48.94079" lon="2.09691">
        <ele>55.8</ele>
        <time>2022-03-08T09:09:14Z</time>
      </trkpt>
      <trkpt lat="48.94084" lon="2.09692">
        <ele>55.9</ele>
        <time>2022-03-08T09:09:17Z</time>
      </trkpt>
      <trkpt lat="48.94088" lon="2.09697">
        <ele>55.6</ele>
        <time>2022-03-08T09:09:20Z</time>
      </trkpt>
      <trkpt lat="48.94092" lon="2.09702">
        <ele>54.7</ele>
        <time>2022-03-08T09:09:25Z</time>
      </trkpt>
      <trkpt lat="48.94096" lon="2.09706">
        <ele>53.6</ele>
        <time>2022-03-08T09:09:29Z</time>
      </trkpt>
      <trkpt lat="48.94102" lon="2.09706">
        <ele>52.5</ele>
        <time>2022-03-08T09:09:35Z</time>
      </trkpt>
      <trkpt lat="48.94106" lon="2.09709">
        <ele>52.2</ele>
        <time>2022-03-08T09:09:40Z</time>
      </trkpt>
      <trkpt lat="48.94111" lon="2.09711">
        <ele>51.6</ele>
        <time>2022-03-08T09:09:43Z</time>
      </trkpt>
      <trkpt lat="48.94116" lon="2.09713">
        <ele>50.8</ele>
        <time>2022-03-08T09:09:47Z</time>
      </trkpt>
      <trkpt lat="48.9412" lon="2.09715">
        <ele>50.8</ele>
        <time>2022-03-08T09:09:51Z</time>
      </trkpt>
      <trkpt lat="48.94125" lon="2.09717">
        <ele>52</ele>
        <time>2022-03-08T09:09:54Z</time>
      </trkpt>
      <trkpt lat="48.94129" lon="2.0972">
        <ele>53.4</ele>
        <time>2022-03-08T09:09:58Z</time>
      </trkpt>
      <trkpt lat="48.94135" lon="2.09723">
        <ele>54.4</ele>
        <time>2022-03-08T09:10:02Z</time>
      </trkpt>
      <trkpt lat="48.94139" lon="2.09726">
        <ele>54.9</ele>
        <time>2022-03-08T09:10:06Z</time>
      </trkpt>
      <trkpt lat="48.94144" lon="2.09726">
        <ele>54.7</ele>
        <time>2022-03-08T09:10:09Z</time>
      </trkpt>
      <trkpt lat="48.94149" lon="2.09728">
        <ele>54.2</ele>
        <time>2022-03-08T09:10:12Z</time>
      </trkpt>
      <trkpt lat="48.94154" lon="2.0973">
        <ele>54.1</ele>
        <time>2022-03-08T09:10:16Z</time>
      </trkpt>
      <trkpt lat="48.94159" lon="2.09732">
        <ele>54</ele>
        <time>2022-03-08T09:10:19Z</time>
      </trkpt>
      <trkpt lat="48.94164" lon="2.09733">
        <ele>54.1</ele>
        <time>2022-03-08T09:10:23Z</time>
      </trkpt>
      <trkpt lat="48.9417" lon="2.09734">
        <ele>53.7</ele>
        <time>2022-03-08T09:10:27Z</time>
      </trkpt>
      <trkpt lat="48.94174" lon="2.09735">
        <ele>53.5</ele>
        <time>2022-03-08T09:10:31Z</time>
      </trkpt>
      <trkpt lat="48.9418" lon="2.09735">
        <ele>52.3</ele>
        <time>2022-03-08T09:10:34Z</time>
      </trkpt>
      <trkpt lat="48.94185" lon="2.09737">
        <ele>51.8</ele>
        <time>2022-03-08T09:10:38Z</time>
      </trkpt>
      <trkpt lat="48.94189" lon="2.09741">
        <ele>52.6</ele>
        <time>2022-03-08T09:10:42Z</time>
      </trkpt>
      <trkpt lat="48.94194" lon="2.09743">
        <ele>52.7</ele>
        <time>2022-03-08T09:10:47Z</time>
      </trkpt>
      <trkpt lat="48.94199" lon="2.09744">
        <ele>51.9</ele>
        <time>2022-03-08T09:10:50Z</time>
      </trkpt>
      <trkpt lat="48.94204" lon="2.09745">
        <ele>51.6</ele>
        <time>2022-03-08T09:10:53Z</time>
      </trkpt>
      <trkpt lat="48.9421" lon="2.09747">
        <ele>52</ele>
        <time>2022-03-08T09:10:57Z</time>
      </trkpt>
      <trkpt lat="48.94216" lon="2.09749">
        <ele>53</ele>
        <time>2022-03-08T09:11:02Z</time>
      </trkpt>
      <trkpt lat="48.94223" lon="2.09751">
        <ele>53.6</ele>
        <time>2022-03-08T09:11:05Z</time>
      </trkpt>
      <trkpt lat="48.94228" lon="2.09752">
        <ele>54.6</ele>
        <time>2022-03-08T09:11:09Z</time>
      </trkpt>
      <trkpt lat="48.94234" lon="2.09754">
        <ele>54.8</ele>
        <time>2022-03-08T09:11:14Z</time>
      </trkpt>
      <trkpt lat="48.94239" lon="2.09755">
        <ele>55.9</ele>
        <time>2022-03-08T09:11:17Z</time>
      </trkpt>
      <trkpt lat="48.94244" lon="2.09758">
        <ele>56</ele>
        <time>2022-03-08T09:11:21Z</time>
      </trkpt>
      <trkpt lat="48.94249" lon="2.0976">
        <ele>55</ele>
        <time>2022-03-08T09:11:24Z</time>
      </trkpt>
      <trkpt lat="48.94254" lon="2.09761">
        <ele>53.2</ele>
        <time>2022-03-08T09:11:28Z</time>
      </trkpt>
      <trkpt lat="48.9426" lon="2.09763">
        <ele>51</ele>
        <time>2022-03-08T09:11:31Z</time>
      </trkpt>
      <trkpt lat="48.94265" lon="2.09764">
        <ele>49.9</ele>
        <time>2022-03-08T09:11:35Z</time>
      </trkpt>
      <trkpt lat="48.9427" lon="2.09765">
        <ele>49.6</ele>
        <time>2022-03-08T09:11:39Z</time>
      </trkpt>
      <trkpt lat="48.94274" lon="2.09767">
        <ele>49.2</ele>
        <time>2022-03-08T09:11:42Z</time>
      </trkpt>
      <trkpt lat="48.94279" lon="2.09769">
        <ele>49.3</ele>
        <time>2022-03-08T09:11:44Z</time>
      </trkpt>
      <trkpt lat="48.94284" lon="2.0977">
        <ele>49.9</ele>
        <time>2022-03-08T09:11:48Z</time>
      </trkpt>
      <trkpt lat="48.94289" lon="2.09774">
        <ele>50.9</ele>
        <time>2022-03-08T09:11:52Z</time>
      </trkpt>
      <trkpt lat="48.94294" lon="2.09775">
        <ele>51</ele>
        <time>2022-03-08T09:11:55Z</time>
      </trkpt>
      <trkpt lat="48.94298" lon="2.09776">
        <ele>50.9</ele>
        <time>2022-03-08T09:11:58Z</time>
      </trkpt>
      <trkpt lat="48.94303" lon="2.09776">
        <ele>50.5</ele>
        <time>2022-03-08T09:12:01Z</time>
      </trkpt>
      <trkpt lat="48.94308" lon="2.09777">
        <ele>50.6</ele>
        <time>2022-03-08T09:12:05Z</time>
      </trkpt>
      <trkpt lat="48.94313" lon="2.09779">
        <ele>51.1</ele>
        <time>2022-03-08T09:12:09Z</time>
      </trkpt>
      <trkpt lat="48.94318" lon="2.0978">
        <ele>52.1</ele>
        <time>2022-03-08T09:12:12Z</time>
      </trkpt>
      <trkpt lat="48.94323" lon="2.09782">
        <ele>52.9</ele>
        <time>2022-03-08T09:12:16Z</time>
      </trkpt>
      <trkpt lat="48.94329" lon="2.09784">
        <ele>52.7</ele>
        <time>2022-03-08T09:12:20Z</time>
      </trkpt>
      <trkpt lat="48.94334" lon="2.09785">
        <ele>52.2</ele>
        <time>2022-03-08T09:12:24Z</time>
      </trkpt>
      <trkpt lat="48.94339" lon="2.09786">
        <ele>51.9</ele>
        <time>2022-03-08T09:12:26Z</time>
      </trkpt>
      <trkpt lat="48.94344" lon="2.09789">
        <ele>52.1</ele>
        <time>2022-03-08T09:12:30Z</time>
      </trkpt>
      <trkpt lat="48.9435" lon="2.09791">
        <ele>51.2</ele>
        <time>2022-03-08T09:12:34Z</time>
      </trkpt>
      <trkpt lat="48.94356" lon="2.09794">
        <ele>50.3</ele>
        <time>2022-03-08T09:12:38Z</time>
      </trkpt>
      <trkpt lat="48.94361" lon="2.09794">
        <ele>49.4</ele>
        <time>2022-03-08T09:12:41Z</time>
      </trkpt>
      <trkpt lat="48.94366" lon="2.09795">
        <ele>48.6</ele>
        <time>2022-03-08T09:12:45Z</time>
      </trkpt>
      <trkpt lat="48.94371" lon="2.09797">
        <ele>48.5</ele>
        <time>2022-03-08T09:12:50Z</time>
      </trkpt>
      <trkpt lat="48.94377" lon="2.09796">
        <ele>50.5</ele>
        <time>2022-03-08T09:12:53Z</time>
      </trkpt>
      <trkpt lat="48.94382" lon="2.09797">
        <ele>53.1</ele>
        <time>2022-03-08T09:12:57Z</time>
      </trkpt>
      <trkpt lat="48.94388" lon="2.098">
        <ele>53.5</ele>
        <time>2022-03-08T09:13:01Z</time>
      </trkpt>
      <trkpt lat="48.94393" lon="2.09802">
        <ele>53.1</ele>
        <time>2022-03-08T09:13:05Z</time>
      </trkpt>
      <trkpt lat="48.94399" lon="2.09803">
        <ele>51.9</ele>
        <time>2022-03-08T09:13:08Z</time>
      </trkpt>
      <trkpt lat="48.94405" lon="2.09805">
        <ele>51.4</ele>
        <time>2022-03-08T09:13:12Z</time>
      </trkpt>
      <trkpt lat="48.9441" lon="2.09807">
        <ele>50.9</ele>
        <time>2022-03-08T09:13:16Z</time>
      </trkpt>
      <trkpt lat="48.94416" lon="2.0981">
        <ele>49.9</ele>
        <time>2022-03-08T09:13:21Z</time>
      </trkpt>
      <trkpt lat="48.94422" lon="2.09811">
        <ele>49.1</ele>
        <time>2022-03-08T09:13:24Z</time>
      </trkpt>
      <trkpt lat="48.94427" lon="2.09813">
        <ele>49</ele>
        <time>2022-03-08T09:13:28Z</time>
      </trkpt>
      <trkpt lat="48.94432" lon="2.09816">
        <ele>48.9</ele>
        <time>2022-03-08T09:13:31Z</time>
      </trkpt>
      <trkpt lat="48.94436" lon="2.09819">
        <ele>48.7</ele>
        <time>2022-03-08T09:13:34Z</time>
      </trkpt>
      <trkpt lat="48.94442" lon="2.09821">
        <ele>48.4</ele>
        <time>2022-03-08T09:13:38Z</time>
      </trkpt>
      <trkpt lat="48.94447" lon="2.09822">
        <ele>47.5</ele>
        <time>2022-03-08T09:13:41Z</time>
      </trkpt>
      <trkpt lat="48.94453" lon="2.09825">
        <ele>45.4</ele>
        <time>2022-03-08T09:13:45Z</time>
      </trkpt>
      <trkpt lat="48.94457" lon="2.09825">
        <ele>45.3</ele>
        <time>2022-03-08T09:13:49Z</time>
      </trkpt>
      <trkpt lat="48.94463" lon="2.09825">
        <ele>45.5</ele>
        <time>2022-03-08T09:13:52Z</time>
      </trkpt>
      <trkpt lat="48.94468" lon="2.09826">
        <ele>46.1</ele>
        <time>2022-03-08T09:13:56Z</time>
      </trkpt>
      <trkpt lat="48.94473" lon="2.09829">
        <ele>46.4</ele>
        <time>2022-03-08T09:14:00Z</time>
      </trkpt>
      <trkpt lat="48.94478" lon="2.09832">
        <ele>47.8</ele>
        <time>2022-03-08T09:14:03Z</time>
      </trkpt>
      <trkpt lat="48.94482" lon="2.09835">
        <ele>49.7</ele>
        <time>2022-03-08T09:14:06Z</time>
      </trkpt>
      <trkpt lat="48.94488" lon="2.09837">
        <ele>50.5</ele>
        <time>2022-03-08T09:14:10Z</time>
      </trkpt>
      <trkpt lat="48.94493" lon="2.09838">
        <ele>50.4</ele>
        <time>2022-03-08T09:14:14Z</time>
      </trkpt>
      <trkpt lat="48.94499" lon="2.0984">
        <ele>49.9</ele>
        <time>2022-03-08T09:14:17Z</time>
      </trkpt>
      <trkpt lat="48.94504" lon="2.09842">
        <ele>49.5</ele>
        <time>2022-03-08T09:14:21Z</time>
      </trkpt>
      <trkpt lat="48.94509" lon="2.09843">
        <ele>49.7</ele>
        <time>2022-03-08T09:14:24Z</time>
      </trkpt>
      <trkpt lat="48.94514" lon="2.09845">
        <ele>50.7</ele>
        <time>2022-03-08T09:14:27Z</time>
      </trkpt>
      <trkpt lat="48.94519" lon="2.09846">
        <ele>51.9</ele>
        <time>2022-03-08T09:14:31Z</time>
      </trkpt>
      <trkpt lat="48.94524" lon="2.09846">
        <ele>53</ele>
        <time>2022-03-08T09:14:34Z</time>
      </trkpt>
      <trkpt lat="48.9453" lon="2.09847">
        <ele>53.6</ele>
        <time>2022-03-08T09:14:37Z</time>
      </trkpt>
      <trkpt lat="48.94534" lon="2.09849">
        <ele>53.4</ele>
        <time>2022-03-08T09:14:40Z</time>
      </trkpt>
      <trkpt lat="48.94539" lon="2.09851">
        <ele>53.6</ele>
        <time>2022-03-08T09:14:44Z</time>
      </trkpt>
      <trkpt lat="48.94543" lon="2.09851">
        <ele>53.9</ele>
        <time>2022-03-08T09:14:46Z</time>
      </trkpt>
      <trkpt lat="48.94549" lon="2.09853">
        <ele>54.1</ele>
        <time>2022-03-08T09:14:51Z</time>
      </trkpt>
      <trkpt lat="48.94554" lon="2.09855">
        <ele>53.9</ele>
        <time>2022-03-08T09:14:54Z</time>
      </trkpt>
      <trkpt lat="48.94559" lon="2.09858">
        <ele>53</ele>
        <time>2022-03-08T09:14:58Z</time>
      </trkpt>
      <trkpt lat="48.94565" lon="2.0986">
        <ele>52.3</ele>
        <time>2022-03-08T09:15:01Z</time>
      </trkpt>
      <trkpt lat="48.9457" lon="2.09862">
        <ele>51.3</ele>
        <time>2022-03-08T09:15:05Z</time>
      </trkpt>
      <trkpt lat="48.94575" lon="2.09865">
        <ele>50.1</ele>
        <time>2022-03-08T09:15:09Z</time>
      </trkpt>
      <trkpt lat="48.9458" lon="2.09869">
        <ele>49.2</ele>
        <time>2022-03-08T09:15:12Z</time>
      </trkpt>
      <trkpt lat="48.94586" lon="2.09871">
        <ele>48.3</ele>
        <time>2022-03-08T09:15:17Z</time>
      </trkpt>
      <trkpt lat="48.94591" lon="2.09873">
        <ele>48.1</ele>
        <time>2022-03-08T09:15:21Z</time>
      </trkpt>
      <trkpt lat="48.94597" lon="2.09875">
        <ele>47.9</ele>
        <time>2022-03-08T09:15:24Z</time>
      </trkpt>
      <trkpt lat="48.94603" lon="2.09876">
        <ele>47.8</ele>
        <time>2022-03-08T09:15:28Z</time>
      </trkpt>
      <trkpt lat="48.94608" lon="2.09877">
        <ele>47.5</ele>
        <time>2022-03-08T09:15:32Z</time>
      </trkpt>
      <trkpt lat="48.94614" lon="2.09878">
        <ele>47.5</ele>
        <time>2022-03-08T09:15:35Z</time>
      </trkpt>
      <trkpt lat="48.94618" lon="2.0988">
        <ele>48.4</ele>
        <time>2022-03-08T09:15:39Z</time>
      </trkpt>
      <trkpt lat="48.94623" lon="2.09881">
        <ele>49.5</ele>
        <time>2022-03-08T09:15:42Z</time>
      </trkpt>
      <trkpt lat="48.94628" lon="2.09883">
        <ele>50.4</ele>
        <time>2022-03-08T09:15:45Z</time>
      </trkpt>
      <trkpt lat="48.94632" lon="2.09886">
        <ele>51.2</ele>
        <time>2022-03-08T09:15:48Z</time>
      </trkpt>
      <trkpt lat="48.94637" lon="2.09887">
        <ele>52</ele>
        <time>2022-03-08T09:15:52Z</time>
      </trkpt>
      <trkpt lat="48.94642" lon="2.0989">
        <ele>52.8</ele>
        <time>2022-03-08T09:15:55Z</time>
      </trkpt>
      <trkpt lat="48.94647" lon="2.09892">
        <ele>53.4</ele>
        <time>2022-03-08T09:15:58Z</time>
      </trkpt>
      <trkpt lat="48.94653" lon="2.09893">
        <ele>54.2</ele>
        <time>2022-03-08T09:16:02Z</time>
      </trkpt>
      <trkpt lat="48.94658" lon="2.09894">
        <ele>54.7</ele>
        <time>2022-03-08T09:16:05Z</time>
      </trkpt>
      <trkpt lat="48.94663" lon="2.09897">
        <ele>54.9</ele>
        <time>2022-03-08T09:16:09Z</time>
      </trkpt>
      <trkpt lat="48.94668" lon="2.099">
        <ele>55.1</ele>
        <time>2022-03-08T09:16:13Z</time>
      </trkpt>
      <trkpt lat="48.94672" lon="2.09901">
        <ele>55.2</ele>
        <time>2022-03-08T09:16:15Z</time>
      </trkpt>
      <trkpt lat="48.94677" lon="2.09903">
        <ele>55</ele>
        <time>2022-03-08T09:16:19Z</time>
      </trkpt>
      <trkpt lat="48.94683" lon="2.09903">
        <ele>55.2</ele>
        <time>2022-03-08T09:16:23Z</time>
      </trkpt>
      <trkpt lat="48.94687" lon="2.09904">
        <ele>55.4</ele>
        <time>2022-03-08T09:16:26Z</time>
      </trkpt>
      <trkpt lat="48.94692" lon="2.09908">
        <ele>56</ele>
        <time>2022-03-08T09:16:29Z</time>
      </trkpt>
      <trkpt lat="48.94697" lon="2.09909">
        <ele>56.5</ele>
        <time>2022-03-08T09:16:34Z</time>
      </trkpt>
      <trkpt lat="48.94703" lon="2.09911">
        <ele>57.1</ele>
        <time>2022-03-08T09:16:38Z</time>
      </trkpt>
      <trkpt lat="48.94708" lon="2.09912">
        <ele>56.9</ele>
        <time>2022-03-08T09:16:41Z</time>
      </trkpt>
      <trkpt lat="48.94715" lon="2.09913">
        <ele>55.8</ele>
        <time>2022-03-08T09:16:46Z</time>
      </trkpt>
      <trkpt lat="48.94719" lon="2.09915">
        <ele>55</ele>
        <time>2022-03-08T09:16:48Z</time>
      </trkpt>
      <trkpt lat="48.94725" lon="2.09917">
        <ele>54.8</ele>
        <time>2022-03-08T09:16:52Z</time>
      </trkpt>
      <trkpt lat="48.9473" lon="2.09919">
        <ele>55</ele>
        <time>2022-03-08T09:16:56Z</time>
      </trkpt>
      <trkpt lat="48.94736" lon="2.0992">
        <ele>55.5</ele>
        <time>2022-03-08T09:16:59Z</time>
      </trkpt>
      <trkpt lat="48.9474" lon="2.09921">
        <ele>55.7</ele>
        <time>2022-03-08T09:17:03Z</time>
      </trkpt>
      <trkpt lat="48.94746" lon="2.09923">
        <ele>55.9</ele>
        <time>2022-03-08T09:17:06Z</time>
      </trkpt>
      <trkpt lat="48.9475" lon="2.09923">
        <ele>56</ele>
        <time>2022-03-08T09:17:09Z</time>
      </trkpt>
      <trkpt lat="48.94755" lon="2.09925">
        <ele>56.6</ele>
        <time>2022-03-08T09:17:13Z</time>
      </trkpt>
      <trkpt lat="48.94759" lon="2.09927">
        <ele>57.2</ele>
        <time>2022-03-08T09:17:16Z</time>
      </trkpt>
      <trkpt lat="48.94765" lon="2.09929">
        <ele>57.6</ele>
        <time>2022-03-08T09:17:21Z</time>
      </trkpt>
      <trkpt lat="48.9477" lon="2.09931">
        <ele>57.3</ele>
        <time>2022-03-08T09:17:24Z</time>
      </trkpt>
      <trkpt lat="48.94774" lon="2.09933">
        <ele>56.1</ele>
        <time>2022-03-08T09:17:27Z</time>
      </trkpt>
      <trkpt lat="48.94779" lon="2.09936">
        <ele>54.8</ele>
        <time>2022-03-08T09:17:31Z</time>
      </trkpt>
      <trkpt lat="48.94783" lon="2.09937">
        <ele>53.9</ele>
        <time>2022-03-08T09:17:34Z</time>
      </trkpt>
      <trkpt lat="48.94788" lon="2.09938">
        <ele>53.8</ele>
        <time>2022-03-08T09:17:38Z</time>
      </trkpt>
      <trkpt lat="48.94793" lon="2.09939">
        <ele>54.4</ele>
        <time>2022-03-08T09:17:42Z</time>
      </trkpt>
      <trkpt lat="48.94798" lon="2.09941">
        <ele>54.9</ele>
        <time>2022-03-08T09:17:45Z</time>
      </trkpt>
      <trkpt lat="48.94803" lon="2.09943">
        <ele>55</ele>
        <time>2022-03-08T09:17:49Z</time>
      </trkpt>
      <trkpt lat="48.94808" lon="2.09946">
        <ele>54.3</ele>
        <time>2022-03-08T09:17:53Z</time>
      </trkpt>
      <trkpt lat="48.94814" lon="2.0995">
        <ele>54.3</ele>
        <time>2022-03-08T09:17:56Z</time>
      </trkpt>
      <trkpt lat="48.9482" lon="2.09952">
        <ele>54.6</ele>
        <time>2022-03-08T09:18:00Z</time>
      </trkpt>
      <trkpt lat="48.94825" lon="2.09954">
        <ele>55.2</ele>
        <time>2022-03-08T09:18:05Z</time>
      </trkpt>
      <trkpt lat="48.94831" lon="2.09955">
        <ele>56.5</ele>
        <time>2022-03-08T09:18:08Z</time>
      </trkpt>
      <trkpt lat="48.94837" lon="2.09957">
        <ele>58</ele>
        <time>2022-03-08T09:18:12Z</time>
      </trkpt>
      <trkpt lat="48.94842" lon="2.09958">
        <ele>58.7</ele>
        <time>2022-03-08T09:18:15Z</time>
      </trkpt>
      <trkpt lat="48.94847" lon="2.09959">
        <ele>57.7</ele>
        <time>2022-03-08T09:18:19Z</time>
      </trkpt>
      <trkpt lat="48.94852" lon="2.0996">
        <ele>56.8</ele>
        <time>2022-03-08T09:18:23Z</time>
      </trkpt>
      <trkpt lat="48.94858" lon="2.09962">
        <ele>56.2</ele>
        <time>2022-03-08T09:18:27Z</time>
      </trkpt>
      <trkpt lat="48.94864" lon="2.09963">
        <ele>56.2</ele>
        <time>2022-03-08T09:18:30Z</time>
      </trkpt>
      <trkpt lat="48.94869" lon="2.09965">
        <ele>56</ele>
        <time>2022-03-08T09:18:34Z</time>
      </trkpt>
      <trkpt lat="48.94874" lon="2.09969">
        <ele>55.7</ele>
        <time>2022-03-08T09:18:38Z</time>
      </trkpt>
      <trkpt lat="48.94879" lon="2.09972">
        <ele>55.9</ele>
        <time>2022-03-08T09:18:41Z</time>
      </trkpt>
      <trkpt lat="48.94885" lon="2.09973">
        <ele>56.2</ele>
        <time>2022-03-08T09:18:45Z</time>
      </trkpt>
      <trkpt lat="48.9489" lon="2.09974">
        <ele>56.3</ele>
        <time>2022-03-08T09:18:49Z</time>
      </trkpt>
      <trkpt lat="48.94895" lon="2.09975">
        <ele>56.5</ele>
        <time>2022-03-08T09:18:52Z</time>
      </trkpt>
      <trkpt lat="48.94902" lon="2.09976">
        <ele>57.4</ele>
        <time>2022-03-08T09:18:57Z</time>
      </trkpt>
      <trkpt lat="48.94907" lon="2.09977">
        <ele>58</ele>
        <time>2022-03-08T09:19:00Z</time>
      </trkpt>
      <trkpt lat="48.94911" lon="2.09978">
        <ele>58</ele>
        <time>2022-03-08T09:19:03Z</time>
      </trkpt>
      <trkpt lat="48.94917" lon="2.0998">
        <ele>56.8</ele>
        <time>2022-03-08T09:19:07Z</time>
      </trkpt>
      <trkpt lat="48.94922" lon="2.0998">
        <ele>55.9</ele>
        <time>2022-03-08T09:19:10Z</time>
      </trkpt>
      <trkpt lat="48.94928" lon="2.09982">
        <ele>56.5</ele>
        <time>2022-03-08T09:19:15Z</time>
      </trkpt>
      <trkpt lat="48.94933" lon="2.09983">
        <ele>57.8</ele>
        <time>2022-03-08T09:19:18Z</time>
      </trkpt>
      <trkpt lat="48.94938" lon="2.09983">
        <ele>58.7</ele>
        <time>2022-03-08T09:19:21Z</time>
      </trkpt>
      <trkpt lat="48.94943" lon="2.09985">
        <ele>58.4</ele>
        <time>2022-03-08T09:19:25Z</time>
      </trkpt>
      <trkpt lat="48.94948" lon="2.09986">
        <ele>57.3</ele>
        <time>2022-03-08T09:19:28Z</time>
      </trkpt>
      <trkpt lat="48.94952" lon="2.09989">
        <ele>55.9</ele>
        <time>2022-03-08T09:19:32Z</time>
      </trkpt>
      <trkpt lat="48.94957" lon="2.09992">
        <ele>55.3</ele>
        <time>2022-03-08T09:19:35Z</time>
      </trkpt>
      <trkpt lat="48.94962" lon="2.09994">
        <ele>55.1</ele>
        <time>2022-03-08T09:19:39Z</time>
      </trkpt>
      <trkpt lat="48.94967" lon="2.09994">
        <ele>55</ele>
        <time>2022-03-08T09:19:42Z</time>
      </trkpt>
      <trkpt lat="48.94972" lon="2.09995">
        <ele>54.3</ele>
        <time>2022-03-08T09:19:45Z</time>
      </trkpt>
      <trkpt lat="48.94977" lon="2.09998">
        <ele>52.6</ele>
        <time>2022-03-08T09:19:49Z</time>
      </trkpt>
      <trkpt lat="48.94983" lon="2.09999">
        <ele>51.4</ele>
        <time>2022-03-08T09:19:52Z</time>
      </trkpt>
      <trkpt lat="48.94988" lon="2.10002">
        <ele>50.1</ele>
        <time>2022-03-08T09:19:56Z</time>
      </trkpt>
      <trkpt lat="48.94994" lon="2.10004">
        <ele>47.9</ele>
        <time>2022-03-08T09:20:00Z</time>
      </trkpt>
      <trkpt lat="48.94998" lon="2.10005">
        <ele>46.9</ele>
        <time>2022-03-08T09:20:03Z</time>
      </trkpt>
      <trkpt lat="48.95003" lon="2.10003">
        <ele>47</ele>
        <time>2022-03-08T09:20:08Z</time>
      </trkpt>
      <trkpt lat="48.95002" lon="2.09996">
        <ele>47.7</ele>
        <time>2022-03-08T09:20:16Z</time>
      </trkpt>
      <trkpt lat="48.95008" lon="2.09992">
        <ele>47.3</ele>
        <time>2022-03-08T09:20:20Z</time>
      </trkpt>
      <trkpt lat="48.95014" lon="2.09991">
        <ele>46.2</ele>
        <time>2022-03-08T09:20:43Z</time>
      </trkpt>
      <trkpt lat="48.95019" lon="2.09991">
        <ele>46.7</ele>
        <time>2022-03-08T09:20:48Z</time>
      </trkpt>
      <trkpt lat="48.95022" lon="2.09985">
        <ele>47.5</ele>
        <time>2022-03-08T09:20:59Z</time>
      </trkpt>
      <trkpt lat="48.95025" lon="2.09977">
        <ele>48.6</ele>
        <time>2022-03-08T09:21:03Z</time>
      </trkpt>
      <trkpt lat="48.95027" lon="2.0997">
        <ele>50.1</ele>
        <time>2022-03-08T09:21:07Z</time>
      </trkpt>
      <trkpt lat="48.95028" lon="2.09964">
        <ele>50.9</ele>
        <time>2022-03-08T09:21:10Z</time>
      </trkpt>
      <trkpt lat="48.95031" lon="2.09957">
        <ele>51.5</ele>
        <time>2022-03-08T09:21:14Z</time>
      </trkpt>
      <trkpt lat="48.95035" lon="2.09951">
        <ele>51.8</ele>
        <time>2022-03-08T09:21:19Z</time>
      </trkpt>
      <trkpt lat="48.95039" lon="2.09948">
        <ele>52.5</ele>
        <time>2022-03-08T09:21:22Z</time>
      </trkpt>
      <trkpt lat="48.95042" lon="2.09941">
        <ele>52.5</ele>
        <time>2022-03-08T09:21:26Z</time>
      </trkpt>
      <trkpt lat="48.95045" lon="2.09936">
        <ele>52.9</ele>
        <time>2022-03-08T09:21:30Z</time>
      </trkpt>
      <trkpt lat="48.95048" lon="2.09931">
        <ele>53.6</ele>
        <time>2022-03-08T09:21:33Z</time>
      </trkpt>
      <trkpt lat="48.95052" lon="2.09925">
        <ele>54.9</ele>
        <time>2022-03-08T09:21:36Z</time>
      </trkpt>
      <trkpt lat="48.95055" lon="2.09919">
        <ele>54.9</ele>
        <time>2022-03-08T09:21:40Z</time>
      </trkpt>
      <trkpt lat="48.95059" lon="2.09912">
        <ele>54.5</ele>
        <time>2022-03-08T09:21:45Z</time>
      </trkpt>
      <trkpt lat="48.95062" lon="2.09906">
        <ele>54.8</ele>
        <time>2022-03-08T09:21:48Z</time>
      </trkpt>
      <trkpt lat="48.95066" lon="2.099">
        <ele>55</ele>
        <time>2022-03-08T09:21:51Z</time>
      </trkpt>
      <trkpt lat="48.9507" lon="2.09895">
        <ele>55.2</ele>
        <time>2022-03-08T09:21:55Z</time>
      </trkpt>
      <trkpt lat="48.95073" lon="2.09889">
        <ele>55.3</ele>
        <time>2022-03-08T09:21:58Z</time>
      </trkpt>
      <trkpt lat="48.95076" lon="2.09883">
        <ele>55</ele>
        <time>2022-03-08T09:22:01Z</time>
      </trkpt>
      <trkpt lat="48.95079" lon="2.09877">
        <ele>54.3</ele>
        <time>2022-03-08T09:22:04Z</time>
      </trkpt>
      <trkpt lat="48.95083" lon="2.09872">
        <ele>54.2</ele>
        <time>2022-03-08T09:22:07Z</time>
      </trkpt>
      <trkpt lat="48.95087" lon="2.09866">
        <ele>54.6</ele>
        <time>2022-03-08T09:22:11Z</time>
      </trkpt>
      <trkpt lat="48.95091" lon="2.09859">
        <ele>55.1</ele>
        <time>2022-03-08T09:22:15Z</time>
      </trkpt>
      <trkpt lat="48.95094" lon="2.09853">
        <ele>54.3</ele>
        <time>2022-03-08T09:22:18Z</time>
      </trkpt>
      <trkpt lat="48.95099" lon="2.09847">
        <ele>54.5</ele>
        <time>2022-03-08T09:22:22Z</time>
      </trkpt>
      <trkpt lat="48.95103" lon="2.09842">
        <ele>54.4</ele>
        <time>2022-03-08T09:22:26Z</time>
      </trkpt>
      <trkpt lat="48.95107" lon="2.09836">
        <ele>54.4</ele>
        <time>2022-03-08T09:22:30Z</time>
      </trkpt>
      <trkpt lat="48.95112" lon="2.0983">
        <ele>54.4</ele>
        <time>2022-03-08T09:22:34Z</time>
      </trkpt>
      <trkpt lat="48.95116" lon="2.09824">
        <ele>55</ele>
        <time>2022-03-08T09:22:38Z</time>
      </trkpt>
      <trkpt lat="48.9512" lon="2.09819">
        <ele>55.2</ele>
        <time>2022-03-08T09:22:42Z</time>
      </trkpt>
      <trkpt lat="48.95124" lon="2.09814">
        <ele>55.1</ele>
        <time>2022-03-08T09:22:44Z</time>
      </trkpt>
      <trkpt lat="48.95128" lon="2.09808">
        <ele>54.8</ele>
        <time>2022-03-08T09:22:48Z</time>
      </trkpt>
      <trkpt lat="48.95132" lon="2.09802">
        <ele>53.9</ele>
        <time>2022-03-08T09:22:52Z</time>
      </trkpt>
      <trkpt lat="48.95135" lon="2.09795">
        <ele>53.3</ele>
        <time>2022-03-08T09:22:56Z</time>
      </trkpt>
      <trkpt lat="48.95138" lon="2.09789">
        <ele>53.3</ele>
        <time>2022-03-08T09:22:59Z</time>
      </trkpt>
      <trkpt lat="48.95141" lon="2.09784">
        <ele>53.7</ele>
        <time>2022-03-08T09:23:02Z</time>
      </trkpt>
      <trkpt lat="48.95144" lon="2.09778">
        <ele>54.1</ele>
        <time>2022-03-08T09:23:05Z</time>
      </trkpt>
      <trkpt lat="48.95147" lon="2.09771">
        <ele>53.9</ele>
        <time>2022-03-08T09:23:09Z</time>
      </trkpt>
      <trkpt lat="48.95152" lon="2.09765">
        <ele>54</ele>
        <time>2022-03-08T09:23:14Z</time>
      </trkpt>
      <trkpt lat="48.95155" lon="2.09758">
        <ele>53.7</ele>
        <time>2022-03-08T09:23:20Z</time>
      </trkpt>
      <trkpt lat="48.95158" lon="2.09753">
        <ele>53.1</ele>
        <time>2022-03-08T09:23:23Z</time>
      </trkpt>
      <trkpt lat="48.95161" lon="2.09748">
        <ele>52.1</ele>
        <time>2022-03-08T09:23:26Z</time>
      </trkpt>
      <trkpt lat="48.95165" lon="2.09743">
        <ele>51.7</ele>
        <time>2022-03-08T09:23:29Z</time>
      </trkpt>
      <trkpt lat="48.95169" lon="2.09738">
        <ele>50.7</ele>
        <time>2022-03-08T09:23:32Z</time>
      </trkpt>
      <trkpt lat="48.95173" lon="2.09732">
        <ele>50.1</ele>
        <time>2022-03-08T09:23:35Z</time>
      </trkpt>
      <trkpt lat="48.95177" lon="2.09727">
        <ele>50</ele>
        <time>2022-03-08T09:23:39Z</time>
      </trkpt>
      <trkpt lat="48.95181" lon="2.0972">
        <ele>50</ele>
        <time>2022-03-08T09:23:43Z</time>
      </trkpt>
      <trkpt lat="48.95185" lon="2.09715">
        <ele>49.5</ele>
        <time>2022-03-08T09:23:47Z</time>
      </trkpt>
      <trkpt lat="48.95189" lon="2.0971">
        <ele>48.5</ele>
        <time>2022-03-08T09:23:50Z</time>
      </trkpt>
      <trkpt lat="48.95194" lon="2.09703">
        <ele>48.1</ele>
        <time>2022-03-08T09:23:54Z</time>
      </trkpt>
      <trkpt lat="48.95197" lon="2.09696">
        <ele>47</ele>
        <time>2022-03-08T09:23:59Z</time>
      </trkpt>
      <trkpt lat="48.95201" lon="2.0969">
        <ele>46.1</ele>
        <time>2022-03-08T09:24:03Z</time>
      </trkpt>
      <trkpt lat="48.95204" lon="2.09684">
        <ele>45.3</ele>
        <time>2022-03-08T09:24:05Z</time>
      </trkpt>
      <trkpt lat="48.95208" lon="2.09676">
        <ele>44.6</ele>
        <time>2022-03-08T09:24:09Z</time>
      </trkpt>
      <trkpt lat="48.95213" lon="2.09669">
        <ele>43.7</ele>
        <time>2022-03-08T09:24:15Z</time>
      </trkpt>
      <trkpt lat="48.95217" lon="2.09662">
        <ele>43.9</ele>
        <time>2022-03-08T09:24:19Z</time>
      </trkpt>
      <trkpt lat="48.9522" lon="2.09654">
        <ele>44.2</ele>
        <time>2022-03-08T09:24:25Z</time>
      </trkpt>
      <trkpt lat="48.95222" lon="2.09648">
        <ele>44.1</ele>
        <time>2022-03-08T09:24:29Z</time>
      </trkpt>
      <trkpt lat="48.95225" lon="2.09642">
        <ele>44.2</ele>
        <time>2022-03-08T09:24:31Z</time>
      </trkpt>
      <trkpt lat="48.9523" lon="2.09636">
        <ele>44.5</ele>
        <time>2022-03-08T09:24:35Z</time>
      </trkpt>
      <trkpt lat="48.95234" lon="2.09632">
        <ele>44.4</ele>
        <time>2022-03-08T09:24:38Z</time>
      </trkpt>
      <trkpt lat="48.95239" lon="2.09626">
        <ele>44</ele>
        <time>2022-03-08T09:24:42Z</time>
      </trkpt>
      <trkpt lat="48.9525" lon="2.09605">
        <ele>44.6</ele>
        <time>2022-03-08T09:24:56Z</time>
      </trkpt>
      <trkpt lat="48.95253" lon="2.09596">
        <ele>44.1</ele>
        <time>2022-03-08T09:25:00Z</time>
      </trkpt>
      <trkpt lat="48.95258" lon="2.09588">
        <ele>43.1</ele>
        <time>2022-03-08T09:25:05Z</time>
      </trkpt>
      <trkpt lat="48.95262" lon="2.09583">
        <ele>41.9</ele>
        <time>2022-03-08T09:25:09Z</time>
      </trkpt>
      <trkpt lat="48.95266" lon="2.09579">
        <ele>41.3</ele>
        <time>2022-03-08T09:25:13Z</time>
      </trkpt>
      <trkpt lat="48.95272" lon="2.09576">
        <ele>42.1</ele>
        <time>2022-03-08T09:25:17Z</time>
      </trkpt>
      <trkpt lat="48.95276" lon="2.09575">
        <ele>43.2</ele>
        <time>2022-03-08T09:25:20Z</time>
      </trkpt>
      <trkpt lat="48.95281" lon="2.09574">
        <ele>43.9</ele>
        <time>2022-03-08T09:25:24Z</time>
      </trkpt>
      <trkpt lat="48.95284" lon="2.0957">
        <ele>44.3</ele>
        <time>2022-03-08T09:25:28Z</time>
      </trkpt>
      <trkpt lat="48.95287" lon="2.09564">
        <ele>44.2</ele>
        <time>2022-03-08T09:25:31Z</time>
      </trkpt>
      <trkpt lat="48.9529" lon="2.09556">
        <ele>43.2</ele>
        <time>2022-03-08T09:25:35Z</time>
      </trkpt>
      <trkpt lat="48.95292" lon="2.09548">
        <ele>40.1</ele>
        <time>2022-03-08T09:25:39Z</time>
      </trkpt>
      <trkpt lat="48.95295" lon="2.09544">
        <ele>39</ele>
        <time>2022-03-08T09:25:42Z</time>
      </trkpt>
      <trkpt lat="48.953" lon="2.09541">
        <ele>38.9</ele>
        <time>2022-03-08T09:25:45Z</time>
      </trkpt>
      <trkpt lat="48.95304" lon="2.09546">
        <ele>37.9</ele>
        <time>2022-03-08T09:26:38Z</time>
      </trkpt>
      <trkpt lat="48.95306" lon="2.09554">
        <ele>37.3</ele>
        <time>2022-03-08T09:26:42Z</time>
      </trkpt>
      <trkpt lat="48.95308" lon="2.09561">
        <ele>37.3</ele>
        <time>2022-03-08T09:26:45Z</time>
      </trkpt>
      <trkpt lat="48.95311" lon="2.09569">
        <ele>37.5</ele>
        <time>2022-03-08T09:26:50Z</time>
      </trkpt>
      <trkpt lat="48.95313" lon="2.09579">
        <ele>37.1</ele>
        <time>2022-03-08T09:26:55Z</time>
      </trkpt>
      <trkpt lat="48.95317" lon="2.09586">
        <ele>35.8</ele>
        <time>2022-03-08T09:27:01Z</time>
      </trkpt>
      <trkpt lat="48.95319" lon="2.09593">
        <ele>34.6</ele>
        <time>2022-03-08T09:27:05Z</time>
      </trkpt>
      <trkpt lat="48.95322" lon="2.09603">
        <ele>34</ele>
        <time>2022-03-08T09:27:11Z</time>
      </trkpt>
      <trkpt lat="48.95326" lon="2.09612">
        <ele>32.8</ele>
        <time>2022-03-08T09:27:15Z</time>
      </trkpt>
      <trkpt lat="48.95329" lon="2.0962">
        <ele>32.4</ele>
        <time>2022-03-08T09:27:20Z</time>
      </trkpt>
      <trkpt lat="48.95331" lon="2.09626">
        <ele>31.3</ele>
        <time>2022-03-08T09:27:25Z</time>
      </trkpt>
      <trkpt lat="48.95333" lon="2.09633">
        <ele>30</ele>
        <time>2022-03-08T09:27:29Z</time>
      </trkpt>
      <trkpt lat="48.95335" lon="2.0964">
        <ele>28.9</ele>
        <time>2022-03-08T09:27:32Z</time>
      </trkpt>
      <trkpt lat="48.95338" lon="2.09647">
        <ele>28.9</ele>
        <time>2022-03-08T09:27:35Z</time>
      </trkpt>
      <trkpt lat="48.95339" lon="2.09658">
        <ele>30</ele>
        <time>2022-03-08T09:27:40Z</time>
      </trkpt>
      <trkpt lat="48.9534" lon="2.09667">
        <ele>30.8</ele>
        <time>2022-03-08T09:27:44Z</time>
      </trkpt>
      <trkpt lat="48.95342" lon="2.09675">
        <ele>30.7</ele>
        <time>2022-03-08T09:27:48Z</time>
      </trkpt>
      <trkpt lat="48.95344" lon="2.09682">
        <ele>30.4</ele>
        <time>2022-03-08T09:27:51Z</time>
      </trkpt>
      <trkpt lat="48.95346" lon="2.0969">
        <ele>30.5</ele>
        <time>2022-03-08T09:27:55Z</time>
      </trkpt>
      <trkpt lat="48.95348" lon="2.09698">
        <ele>30.1</ele>
        <time>2022-03-08T09:27:58Z</time>
      </trkpt>
      <trkpt lat="48.95351" lon="2.09705">
        <ele>30.7</ele>
        <time>2022-03-08T09:28:02Z</time>
      </trkpt>
      <trkpt lat="48.95353" lon="2.09714">
        <ele>31.3</ele>
        <time>2022-03-08T09:28:06Z</time>
      </trkpt>
      <trkpt lat="48.95354" lon="2.09721">
        <ele>32.4</ele>
        <time>2022-03-08T09:28:10Z</time>
      </trkpt>
      <trkpt lat="48.95355" lon="2.09729">
        <ele>33.1</ele>
        <time>2022-03-08T09:28:13Z</time>
      </trkpt>
      <trkpt lat="48.95357" lon="2.09736">
        <ele>33.5</ele>
        <time>2022-03-08T09:28:17Z</time>
      </trkpt>
      <trkpt lat="48.9536" lon="2.09743">
        <ele>34.2</ele>
        <time>2022-03-08T09:28:21Z</time>
      </trkpt>
      <trkpt lat="48.95362" lon="2.0975">
        <ele>34.6</ele>
        <time>2022-03-08T09:28:24Z</time>
      </trkpt>
      <trkpt lat="48.95364" lon="2.09758">
        <ele>34.8</ele>
        <time>2022-03-08T09:28:28Z</time>
      </trkpt>
      <trkpt lat="48.95366" lon="2.09766">
        <ele>34.7</ele>
        <time>2022-03-08T09:28:32Z</time>
      </trkpt>
      <trkpt lat="48.95369" lon="2.09773">
        <ele>34.4</ele>
        <time>2022-03-08T09:28:36Z</time>
      </trkpt>
      <trkpt lat="48.95371" lon="2.09781">
        <ele>33.4</ele>
        <time>2022-03-08T09:28:39Z</time>
      </trkpt>
      <trkpt lat="48.95374" lon="2.09788">
        <ele>32.5</ele>
        <time>2022-03-08T09:28:42Z</time>
      </trkpt>
      <trkpt lat="48.95377" lon="2.09797">
        <ele>32.3</ele>
        <time>2022-03-08T09:28:47Z</time>
      </trkpt>
      <trkpt lat="48.95379" lon="2.09804">
        <ele>32.7</ele>
        <time>2022-03-08T09:28:52Z</time>
      </trkpt>
      <trkpt lat="48.95381" lon="2.09812">
        <ele>32.4</ele>
        <time>2022-03-08T09:28:55Z</time>
      </trkpt>
      <trkpt lat="48.95383" lon="2.09819">
        <ele>32.2</ele>
        <time>2022-03-08T09:28:59Z</time>
      </trkpt>
      <trkpt lat="48.95386" lon="2.09828">
        <ele>32.1</ele>
        <time>2022-03-08T09:29:02Z</time>
      </trkpt>
      <trkpt lat="48.95387" lon="2.09834">
        <ele>32.6</ele>
        <time>2022-03-08T09:29:07Z</time>
      </trkpt>
      <trkpt lat="48.9539" lon="2.09842">
        <ele>32.5</ele>
        <time>2022-03-08T09:29:10Z</time>
      </trkpt>
      <trkpt lat="48.95391" lon="2.09849">
        <ele>32.5</ele>
        <time>2022-03-08T09:29:14Z</time>
      </trkpt>
      <trkpt lat="48.95394" lon="2.09859">
        <ele>33</ele>
        <time>2022-03-08T09:29:19Z</time>
      </trkpt>
      <trkpt lat="48.95398" lon="2.09865">
        <ele>35.2</ele>
        <time>2022-03-08T09:29:23Z</time>
      </trkpt>
      <trkpt lat="48.954" lon="2.09873">
        <ele>36</ele>
        <time>2022-03-08T09:29:27Z</time>
      </trkpt>
      <trkpt lat="48.95403" lon="2.09882">
        <ele>35.4</ele>
        <time>2022-03-08T09:29:31Z</time>
      </trkpt>
      <trkpt lat="48.95405" lon="2.09893">
        <ele>34.2</ele>
        <time>2022-03-08T09:29:36Z</time>
      </trkpt>
      <trkpt lat="48.95407" lon="2.09901">
        <ele>33.7</ele>
        <time>2022-03-08T09:29:40Z</time>
      </trkpt>
      <trkpt lat="48.95409" lon="2.09908">
        <ele>33.9</ele>
        <time>2022-03-08T09:29:44Z</time>
      </trkpt>
      <trkpt lat="48.95411" lon="2.09915">
        <ele>34</ele>
        <time>2022-03-08T09:29:48Z</time>
      </trkpt>
      <trkpt lat="48.95413" lon="2.09924">
        <ele>34.6</ele>
        <time>2022-03-08T09:29:51Z</time>
      </trkpt>
      <trkpt lat="48.95416" lon="2.09934">
        <ele>34.4</ele>
        <time>2022-03-08T09:29:56Z</time>
      </trkpt>
      <trkpt lat="48.95418" lon="2.09943">
        <ele>34.2</ele>
        <time>2022-03-08T09:30:02Z</time>
      </trkpt>
      <trkpt lat="48.95421" lon="2.09951">
        <ele>34.7</ele>
        <time>2022-03-08T09:30:05Z</time>
      </trkpt>
      <trkpt lat="48.95423" lon="2.09957">
        <ele>35.5</ele>
        <time>2022-03-08T09:30:08Z</time>
      </trkpt>
      <trkpt lat="48.95424" lon="2.09965">
        <ele>35.7</ele>
        <time>2022-03-08T09:30:12Z</time>
      </trkpt>
      <trkpt lat="48.95425" lon="2.09975">
        <ele>35.6</ele>
        <time>2022-03-08T09:30:16Z</time>
      </trkpt>
      <trkpt lat="48.95428" lon="2.09982">
        <ele>34.8</ele>
        <time>2022-03-08T09:30:20Z</time>
      </trkpt>
      <trkpt lat="48.9543" lon="2.09989">
        <ele>33.6</ele>
        <time>2022-03-08T09:30:24Z</time>
      </trkpt>
      <trkpt lat="48.95431" lon="2.09996">
        <ele>33.8</ele>
        <time>2022-03-08T09:30:27Z</time>
      </trkpt>
      <trkpt lat="48.95432" lon="2.10004">
        <ele>35.5</ele>
        <time>2022-03-08T09:30:32Z</time>
      </trkpt>
      <trkpt lat="48.95434" lon="2.10012">
        <ele>36.8</ele>
        <time>2022-03-08T09:30:36Z</time>
      </trkpt>
      <trkpt lat="48.95435" lon="2.1002">
        <ele>37.1</ele>
        <time>2022-03-08T09:30:39Z</time>
      </trkpt>
      <trkpt lat="48.95437" lon="2.10026">
        <ele>36.6</ele>
        <time>2022-03-08T09:30:42Z</time>
      </trkpt>
      <trkpt lat="48.95439" lon="2.10032">
        <ele>36.2</ele>
        <time>2022-03-08T09:30:46Z</time>
      </trkpt>
      <trkpt lat="48.95441" lon="2.10039">
        <ele>35.3</ele>
        <time>2022-03-08T09:30:49Z</time>
      </trkpt>
      <trkpt lat="48.95443" lon="2.10046">
        <ele>35.1</ele>
        <time>2022-03-08T09:30:52Z</time>
      </trkpt>
      <trkpt lat="48.95448" lon="2.10053">
        <ele>34.2</ele>
        <time>2022-03-08T09:30:56Z</time>
      </trkpt>
      <trkpt lat="48.95451" lon="2.1006">
        <ele>33.4</ele>
        <time>2022-03-08T09:31:01Z</time>
      </trkpt>
      <trkpt lat="48.95455" lon="2.10069">
        <ele>33.3</ele>
        <time>2022-03-08T09:31:06Z</time>
      </trkpt>
      <trkpt lat="48.95456" lon="2.10076">
        <ele>33.1</ele>
        <time>2022-03-08T09:31:10Z</time>
      </trkpt>
      <trkpt lat="48.95459" lon="2.10082">
        <ele>33.1</ele>
        <time>2022-03-08T09:31:14Z</time>
      </trkpt>
      <trkpt lat="48.95461" lon="2.10088">
        <ele>34</ele>
        <time>2022-03-08T09:31:17Z</time>
      </trkpt>
      <trkpt lat="48.95463" lon="2.10096">
        <ele>34.9</ele>
        <time>2022-03-08T09:31:21Z</time>
      </trkpt>
      <trkpt lat="48.95464" lon="2.10105">
        <ele>36.6</ele>
        <time>2022-03-08T09:31:25Z</time>
      </trkpt>
      <trkpt lat="48.95465" lon="2.10114">
        <ele>38.5</ele>
        <time>2022-03-08T09:31:28Z</time>
      </trkpt>
      <trkpt lat="48.95467" lon="2.10121">
        <ele>39</ele>
        <time>2022-03-08T09:31:32Z</time>
      </trkpt>
      <trkpt lat="48.95468" lon="2.10128">
        <ele>38.4</ele>
        <time>2022-03-08T09:31:35Z</time>
      </trkpt>
      <trkpt lat="48.9547" lon="2.10135">
        <ele>37.5</ele>
        <time>2022-03-08T09:31:39Z</time>
      </trkpt>
      <trkpt lat="48.95472" lon="2.10141">
        <ele>37.1</ele>
        <time>2022-03-08T09:31:42Z</time>
      </trkpt>
      <trkpt lat="48.95474" lon="2.10147">
        <ele>36.9</ele>
        <time>2022-03-08T09:31:45Z</time>
      </trkpt>
      <trkpt lat="48.95478" lon="2.10154">
        <ele>37.8</ele>
        <time>2022-03-08T09:31:50Z</time>
      </trkpt>
      <trkpt lat="48.95481" lon="2.10162">
        <ele>38.4</ele>
        <time>2022-03-08T09:31:54Z</time>
      </trkpt>
      <trkpt lat="48.95482" lon="2.10169">
        <ele>38.6</ele>
        <time>2022-03-08T09:31:57Z</time>
      </trkpt>
      <trkpt lat="48.95484" lon="2.10177">
        <ele>38.9</ele>
        <time>2022-03-08T09:32:01Z</time>
      </trkpt>
      <trkpt lat="48.95487" lon="2.10182">
        <ele>39.7</ele>
        <time>2022-03-08T09:32:05Z</time>
      </trkpt>
      <trkpt lat="48.9549" lon="2.10188">
        <ele>40</ele>
        <time>2022-03-08T09:32:09Z</time>
      </trkpt>
      <trkpt lat="48.95492" lon="2.10194">
        <ele>40.1</ele>
        <time>2022-03-08T09:32:12Z</time>
      </trkpt>
      <trkpt lat="48.95494" lon="2.10202">
        <ele>39.6</ele>
        <time>2022-03-08T09:32:15Z</time>
      </trkpt>
      <trkpt lat="48.95495" lon="2.1021">
        <ele>38.4</ele>
        <time>2022-03-08T09:32:19Z</time>
      </trkpt>
      <trkpt lat="48.95497" lon="2.10219">
        <ele>36.7</ele>
        <time>2022-03-08T09:32:23Z</time>
      </trkpt>
      <trkpt lat="48.95499" lon="2.10225">
        <ele>36.8</ele>
        <time>2022-03-08T09:32:27Z</time>
      </trkpt>
      <trkpt lat="48.95501" lon="2.10233">
        <ele>37.7</ele>
        <time>2022-03-08T09:32:30Z</time>
      </trkpt>
      <trkpt lat="48.95503" lon="2.1024">
        <ele>39</ele>
        <time>2022-03-08T09:32:34Z</time>
      </trkpt>
      <trkpt lat="48.95506" lon="2.10249">
        <ele>39.4</ele>
        <time>2022-03-08T09:32:39Z</time>
      </trkpt>
      <trkpt lat="48.95507" lon="2.10256">
        <ele>39</ele>
        <time>2022-03-08T09:32:42Z</time>
      </trkpt>
      <trkpt lat="48.95509" lon="2.10263">
        <ele>38.4</ele>
        <time>2022-03-08T09:32:45Z</time>
      </trkpt>
      <trkpt lat="48.95511" lon="2.10271">
        <ele>37.9</ele>
        <time>2022-03-08T09:32:49Z</time>
      </trkpt>
      <trkpt lat="48.95513" lon="2.10279">
        <ele>38.3</ele>
        <time>2022-03-08T09:32:53Z</time>
      </trkpt>
      <trkpt lat="48.95515" lon="2.10287">
        <ele>38.3</ele>
        <time>2022-03-08T09:32:57Z</time>
      </trkpt>
      <trkpt lat="48.95517" lon="2.10294">
        <ele>37.9</ele>
        <time>2022-03-08T09:33:01Z</time>
      </trkpt>
      <trkpt lat="48.95519" lon="2.10302">
        <ele>37.4</ele>
        <time>2022-03-08T09:33:04Z</time>
      </trkpt>
      <trkpt lat="48.95522" lon="2.10309">
        <ele>37.6</ele>
        <time>2022-03-08T09:33:09Z</time>
      </trkpt>
      <trkpt lat="48.95524" lon="2.10317">
        <ele>37.3</ele>
        <time>2022-03-08T09:33:14Z</time>
      </trkpt>
      <trkpt lat="48.95526" lon="2.10324">
        <ele>36.8</ele>
        <time>2022-03-08T09:33:17Z</time>
      </trkpt>
      <trkpt lat="48.95528" lon="2.10332">
        <ele>35.8</ele>
        <time>2022-03-08T09:33:21Z</time>
      </trkpt>
      <trkpt lat="48.9553" lon="2.10338">
        <ele>35.3</ele>
        <time>2022-03-08T09:33:25Z</time>
      </trkpt>
      <trkpt lat="48.95533" lon="2.10345">
        <ele>35.6</ele>
        <time>2022-03-08T09:33:30Z</time>
      </trkpt>
      <trkpt lat="48.95536" lon="2.10353">
        <ele>36.6</ele>
        <time>2022-03-08T09:33:34Z</time>
      </trkpt>
      <trkpt lat="48.95537" lon="2.10361">
        <ele>37</ele>
        <time>2022-03-08T09:33:37Z</time>
      </trkpt>
      <trkpt lat="48.95538" lon="2.10369">
        <ele>37.4</ele>
        <time>2022-03-08T09:33:41Z</time>
      </trkpt>
      <trkpt lat="48.9554" lon="2.10377">
        <ele>37.2</ele>
        <time>2022-03-08T09:33:46Z</time>
      </trkpt>
      <trkpt lat="48.95543" lon="2.10384">
        <ele>35.8</ele>
        <time>2022-03-08T09:33:51Z</time>
      </trkpt>
      <trkpt lat="48.95545" lon="2.10391">
        <ele>33.5</ele>
        <time>2022-03-08T09:33:55Z</time>
      </trkpt>
      <trkpt lat="48.95546" lon="2.10399">
        <ele>32.4</ele>
        <time>2022-03-08T09:33:58Z</time>
      </trkpt>
      <trkpt lat="48.95548" lon="2.10406">
        <ele>32.5</ele>
        <time>2022-03-08T09:34:02Z</time>
      </trkpt>
      <trkpt lat="48.95551" lon="2.10413">
        <ele>32.9</ele>
        <time>2022-03-08T09:34:06Z</time>
      </trkpt>
      <trkpt lat="48.95553" lon="2.1042">
        <ele>33.6</ele>
        <time>2022-03-08T09:34:10Z</time>
      </trkpt>
      <trkpt lat="48.95554" lon="2.10426">
        <ele>34.6</ele>
        <time>2022-03-08T09:34:14Z</time>
      </trkpt>
      <trkpt lat="48.95556" lon="2.10434">
        <ele>35.3</ele>
        <time>2022-03-08T09:34:17Z</time>
      </trkpt>
      <trkpt lat="48.95557" lon="2.10443">
        <ele>35.8</ele>
        <time>2022-03-08T09:34:21Z</time>
      </trkpt>
      <trkpt lat="48.95559" lon="2.1045">
        <ele>36.7</ele>
        <time>2022-03-08T09:34:25Z</time>
      </trkpt>
      <trkpt lat="48.95561" lon="2.10459">
        <ele>37.6</ele>
        <time>2022-03-08T09:34:29Z</time>
      </trkpt>
      <trkpt lat="48.95563" lon="2.10466">
        <ele>37.8</ele>
        <time>2022-03-08T09:34:33Z</time>
      </trkpt>
      <trkpt lat="48.95564" lon="2.10474">
        <ele>38.8</ele>
        <time>2022-03-08T09:34:36Z</time>
      </trkpt>
      <trkpt lat="48.95565" lon="2.10483">
        <ele>39.5</ele>
        <time>2022-03-08T09:34:40Z</time>
      </trkpt>
      <trkpt lat="48.95567" lon="2.10491">
        <ele>40.5</ele>
        <time>2022-03-08T09:34:44Z</time>
      </trkpt>
      <trkpt lat="48.95569" lon="2.10498">
        <ele>40.9</ele>
        <time>2022-03-08T09:34:48Z</time>
      </trkpt>
      <trkpt lat="48.9557" lon="2.10505">
        <ele>41</ele>
        <time>2022-03-08T09:34:51Z</time>
      </trkpt>
      <trkpt lat="48.95572" lon="2.10514">
        <ele>40.8</ele>
        <time>2022-03-08T09:34:55Z</time>
      </trkpt>
      <trkpt lat="48.95574" lon="2.10523">
        <ele>40.5</ele>
        <time>2022-03-08T09:34:59Z</time>
      </trkpt>
      <trkpt lat="48.95576" lon="2.10531">
        <ele>39.8</ele>
        <time>2022-03-08T09:35:03Z</time>
      </trkpt>
      <trkpt lat="48.95578" lon="2.10538">
        <ele>38.2</ele>
        <time>2022-03-08T09:35:07Z</time>
      </trkpt>
      <trkpt lat="48.9558" lon="2.10545">
        <ele>38.2</ele>
        <time>2022-03-08T09:35:11Z</time>
      </trkpt>
      <trkpt lat="48.95581" lon="2.10552">
        <ele>39.3</ele>
        <time>2022-03-08T09:35:15Z</time>
      </trkpt>
      <trkpt lat="48.95583" lon="2.10559">
        <ele>41.6</ele>
        <time>2022-03-08T09:35:18Z</time>
      </trkpt>
      <trkpt lat="48.95584" lon="2.10567">
        <ele>43.1</ele>
        <time>2022-03-08T09:35:21Z</time>
      </trkpt>
      <trkpt lat="48.95586" lon="2.10574">
        <ele>44.1</ele>
        <time>2022-03-08T09:35:25Z</time>
      </trkpt>
      <trkpt lat="48.95587" lon="2.10581">
        <ele>44.6</ele>
        <time>2022-03-08T09:35:28Z</time>
      </trkpt>
      <trkpt lat="48.95589" lon="2.10588">
        <ele>45.9</ele>
        <time>2022-03-08T09:35:32Z</time>
      </trkpt>
      <trkpt lat="48.95592" lon="2.10595">
        <ele>46.4</ele>
        <time>2022-03-08T09:35:36Z</time>
      </trkpt>
      <trkpt lat="48.95594" lon="2.10602">
        <ele>46.4</ele>
        <time>2022-03-08T09:35:39Z</time>
      </trkpt>
      <trkpt lat="48.95596" lon="2.10609">
        <ele>46.3</ele>
        <time>2022-03-08T09:35:43Z</time>
      </trkpt>
      <trkpt lat="48.95597" lon="2.10616">
        <ele>45.8</ele>
        <time>2022-03-08T09:35:46Z</time>
      </trkpt>
      <trkpt lat="48.95598" lon="2.10624">
        <ele>44.7</ele>
        <time>2022-03-08T09:35:50Z</time>
      </trkpt>
      <trkpt lat="48.95601" lon="2.10631">
        <ele>42.9</ele>
        <time>2022-03-08T09:35:53Z</time>
      </trkpt>
      <trkpt lat="48.95603" lon="2.10638">
        <ele>41.2</ele>
        <time>2022-03-08T09:35:57Z</time>
      </trkpt>
      <trkpt lat="48.95607" lon="2.10645">
        <ele>39.7</ele>
        <time>2022-03-08T09:36:02Z</time>
      </trkpt>
      <trkpt lat="48.95609" lon="2.10651">
        <ele>38.6</ele>
        <time>2022-03-08T09:36:05Z</time>
      </trkpt>
      <trkpt lat="48.9561" lon="2.1066">
        <ele>38.4</ele>
        <time>2022-03-08T09:36:09Z</time>
      </trkpt>
      <trkpt lat="48.95611" lon="2.10669">
        <ele>38.6</ele>
        <time>2022-03-08T09:36:13Z</time>
      </trkpt>
      <trkpt lat="48.95612" lon="2.10678">
        <ele>38.7</ele>
        <time>2022-03-08T09:36:17Z</time>
      </trkpt>
      <trkpt lat="48.95614" lon="2.10685">
        <ele>38.5</ele>
        <time>2022-03-08T09:36:20Z</time>
      </trkpt>
      <trkpt lat="48.95616" lon="2.10693">
        <ele>38.7</ele>
        <time>2022-03-08T09:36:24Z</time>
      </trkpt>
      <trkpt lat="48.95618" lon="2.10701">
        <ele>38.8</ele>
        <time>2022-03-08T09:36:29Z</time>
      </trkpt>
      <trkpt lat="48.95619" lon="2.1071">
        <ele>39</ele>
        <time>2022-03-08T09:36:32Z</time>
      </trkpt>
      <trkpt lat="48.9562" lon="2.10719">
        <ele>39.5</ele>
        <time>2022-03-08T09:36:36Z</time>
      </trkpt>
      <trkpt lat="48.95621" lon="2.10726">
        <ele>40.2</ele>
        <time>2022-03-08T09:36:40Z</time>
      </trkpt>
      <trkpt lat="48.95623" lon="2.10734">
        <ele>40.2</ele>
        <time>2022-03-08T09:36:44Z</time>
      </trkpt>
      <trkpt lat="48.95625" lon="2.10742">
        <ele>39.5</ele>
        <time>2022-03-08T09:36:47Z</time>
      </trkpt>
      <trkpt lat="48.95628" lon="2.10751">
        <ele>39.5</ele>
        <time>2022-03-08T09:36:52Z</time>
      </trkpt>
      <trkpt lat="48.95631" lon="2.10758">
        <ele>40.7</ele>
        <time>2022-03-08T09:36:56Z</time>
      </trkpt>
      <trkpt lat="48.95633" lon="2.10767">
        <ele>42.2</ele>
        <time>2022-03-08T09:37:00Z</time>
      </trkpt>
      <trkpt lat="48.95636" lon="2.10772">
        <ele>43.1</ele>
        <time>2022-03-08T09:37:04Z</time>
      </trkpt>
      <trkpt lat="48.9564" lon="2.10778">
        <ele>42.5</ele>
        <time>2022-03-08T09:37:07Z</time>
      </trkpt>
      <trkpt lat="48.95642" lon="2.10785">
        <ele>40.4</ele>
        <time>2022-03-08T09:37:11Z</time>
      </trkpt>
      <trkpt lat="48.95644" lon="2.10793">
        <ele>38.9</ele>
        <time>2022-03-08T09:37:15Z</time>
      </trkpt>
      <trkpt lat="48.95646" lon="2.10801">
        <ele>36.6</ele>
        <time>2022-03-08T09:37:18Z</time>
      </trkpt>
      <trkpt lat="48.95648" lon="2.10808">
        <ele>35</ele>
        <time>2022-03-08T09:37:22Z</time>
      </trkpt>
      <trkpt lat="48.95649" lon="2.10815">
        <ele>35.1</ele>
        <time>2022-03-08T09:37:25Z</time>
      </trkpt>
      <trkpt lat="48.95651" lon="2.10821">
        <ele>35.2</ele>
        <time>2022-03-08T09:37:29Z</time>
      </trkpt>
      <trkpt lat="48.95652" lon="2.10829">
        <ele>36.6</ele>
        <time>2022-03-08T09:37:32Z</time>
      </trkpt>
      <trkpt lat="48.95652" lon="2.10836">
        <ele>36.7</ele>
        <time>2022-03-08T09:37:36Z</time>
      </trkpt>
      <trkpt lat="48.95653" lon="2.10845">
        <ele>37.6</ele>
        <time>2022-03-08T09:37:40Z</time>
      </trkpt>
      <trkpt lat="48.95654" lon="2.10852">
        <ele>38.6</ele>
        <time>2022-03-08T09:37:43Z</time>
      </trkpt>
      <trkpt lat="48.95655" lon="2.10861">
        <ele>41.9</ele>
        <time>2022-03-08T09:37:46Z</time>
      </trkpt>
      <trkpt lat="48.95656" lon="2.10869">
        <ele>43.6</ele>
        <time>2022-03-08T09:37:50Z</time>
      </trkpt>
      <trkpt lat="48.95658" lon="2.10877">
        <ele>44.6</ele>
        <time>2022-03-08T09:37:54Z</time>
      </trkpt>
      <trkpt lat="48.9566" lon="2.10884">
        <ele>45.6</ele>
        <time>2022-03-08T09:37:57Z</time>
      </trkpt>
      <trkpt lat="48.95662" lon="2.10891">
        <ele>45.6</ele>
        <time>2022-03-08T09:38:00Z</time>
      </trkpt>
      <trkpt lat="48.95664" lon="2.10898">
        <ele>44.9</ele>
        <time>2022-03-08T09:38:04Z</time>
      </trkpt>
      <trkpt lat="48.95666" lon="2.10906">
        <ele>44.3</ele>
        <time>2022-03-08T09:38:08Z</time>
      </trkpt>
      <trkpt lat="48.95668" lon="2.10913">
        <ele>44.2</ele>
        <time>2022-03-08T09:38:12Z</time>
      </trkpt>
      <trkpt lat="48.95671" lon="2.1092">
        <ele>44.5</ele>
        <time>2022-03-08T09:38:15Z</time>
      </trkpt>
      <trkpt lat="48.95673" lon="2.10928">
        <ele>44</ele>
        <time>2022-03-08T09:38:19Z</time>
      </trkpt>
      <trkpt lat="48.95674" lon="2.10935">
        <ele>44.1</ele>
        <time>2022-03-08T09:38:23Z</time>
      </trkpt>
      <trkpt lat="48.95677" lon="2.10944">
        <ele>44.2</ele>
        <time>2022-03-08T09:38:28Z</time>
      </trkpt>
      <trkpt lat="48.9568" lon="2.1095">
        <ele>43.4</ele>
        <time>2022-03-08T09:38:32Z</time>
      </trkpt>
      <trkpt lat="48.95682" lon="2.10958">
        <ele>43.2</ele>
        <time>2022-03-08T09:38:35Z</time>
      </trkpt>
      <trkpt lat="48.95683" lon="2.10966">
        <ele>44.1</ele>
        <time>2022-03-08T09:38:39Z</time>
      </trkpt>
      <trkpt lat="48.95685" lon="2.10974">
        <ele>45</ele>
        <time>2022-03-08T09:38:43Z</time>
      </trkpt>
      <trkpt lat="48.95687" lon="2.10982">
        <ele>45.4</ele>
        <time>2022-03-08T09:38:46Z</time>
      </trkpt>
      <trkpt lat="48.95689" lon="2.10989">
        <ele>45.6</ele>
        <time>2022-03-08T09:38:50Z</time>
      </trkpt>
      <trkpt lat="48.95692" lon="2.10996">
        <ele>45.5</ele>
        <time>2022-03-08T09:38:54Z</time>
      </trkpt>
      <trkpt lat="48.95694" lon="2.11003">
        <ele>44.3</ele>
        <time>2022-03-08T09:38:58Z</time>
      </trkpt>
      <trkpt lat="48.95696" lon="2.11009">
        <ele>42.8</ele>
        <time>2022-03-08T09:39:01Z</time>
      </trkpt>
      <trkpt lat="48.95697" lon="2.11016">
        <ele>41.1</ele>
        <time>2022-03-08T09:39:05Z</time>
      </trkpt>
      <trkpt lat="48.95699" lon="2.11024">
        <ele>40.7</ele>
        <time>2022-03-08T09:39:09Z</time>
      </trkpt>
      <trkpt lat="48.95702" lon="2.11032">
        <ele>40.4</ele>
        <time>2022-03-08T09:39:15Z</time>
      </trkpt>
      <trkpt lat="48.95704" lon="2.11039">
        <ele>39.4</ele>
        <time>2022-03-08T09:39:18Z</time>
      </trkpt>
      <trkpt lat="48.95706" lon="2.11046">
        <ele>37.7</ele>
        <time>2022-03-08T09:39:22Z</time>
      </trkpt>
      <trkpt lat="48.95708" lon="2.11052">
        <ele>36.5</ele>
        <time>2022-03-08T09:39:25Z</time>
      </trkpt>
      <trkpt lat="48.9571" lon="2.11059">
        <ele>35.2</ele>
        <time>2022-03-08T09:39:29Z</time>
      </trkpt>
      <trkpt lat="48.95711" lon="2.11066">
        <ele>33.1</ele>
        <time>2022-03-08T09:39:32Z</time>
      </trkpt>
      <trkpt lat="48.95713" lon="2.11073">
        <ele>33.8</ele>
        <time>2022-03-08T09:39:36Z</time>
      </trkpt>
      <trkpt lat="48.95714" lon="2.11081">
        <ele>36.2</ele>
        <time>2022-03-08T09:39:39Z</time>
      </trkpt>
      <trkpt lat="48.95714" lon="2.11089">
        <ele>39.2</ele>
        <time>2022-03-08T09:39:43Z</time>
      </trkpt>
      <trkpt lat="48.95715" lon="2.11097">
        <ele>40.9</ele>
        <time>2022-03-08T09:39:46Z</time>
      </trkpt>
      <trkpt lat="48.95718" lon="2.11105">
        <ele>41.9</ele>
        <time>2022-03-08T09:39:50Z</time>
      </trkpt>
      <trkpt lat="48.9572" lon="2.11113">
        <ele>43</ele>
        <time>2022-03-08T09:39:54Z</time>
      </trkpt>
      <trkpt lat="48.95722" lon="2.11121">
        <ele>43.6</ele>
        <time>2022-03-08T09:39:58Z</time>
      </trkpt>
      <trkpt lat="48.95724" lon="2.11129">
        <ele>43.3</ele>
        <time>2022-03-08T09:40:03Z</time>
      </trkpt>
      <trkpt lat="48.95726" lon="2.11138">
        <ele>42.8</ele>
        <time>2022-03-08T09:40:07Z</time>
      </trkpt>
      <trkpt lat="48.95728" lon="2.11146">
        <ele>43</ele>
        <time>2022-03-08T09:40:10Z</time>
      </trkpt>
      <trkpt lat="48.9573" lon="2.11154">
        <ele>43</ele>
        <time>2022-03-08T09:40:14Z</time>
      </trkpt>
      <trkpt lat="48.95733" lon="2.11162">
        <ele>42.3</ele>
        <time>2022-03-08T09:40:18Z</time>
      </trkpt>
      <trkpt lat="48.95734" lon="2.1117">
        <ele>42</ele>
        <time>2022-03-08T09:40:22Z</time>
      </trkpt>
      <trkpt lat="48.95735" lon="2.11177">
        <ele>42</ele>
        <time>2022-03-08T09:40:26Z</time>
      </trkpt>
      <trkpt lat="48.95737" lon="2.11186">
        <ele>41.6</ele>
        <time>2022-03-08T09:40:30Z</time>
      </trkpt>
      <trkpt lat="48.95732" lon="2.11189">
        <ele>40.7</ele>
        <time>2022-03-08T09:40:34Z</time>
      </trkpt>
      <trkpt lat="48.95733" lon="2.11198">
        <ele>40.3</ele>
        <time>2022-03-08T09:40:38Z</time>
      </trkpt>
      <trkpt lat="48.95735" lon="2.11205">
        <ele>40.3</ele>
        <time>2022-03-08T09:40:42Z</time>
      </trkpt>
      <trkpt lat="48.95738" lon="2.1121">
        <ele>40.9</ele>
        <time>2022-03-08T09:40:45Z</time>
      </trkpt>
      <trkpt lat="48.95741" lon="2.11217">
        <ele>42.2</ele>
        <time>2022-03-08T09:40:48Z</time>
      </trkpt>
      <trkpt lat="48.95744" lon="2.11224">
        <ele>43.8</ele>
        <time>2022-03-08T09:40:52Z</time>
      </trkpt>
      <trkpt lat="48.95746" lon="2.11231">
        <ele>44.7</ele>
        <time>2022-03-08T09:40:56Z</time>
      </trkpt>
      <trkpt lat="48.95749" lon="2.11238">
        <ele>44.8</ele>
        <time>2022-03-08T09:41:00Z</time>
      </trkpt>
      <trkpt lat="48.95751" lon="2.11244">
        <ele>44.9</ele>
        <time>2022-03-08T09:41:04Z</time>
      </trkpt>
      <trkpt lat="48.95754" lon="2.11251">
        <ele>45.6</ele>
        <time>2022-03-08T09:41:07Z</time>
      </trkpt>
      <trkpt lat="48.95756" lon="2.11259">
        <ele>47.1</ele>
        <time>2022-03-08T09:41:11Z</time>
      </trkpt>
      <trkpt lat="48.95758" lon="2.11266">
        <ele>48.9</ele>
        <time>2022-03-08T09:41:15Z</time>
      </trkpt>
      <trkpt lat="48.9576" lon="2.11273">
        <ele>49.7</ele>
        <time>2022-03-08T09:41:19Z</time>
      </trkpt>
      <trkpt lat="48.95761" lon="2.11281">
        <ele>49.6</ele>
        <time>2022-03-08T09:41:23Z</time>
      </trkpt>
      <trkpt lat="48.95762" lon="2.11289">
        <ele>49.1</ele>
        <time>2022-03-08T09:41:27Z</time>
      </trkpt>
      <trkpt lat="48.95764" lon="2.11296">
        <ele>48.4</ele>
        <time>2022-03-08T09:41:30Z</time>
      </trkpt>
      <trkpt lat="48.95766" lon="2.11304">
        <ele>48.1</ele>
        <time>2022-03-08T09:41:34Z</time>
      </trkpt>
      <trkpt lat="48.95768" lon="2.11311">
        <ele>49.4</ele>
        <time>2022-03-08T09:41:38Z</time>
      </trkpt>
      <trkpt lat="48.9577" lon="2.11319">
        <ele>49.9</ele>
        <time>2022-03-08T09:41:42Z</time>
      </trkpt>
      <trkpt lat="48.95771" lon="2.11327">
        <ele>50.3</ele>
        <time>2022-03-08T09:41:46Z</time>
      </trkpt>
      <trkpt lat="48.95773" lon="2.11334">
        <ele>50.1</ele>
        <time>2022-03-08T09:41:49Z</time>
      </trkpt>
      <trkpt lat="48.95774" lon="2.11341">
        <ele>50.6</ele>
        <time>2022-03-08T09:41:52Z</time>
      </trkpt>
      <trkpt lat="48.95777" lon="2.11349">
        <ele>52.1</ele>
        <time>2022-03-08T09:41:57Z</time>
      </trkpt>
      <trkpt lat="48.9578" lon="2.11357">
        <ele>52.5</ele>
        <time>2022-03-08T09:42:01Z</time>
      </trkpt>
      <trkpt lat="48.95781" lon="2.11364">
        <ele>52</ele>
        <time>2022-03-08T09:42:04Z</time>
      </trkpt>
      <trkpt lat="48.95782" lon="2.11371">
        <ele>50.9</ele>
        <time>2022-03-08T09:42:07Z</time>
      </trkpt>
      <trkpt lat="48.95783" lon="2.11378">
        <ele>50.4</ele>
        <time>2022-03-08T09:42:11Z</time>
      </trkpt>
      <trkpt lat="48.95785" lon="2.11386">
        <ele>48.9</ele>
        <time>2022-03-08T09:42:15Z</time>
      </trkpt>
      <trkpt lat="48.95788" lon="2.11392">
        <ele>48.5</ele>
        <time>2022-03-08T09:42:19Z</time>
      </trkpt>
      <trkpt lat="48.95791" lon="2.11399">
        <ele>48.7</ele>
        <time>2022-03-08T09:42:22Z</time>
      </trkpt>
      <trkpt lat="48.95793" lon="2.11406">
        <ele>48.7</ele>
        <time>2022-03-08T09:42:26Z</time>
      </trkpt>
      <trkpt lat="48.95796" lon="2.11413">
        <ele>47.8</ele>
        <time>2022-03-08T09:42:30Z</time>
      </trkpt>
      <trkpt lat="48.95797" lon="2.11421">
        <ele>47.5</ele>
        <time>2022-03-08T09:42:34Z</time>
      </trkpt>
      <trkpt lat="48.95799" lon="2.11428">
        <ele>47.4</ele>
        <time>2022-03-08T09:42:38Z</time>
      </trkpt>
      <trkpt lat="48.958" lon="2.11436">
        <ele>46.3</ele>
        <time>2022-03-08T09:42:41Z</time>
      </trkpt>
      <trkpt lat="48.95803" lon="2.11443">
        <ele>45.1</ele>
        <time>2022-03-08T09:42:45Z</time>
      </trkpt>
      <trkpt lat="48.95806" lon="2.11451">
        <ele>45.3</ele>
        <time>2022-03-08T09:42:49Z</time>
      </trkpt>
      <trkpt lat="48.95808" lon="2.11458">
        <ele>45.7</ele>
        <time>2022-03-08T09:42:53Z</time>
      </trkpt>
      <trkpt lat="48.95808" lon="2.11465">
        <ele>45.7</ele>
        <time>2022-03-08T09:42:57Z</time>
      </trkpt>
      <trkpt lat="48.95808" lon="2.11473">
        <ele>45</ele>
        <time>2022-03-08T09:43:01Z</time>
      </trkpt>
      <trkpt lat="48.95809" lon="2.11481">
        <ele>44.5</ele>
        <time>2022-03-08T09:43:04Z</time>
      </trkpt>
      <trkpt lat="48.95811" lon="2.11489">
        <ele>43.9</ele>
        <time>2022-03-08T09:43:08Z</time>
      </trkpt>
      <trkpt lat="48.95813" lon="2.11496">
        <ele>43.5</ele>
        <time>2022-03-08T09:43:12Z</time>
      </trkpt>
      <trkpt lat="48.95815" lon="2.11503">
        <ele>42.5</ele>
        <time>2022-03-08T09:43:16Z</time>
      </trkpt>
      <trkpt lat="48.95817" lon="2.11509">
        <ele>41.4</ele>
        <time>2022-03-08T09:43:19Z</time>
      </trkpt>
      <trkpt lat="48.95821" lon="2.11516">
        <ele>40.5</ele>
        <time>2022-03-08T09:43:24Z</time>
      </trkpt>
      <trkpt lat="48.95823" lon="2.11522">
        <ele>40.3</ele>
        <time>2022-03-08T09:43:27Z</time>
      </trkpt>
      <trkpt lat="48.95826" lon="2.11528">
        <ele>39.7</ele>
        <time>2022-03-08T09:43:32Z</time>
      </trkpt>
      <trkpt lat="48.95829" lon="2.11535">
        <ele>39.1</ele>
        <time>2022-03-08T09:43:37Z</time>
      </trkpt>
      <trkpt lat="48.95832" lon="2.1154">
        <ele>39.4</ele>
        <time>2022-03-08T09:43:42Z</time>
      </trkpt>
      <trkpt lat="48.95832" lon="2.11533">
        <ele>41.9</ele>
        <time>2022-03-08T09:43:48Z</time>
      </trkpt>
      <trkpt lat="48.95829" lon="2.11527">
        <ele>46.5</ele>
        <time>2022-03-08T09:43:56Z</time>
      </trkpt>
      <trkpt lat="48.95823" lon="2.11527">
        <ele>46.4</ele>
        <time>2022-03-08T09:44:01Z</time>
      </trkpt>
      <trkpt lat="48.95818" lon="2.11529">
        <ele>44.9</ele>
        <time>2022-03-08T09:44:09Z</time>
      </trkpt>
      <trkpt lat="48.95817" lon="2.11537">
        <ele>48.1</ele>
        <time>2022-03-08T09:46:25Z</time>
      </trkpt>
      <trkpt lat="48.95821" lon="2.11541">
        <ele>49.2</ele>
        <time>2022-03-08T09:46:33Z</time>
      </trkpt>
      <trkpt lat="48.95825" lon="2.11545">
        <ele>49.8</ele>
        <time>2022-03-08T09:46:42Z</time>
      </trkpt>
      <trkpt lat="48.95826" lon="2.11553">
        <ele>49.4</ele>
        <time>2022-03-08T09:46:45Z</time>
      </trkpt>
      <trkpt lat="48.95832" lon="2.11557">
        <ele>49.5</ele>
        <time>2022-03-08T09:46:49Z</time>
      </trkpt>
      <trkpt lat="48.95837" lon="2.11554">
        <ele>49.4</ele>
        <time>2022-03-08T09:46:52Z</time>
      </trkpt>
      <trkpt lat="48.95842" lon="2.11553">
        <ele>49.6</ele>
        <time>2022-03-08T09:46:55Z</time>
      </trkpt>
      <trkpt lat="48.95848" lon="2.11551">
        <ele>50.2</ele>
        <time>2022-03-08T09:47:00Z</time>
      </trkpt>
      <trkpt lat="48.95852" lon="2.11551">
        <ele>50</ele>
        <time>2022-03-08T09:47:04Z</time>
      </trkpt>
      <trkpt lat="48.95857" lon="2.11554">
        <ele>48.2</ele>
        <time>2022-03-08T09:47:07Z</time>
      </trkpt>
      <trkpt lat="48.95862" lon="2.11558">
        <ele>46.8</ele>
        <time>2022-03-08T09:47:11Z</time>
      </trkpt>
      <trkpt lat="48.95867" lon="2.11561">
        <ele>45.7</ele>
        <time>2022-03-08T09:47:15Z</time>
      </trkpt>
      <trkpt lat="48.95871" lon="2.11565">
        <ele>45.3</ele>
        <time>2022-03-08T09:47:18Z</time>
      </trkpt>
      <trkpt lat="48.95876" lon="2.11569">
        <ele>44.4</ele>
        <time>2022-03-08T09:47:22Z</time>
      </trkpt>
      <trkpt lat="48.95881" lon="2.11573">
        <ele>44</ele>
        <time>2022-03-08T09:47:26Z</time>
      </trkpt>
      <trkpt lat="48.95886" lon="2.11576">
        <ele>43.7</ele>
        <time>2022-03-08T09:47:29Z</time>
      </trkpt>
      <trkpt lat="48.9589" lon="2.11576">
        <ele>43.3</ele>
        <time>2022-03-08T09:47:34Z</time>
      </trkpt>
      <trkpt lat="48.95896" lon="2.11576">
        <ele>43.4</ele>
        <time>2022-03-08T09:47:38Z</time>
      </trkpt>
      <trkpt lat="48.95901" lon="2.11577">
        <ele>44.3</ele>
        <time>2022-03-08T09:47:43Z</time>
      </trkpt>
      <trkpt lat="48.95906" lon="2.11579">
        <ele>45.9</ele>
        <time>2022-03-08T09:47:47Z</time>
      </trkpt>
      <trkpt lat="48.95911" lon="2.1158">
        <ele>46.4</ele>
        <time>2022-03-08T09:47:52Z</time>
      </trkpt>
      <trkpt lat="48.95917" lon="2.11582">
        <ele>43</ele>
        <time>2022-03-08T09:48:06Z</time>
      </trkpt>
      <trkpt lat="48.95922" lon="2.11587">
        <ele>43.5</ele>
        <time>2022-03-08T09:48:09Z</time>
      </trkpt>
      <trkpt lat="48.95928" lon="2.1159">
        <ele>43.9</ele>
        <time>2022-03-08T09:48:12Z</time>
      </trkpt>
      <trkpt lat="48.95932" lon="2.11594">
        <ele>44.2</ele>
        <time>2022-03-08T09:48:15Z</time>
      </trkpt>
      <trkpt lat="48.95937" lon="2.11596">
        <ele>44.3</ele>
        <time>2022-03-08T09:48:19Z</time>
      </trkpt>
      <trkpt lat="48.95943" lon="2.11593">
        <ele>44</ele>
        <time>2022-03-08T09:48:24Z</time>
      </trkpt>
      <trkpt lat="48.95948" lon="2.11594">
        <ele>44.1</ele>
        <time>2022-03-08T09:48:29Z</time>
      </trkpt>
      <trkpt lat="48.95953" lon="2.11598">
        <ele>44.3</ele>
        <time>2022-03-08T09:48:33Z</time>
      </trkpt>
      <trkpt lat="48.95958" lon="2.11601">
        <ele>45.2</ele>
        <time>2022-03-08T09:48:37Z</time>
      </trkpt>
      <trkpt lat="48.95963" lon="2.11602">
        <ele>46.9</ele>
        <time>2022-03-08T09:48:41Z</time>
      </trkpt>
      <trkpt lat="48.95968" lon="2.11604">
        <ele>47.7</ele>
        <time>2022-03-08T09:48:45Z</time>
      </trkpt>
      <trkpt lat="48.95973" lon="2.11606">
        <ele>47.4</ele>
        <time>2022-03-08T09:48:49Z</time>
      </trkpt>
      <trkpt lat="48.95978" lon="2.11607">
        <ele>46.7</ele>
        <time>2022-03-08T09:48:53Z</time>
      </trkpt>
      <trkpt lat="48.95982" lon="2.11608">
        <ele>46.4</ele>
        <time>2022-03-08T09:48:57Z</time>
      </trkpt>
      <trkpt lat="48.95988" lon="2.1161">
        <ele>47</ele>
        <time>2022-03-08T09:49:01Z</time>
      </trkpt>
      <trkpt lat="48.95993" lon="2.11612">
        <ele>48.2</ele>
        <time>2022-03-08T09:49:06Z</time>
      </trkpt>
      <trkpt lat="48.95998" lon="2.11614">
        <ele>49.4</ele>
        <time>2022-03-08T09:49:10Z</time>
      </trkpt>
      <trkpt lat="48.96004" lon="2.11616">
        <ele>49.6</ele>
        <time>2022-03-08T09:49:15Z</time>
      </trkpt>
      <trkpt lat="48.9601" lon="2.11618">
        <ele>48.9</ele>
        <time>2022-03-08T09:49:20Z</time>
      </trkpt>
      <trkpt lat="48.96015" lon="2.11619">
        <ele>47.7</ele>
        <time>2022-03-08T09:49:24Z</time>
      </trkpt>
      <trkpt lat="48.9602" lon="2.11622">
        <ele>47</ele>
        <time>2022-03-08T09:49:28Z</time>
      </trkpt>
      <trkpt lat="48.96025" lon="2.11625">
        <ele>46.4</ele>
        <time>2022-03-08T09:49:31Z</time>
      </trkpt>
      <trkpt lat="48.9603" lon="2.11629">
        <ele>46.3</ele>
        <time>2022-03-08T09:49:35Z</time>
      </trkpt>
      <trkpt lat="48.96031" lon="2.11636">
        <ele>46.6</ele>
        <time>2022-03-08T09:49:39Z</time>
      </trkpt>
      <trkpt lat="48.96028" lon="2.11642">
        <ele>46.6</ele>
        <time>2022-03-08T09:49:42Z</time>
      </trkpt>
      <trkpt lat="48.96024" lon="2.11647">
        <ele>46.2</ele>
        <time>2022-03-08T09:49:45Z</time>
      </trkpt>
      <trkpt lat="48.96022" lon="2.11654">
        <ele>46.6</ele>
        <time>2022-03-08T09:49:51Z</time>
      </trkpt>
      <trkpt lat="48.96019" lon="2.1166">
        <ele>47.2</ele>
        <time>2022-03-08T09:49:56Z</time>
      </trkpt>
      <trkpt lat="48.96021" lon="2.11667">
        <ele>46.7</ele>
        <time>2022-03-08T09:50:00Z</time>
      </trkpt>
      <trkpt lat="48.9602" lon="2.11676">
        <ele>45.2</ele>
        <time>2022-03-08T09:50:05Z</time>
      </trkpt>
      <trkpt lat="48.9602" lon="2.11682">
        <ele>44.4</ele>
        <time>2022-03-08T09:50:08Z</time>
      </trkpt>
      <trkpt lat="48.96018" lon="2.1169">
        <ele>43.5</ele>
        <time>2022-03-08T09:50:11Z</time>
      </trkpt>
      <trkpt lat="48.96016" lon="2.11698">
        <ele>42.4</ele>
        <time>2022-03-08T09:50:16Z</time>
      </trkpt>
      <trkpt lat="48.96016" lon="2.11707">
        <ele>41.8</ele>
        <time>2022-03-08T09:50:20Z</time>
      </trkpt>
      <trkpt lat="48.96015" lon="2.11716">
        <ele>42</ele>
        <time>2022-03-08T09:50:24Z</time>
      </trkpt>
      <trkpt lat="48.96015" lon="2.11723">
        <ele>40.7</ele>
        <time>2022-03-08T09:50:28Z</time>
      </trkpt>
      <trkpt lat="48.96013" lon="2.11732">
        <ele>38.8</ele>
        <time>2022-03-08T09:50:33Z</time>
      </trkpt>
      <trkpt lat="48.96013" lon="2.1174">
        <ele>38</ele>
        <time>2022-03-08T09:50:36Z</time>
      </trkpt>
      <trkpt lat="48.96011" lon="2.11747">
        <ele>37.6</ele>
        <time>2022-03-08T09:50:40Z</time>
      </trkpt>
      <trkpt lat="48.9601" lon="2.11755">
        <ele>37.7</ele>
        <time>2022-03-08T09:50:44Z</time>
      </trkpt>
      <trkpt lat="48.96008" lon="2.11764">
        <ele>38.1</ele>
        <time>2022-03-08T09:50:48Z</time>
      </trkpt>
      <trkpt lat="48.96009" lon="2.11771">
        <ele>38.4</ele>
        <time>2022-03-08T09:50:51Z</time>
      </trkpt>
      <trkpt lat="48.96012" lon="2.11775">
        <ele>38.6</ele>
        <time>2022-03-08T09:50:57Z</time>
      </trkpt>
      <trkpt lat="48.9601" lon="2.11784">
        <ele>38.8</ele>
        <time>2022-03-08T09:51:01Z</time>
      </trkpt>
      <trkpt lat="48.96008" lon="2.11791">
        <ele>38.2</ele>
        <time>2022-03-08T09:51:04Z</time>
      </trkpt>
      <trkpt lat="48.96005" lon="2.11799">
        <ele>38.2</ele>
        <time>2022-03-08T09:51:08Z</time>
      </trkpt>
      <trkpt lat="48.96003" lon="2.11807">
        <ele>38.2</ele>
        <time>2022-03-08T09:51:12Z</time>
      </trkpt>
      <trkpt lat="48.96001" lon="2.11815">
        <ele>38</ele>
        <time>2022-03-08T09:51:16Z</time>
      </trkpt>
      <trkpt lat="48.96" lon="2.11823">
        <ele>37.8</ele>
        <time>2022-03-08T09:51:20Z</time>
      </trkpt>
      <trkpt lat="48.95999" lon="2.11831">
        <ele>38.5</ele>
        <time>2022-03-08T09:51:25Z</time>
      </trkpt>
      <trkpt lat="48.95996" lon="2.11837">
        <ele>39.1</ele>
        <time>2022-03-08T09:51:28Z</time>
      </trkpt>
      <trkpt lat="48.95995" lon="2.11844">
        <ele>39.7</ele>
        <time>2022-03-08T09:51:32Z</time>
      </trkpt>
      <trkpt lat="48.95993" lon="2.11852">
        <ele>39.6</ele>
        <time>2022-03-08T09:51:35Z</time>
      </trkpt>
      <trkpt lat="48.95993" lon="2.1186">
        <ele>38.8</ele>
        <time>2022-03-08T09:51:39Z</time>
      </trkpt>
      <trkpt lat="48.95992" lon="2.11867">
        <ele>38.7</ele>
        <time>2022-03-08T09:51:43Z</time>
      </trkpt>
      <trkpt lat="48.95992" lon="2.11876">
        <ele>39.3</ele>
        <time>2022-03-08T09:51:48Z</time>
      </trkpt>
      <trkpt lat="48.95991" lon="2.11883">
        <ele>39.7</ele>
        <time>2022-03-08T09:51:51Z</time>
      </trkpt>
      <trkpt lat="48.95989" lon="2.1189">
        <ele>40.3</ele>
        <time>2022-03-08T09:51:55Z</time>
      </trkpt>
      <trkpt lat="48.95987" lon="2.11897">
        <ele>41</ele>
        <time>2022-03-08T09:51:59Z</time>
      </trkpt>
      <trkpt lat="48.95985" lon="2.11904">
        <ele>40</ele>
        <time>2022-03-08T09:52:02Z</time>
      </trkpt>
      <trkpt lat="48.95983" lon="2.11912">
        <ele>37.1</ele>
        <time>2022-03-08T09:52:06Z</time>
      </trkpt>
      <trkpt lat="48.95983" lon="2.11919">
        <ele>35.8</ele>
        <time>2022-03-08T09:52:10Z</time>
      </trkpt>
      <trkpt lat="48.95982" lon="2.11927">
        <ele>36.1</ele>
        <time>2022-03-08T09:52:14Z</time>
      </trkpt>
      <trkpt lat="48.95982" lon="2.11934">
        <ele>36.3</ele>
        <time>2022-03-08T09:52:18Z</time>
      </trkpt>
      <trkpt lat="48.95981" lon="2.11942">
        <ele>36.3</ele>
        <time>2022-03-08T09:52:22Z</time>
      </trkpt>
      <trkpt lat="48.9598" lon="2.11949">
        <ele>37.3</ele>
        <time>2022-03-08T09:52:26Z</time>
      </trkpt>
      <trkpt lat="48.95979" lon="2.11956">
        <ele>38.5</ele>
        <time>2022-03-08T09:52:30Z</time>
      </trkpt>
      <trkpt lat="48.95978" lon="2.11964">
        <ele>39.6</ele>
        <time>2022-03-08T09:52:34Z</time>
      </trkpt>
      <trkpt lat="48.95976" lon="2.11972">
        <ele>39.9</ele>
        <time>2022-03-08T09:52:38Z</time>
      </trkpt>
      <trkpt lat="48.95975" lon="2.11979">
        <ele>39.4</ele>
        <time>2022-03-08T09:52:42Z</time>
      </trkpt>
      <trkpt lat="48.95973" lon="2.11988">
        <ele>39.2</ele>
        <time>2022-03-08T09:52:46Z</time>
      </trkpt>
      <trkpt lat="48.95971" lon="2.11994">
        <ele>39.2</ele>
        <time>2022-03-08T09:52:50Z</time>
      </trkpt>
      <trkpt lat="48.95969" lon="2.12001">
        <ele>39.5</ele>
        <time>2022-03-08T09:52:53Z</time>
      </trkpt>
      <trkpt lat="48.95966" lon="2.12008">
        <ele>39.9</ele>
        <time>2022-03-08T09:52:58Z</time>
      </trkpt>
      <trkpt lat="48.95964" lon="2.12016">
        <ele>41</ele>
        <time>2022-03-08T09:53:02Z</time>
      </trkpt>
      <trkpt lat="48.95963" lon="2.12023">
        <ele>41.7</ele>
        <time>2022-03-08T09:53:06Z</time>
      </trkpt>
      <trkpt lat="48.95962" lon="2.12031">
        <ele>42.2</ele>
        <time>2022-03-08T09:53:10Z</time>
      </trkpt>
      <trkpt lat="48.95961" lon="2.12039">
        <ele>42.3</ele>
        <time>2022-03-08T09:53:13Z</time>
      </trkpt>
      <trkpt lat="48.9596" lon="2.12048">
        <ele>42.2</ele>
        <time>2022-03-08T09:53:17Z</time>
      </trkpt>
      <trkpt lat="48.95958" lon="2.12055">
        <ele>41.7</ele>
        <time>2022-03-08T09:53:21Z</time>
      </trkpt>
      <trkpt lat="48.95956" lon="2.12062">
        <ele>41.6</ele>
        <time>2022-03-08T09:53:25Z</time>
      </trkpt>
      <trkpt lat="48.95954" lon="2.12069">
        <ele>40.9</ele>
        <time>2022-03-08T09:53:29Z</time>
      </trkpt>
      <trkpt lat="48.95954" lon="2.12077">
        <ele>40.1</ele>
        <time>2022-03-08T09:53:34Z</time>
      </trkpt>
      <trkpt lat="48.95956" lon="2.1207">
        <ele>39</ele>
        <time>2022-03-08T09:54:41Z</time>
      </trkpt>
      <trkpt lat="48.95957" lon="2.12079">
        <ele>40</ele>
        <time>2022-03-08T09:55:40Z</time>
      </trkpt>
      <trkpt lat="48.95958" lon="2.12086">
        <ele>39.3</ele>
        <time>2022-03-08T09:55:43Z</time>
      </trkpt>
      <trkpt lat="48.95962" lon="2.12093">
        <ele>38.2</ele>
        <time>2022-03-08T09:55:48Z</time>
      </trkpt>
      <trkpt lat="48.95964" lon="2.12101">
        <ele>37.1</ele>
        <time>2022-03-08T09:55:52Z</time>
      </trkpt>
      <trkpt lat="48.95965" lon="2.12109">
        <ele>37.6</ele>
        <time>2022-03-08T09:55:56Z</time>
      </trkpt>
      <trkpt lat="48.95966" lon="2.12116">
        <ele>38.5</ele>
        <time>2022-03-08T09:56:00Z</time>
      </trkpt>
      <trkpt lat="48.95968" lon="2.12124">
        <ele>39.1</ele>
        <time>2022-03-08T09:56:04Z</time>
      </trkpt>
      <trkpt lat="48.9597" lon="2.1213">
        <ele>38.1</ele>
        <time>2022-03-08T09:56:08Z</time>
      </trkpt>
      <trkpt lat="48.95974" lon="2.12137">
        <ele>36.4</ele>
        <time>2022-03-08T09:56:12Z</time>
      </trkpt>
      <trkpt lat="48.95977" lon="2.12142">
        <ele>34.8</ele>
        <time>2022-03-08T09:56:15Z</time>
      </trkpt>
      <trkpt lat="48.9598" lon="2.12148">
        <ele>34.1</ele>
        <time>2022-03-08T09:56:20Z</time>
      </trkpt>
      <trkpt lat="48.95984" lon="2.12153">
        <ele>34.5</ele>
        <time>2022-03-08T09:56:24Z</time>
      </trkpt>
      <trkpt lat="48.95988" lon="2.1216">
        <ele>33.1</ele>
        <time>2022-03-08T09:56:29Z</time>
      </trkpt>
      <trkpt lat="48.9599" lon="2.12167">
        <ele>30.9</ele>
        <time>2022-03-08T09:56:32Z</time>
      </trkpt>
      <trkpt lat="48.95992" lon="2.12175">
        <ele>30.8</ele>
        <time>2022-03-08T09:56:36Z</time>
      </trkpt>
      <trkpt lat="48.95994" lon="2.12185">
        <ele>31.1</ele>
        <time>2022-03-08T09:56:41Z</time>
      </trkpt>
      <trkpt lat="48.95996" lon="2.12192">
        <ele>31</ele>
        <time>2022-03-08T09:56:44Z</time>
      </trkpt>
      <trkpt lat="48.95998" lon="2.12198">
        <ele>30.6</ele>
        <time>2022-03-08T09:56:46Z</time>
      </trkpt>
      <trkpt lat="48.96" lon="2.12204">
        <ele>30.7</ele>
        <time>2022-03-08T09:56:49Z</time>
      </trkpt>
      <trkpt lat="48.96002" lon="2.12212">
        <ele>32.4</ele>
        <time>2022-03-08T09:56:53Z</time>
      </trkpt>
      <trkpt lat="48.96003" lon="2.1222">
        <ele>33.9</ele>
        <time>2022-03-08T09:56:57Z</time>
      </trkpt>
      <trkpt lat="48.96005" lon="2.12229">
        <ele>34.8</ele>
        <time>2022-03-08T09:57:00Z</time>
      </trkpt>
      <trkpt lat="48.96005" lon="2.12236">
        <ele>35</ele>
        <time>2022-03-08T09:57:03Z</time>
      </trkpt>
      <trkpt lat="48.96003" lon="2.12244">
        <ele>34.5</ele>
        <time>2022-03-08T09:57:06Z</time>
      </trkpt>
      <trkpt lat="48.96001" lon="2.12253">
        <ele>34.2</ele>
        <time>2022-03-08T09:57:09Z</time>
      </trkpt>
      <trkpt lat="48.95999" lon="2.12262">
        <ele>35.9</ele>
        <time>2022-03-08T09:57:13Z</time>
      </trkpt>
      <trkpt lat="48.95999" lon="2.1227">
        <ele>38.3</ele>
        <time>2022-03-08T09:57:15Z</time>
      </trkpt>
      <trkpt lat="48.96" lon="2.12278">
        <ele>41.2</ele>
        <time>2022-03-08T09:57:18Z</time>
      </trkpt>
      <trkpt lat="48.96002" lon="2.12285">
        <ele>42.6</ele>
        <time>2022-03-08T09:57:21Z</time>
      </trkpt>
      <trkpt lat="48.96006" lon="2.12291">
        <ele>43.2</ele>
        <time>2022-03-08T09:57:26Z</time>
      </trkpt>
      <trkpt lat="48.96009" lon="2.12297">
        <ele>43.4</ele>
        <time>2022-03-08T09:57:29Z</time>
      </trkpt>
      <trkpt lat="48.96012" lon="2.12304">
        <ele>43.2</ele>
        <time>2022-03-08T09:57:32Z</time>
      </trkpt>
      <trkpt lat="48.96014" lon="2.1231">
        <ele>44.1</ele>
        <time>2022-03-08T09:57:36Z</time>
      </trkpt>
      <trkpt lat="48.96017" lon="2.12318">
        <ele>44.9</ele>
        <time>2022-03-08T09:57:41Z</time>
      </trkpt>
      <trkpt lat="48.96019" lon="2.12326">
        <ele>44.5</ele>
        <time>2022-03-08T09:57:45Z</time>
      </trkpt>
      <trkpt lat="48.9602" lon="2.12334">
        <ele>42.9</ele>
        <time>2022-03-08T09:57:48Z</time>
      </trkpt>
      <trkpt lat="48.96022" lon="2.12341">
        <ele>42.5</ele>
        <time>2022-03-08T09:57:52Z</time>
      </trkpt>
      <trkpt lat="48.96025" lon="2.12347">
        <ele>42.5</ele>
        <time>2022-03-08T09:57:56Z</time>
      </trkpt>
      <trkpt lat="48.96028" lon="2.12353">
        <ele>42.7</ele>
        <time>2022-03-08T09:58:00Z</time>
      </trkpt>
      <trkpt lat="48.9603" lon="2.1236">
        <ele>42.2</ele>
        <time>2022-03-08T09:58:03Z</time>
      </trkpt>
      <trkpt lat="48.96032" lon="2.12366">
        <ele>41.4</ele>
        <time>2022-03-08T09:58:06Z</time>
      </trkpt>
      <trkpt lat="48.96035" lon="2.12374">
        <ele>40.3</ele>
        <time>2022-03-08T09:58:10Z</time>
      </trkpt>
      <trkpt lat="48.96036" lon="2.12381">
        <ele>39.6</ele>
        <time>2022-03-08T09:58:14Z</time>
      </trkpt>
      <trkpt lat="48.96038" lon="2.12389">
        <ele>39.9</ele>
        <time>2022-03-08T09:58:18Z</time>
      </trkpt>
      <trkpt lat="48.96039" lon="2.12396">
        <ele>40.1</ele>
        <time>2022-03-08T09:58:22Z</time>
      </trkpt>
      <trkpt lat="48.9604" lon="2.12404">
        <ele>39.5</ele>
        <time>2022-03-08T09:58:25Z</time>
      </trkpt>
      <trkpt lat="48.96041" lon="2.12412">
        <ele>38.3</ele>
        <time>2022-03-08T09:58:29Z</time>
      </trkpt>
      <trkpt lat="48.96043" lon="2.12419">
        <ele>37.6</ele>
        <time>2022-03-08T09:58:33Z</time>
      </trkpt>
      <trkpt lat="48.96046" lon="2.12427">
        <ele>38.2</ele>
        <time>2022-03-08T09:58:37Z</time>
      </trkpt>
      <trkpt lat="48.96048" lon="2.12436">
        <ele>39.2</ele>
        <time>2022-03-08T09:58:40Z</time>
      </trkpt>
      <trkpt lat="48.96048" lon="2.12442">
        <ele>40.8</ele>
        <time>2022-03-08T09:58:43Z</time>
      </trkpt>
      <trkpt lat="48.96049" lon="2.1245">
        <ele>41.3</ele>
        <time>2022-03-08T09:58:46Z</time>
      </trkpt>
      <trkpt lat="48.96049" lon="2.12458">
        <ele>41.7</ele>
        <time>2022-03-08T09:58:49Z</time>
      </trkpt>
      <trkpt lat="48.9605" lon="2.12465">
        <ele>41.8</ele>
        <time>2022-03-08T09:58:53Z</time>
      </trkpt>
      <trkpt lat="48.96052" lon="2.12473">
        <ele>41.7</ele>
        <time>2022-03-08T09:58:57Z</time>
      </trkpt>
      <trkpt lat="48.96054" lon="2.1248">
        <ele>41.5</ele>
        <time>2022-03-08T09:59:00Z</time>
      </trkpt>
      <trkpt lat="48.96057" lon="2.12487">
        <ele>40.9</ele>
        <time>2022-03-08T09:59:06Z</time>
      </trkpt>
      <trkpt lat="48.96059" lon="2.12494">
        <ele>41</ele>
        <time>2022-03-08T09:59:09Z</time>
      </trkpt>
      <trkpt lat="48.9606" lon="2.12501">
        <ele>40.7</ele>
        <time>2022-03-08T09:59:13Z</time>
      </trkpt>
      <trkpt lat="48.96061" lon="2.12509">
        <ele>41</ele>
        <time>2022-03-08T09:59:17Z</time>
      </trkpt>
      <trkpt lat="48.96064" lon="2.12516">
        <ele>40.9</ele>
        <time>2022-03-08T09:59:21Z</time>
      </trkpt>
      <trkpt lat="48.96066" lon="2.12524">
        <ele>40.6</ele>
        <time>2022-03-08T09:59:24Z</time>
      </trkpt>
      <trkpt lat="48.96068" lon="2.1253">
        <ele>40.1</ele>
        <time>2022-03-08T09:59:28Z</time>
      </trkpt>
      <trkpt lat="48.9607" lon="2.12537">
        <ele>40.4</ele>
        <time>2022-03-08T09:59:32Z</time>
      </trkpt>
      <trkpt lat="48.96071" lon="2.12544">
        <ele>40.7</ele>
        <time>2022-03-08T09:59:36Z</time>
      </trkpt>
      <trkpt lat="48.96072" lon="2.12552">
        <ele>40.9</ele>
        <time>2022-03-08T09:59:40Z</time>
      </trkpt>
      <trkpt lat="48.96074" lon="2.12559">
        <ele>40.5</ele>
        <time>2022-03-08T09:59:44Z</time>
      </trkpt>
      <trkpt lat="48.96076" lon="2.12567">
        <ele>39.1</ele>
        <time>2022-03-08T09:59:48Z</time>
      </trkpt>
      <trkpt lat="48.96079" lon="2.12573">
        <ele>38.2</ele>
        <time>2022-03-08T09:59:52Z</time>
      </trkpt>
      <trkpt lat="48.96081" lon="2.12581">
        <ele>38.2</ele>
        <time>2022-03-08T09:59:55Z</time>
      </trkpt>
      <trkpt lat="48.96082" lon="2.1259">
        <ele>38.2</ele>
        <time>2022-03-08T09:59:59Z</time>
      </trkpt>
      <trkpt lat="48.96084" lon="2.12597">
        <ele>38.9</ele>
        <time>2022-03-08T10:00:03Z</time>
      </trkpt>
      <trkpt lat="48.96085" lon="2.12605">
        <ele>39.6</ele>
        <time>2022-03-08T10:00:07Z</time>
      </trkpt>
      <trkpt lat="48.96085" lon="2.12612">
        <ele>39.6</ele>
        <time>2022-03-08T10:00:11Z</time>
      </trkpt>
      <trkpt lat="48.96087" lon="2.12619">
        <ele>38</ele>
        <time>2022-03-08T10:00:15Z</time>
      </trkpt>
      <trkpt lat="48.96089" lon="2.12625">
        <ele>36.5</ele>
        <time>2022-03-08T10:00:18Z</time>
      </trkpt>
      <trkpt lat="48.96092" lon="2.12632">
        <ele>35.7</ele>
        <time>2022-03-08T10:00:22Z</time>
      </trkpt>
      <trkpt lat="48.96095" lon="2.12638">
        <ele>35.8</ele>
        <time>2022-03-08T10:00:26Z</time>
      </trkpt>
      <trkpt lat="48.96098" lon="2.12644">
        <ele>36.2</ele>
        <time>2022-03-08T10:00:30Z</time>
      </trkpt>
      <trkpt lat="48.961" lon="2.12651">
        <ele>36.1</ele>
        <time>2022-03-08T10:00:33Z</time>
      </trkpt>
      <trkpt lat="48.96101" lon="2.12659">
        <ele>35</ele>
        <time>2022-03-08T10:00:37Z</time>
      </trkpt>
      <trkpt lat="48.96103" lon="2.12667">
        <ele>33.9</ele>
        <time>2022-03-08T10:00:41Z</time>
      </trkpt>
      <trkpt lat="48.96106" lon="2.12674">
        <ele>34.6</ele>
        <time>2022-03-08T10:00:45Z</time>
      </trkpt>
      <trkpt lat="48.96107" lon="2.12681">
        <ele>35.3</ele>
        <time>2022-03-08T10:00:49Z</time>
      </trkpt>
      <trkpt lat="48.96107" lon="2.12688">
        <ele>36.2</ele>
        <time>2022-03-08T10:00:52Z</time>
      </trkpt>
      <trkpt lat="48.96106" lon="2.12696">
        <ele>36.1</ele>
        <time>2022-03-08T10:00:56Z</time>
      </trkpt>
      <trkpt lat="48.96104" lon="2.12703">
        <ele>36.3</ele>
        <time>2022-03-08T10:00:58Z</time>
      </trkpt>
      <trkpt lat="48.96102" lon="2.12709">
        <ele>36.7</ele>
        <time>2022-03-08T10:01:01Z</time>
      </trkpt>
      <trkpt lat="48.961" lon="2.12717">
        <ele>38.4</ele>
        <time>2022-03-08T10:01:05Z</time>
      </trkpt>
      <trkpt lat="48.96096" lon="2.12723">
        <ele>39.5</ele>
        <time>2022-03-08T10:01:09Z</time>
      </trkpt>
      <trkpt lat="48.96093" lon="2.12729">
        <ele>38.9</ele>
        <time>2022-03-08T10:01:13Z</time>
      </trkpt>
      <trkpt lat="48.96091" lon="2.12736">
        <ele>37</ele>
        <time>2022-03-08T10:01:18Z</time>
      </trkpt>
      <trkpt lat="48.9609" lon="2.12744">
        <ele>35.3</ele>
        <time>2022-03-08T10:01:22Z</time>
      </trkpt>
      <trkpt lat="48.96092" lon="2.12752">
        <ele>33.6</ele>
        <time>2022-03-08T10:01:26Z</time>
      </trkpt>
      <trkpt lat="48.96096" lon="2.12756">
        <ele>32.6</ele>
        <time>2022-03-08T10:01:29Z</time>
      </trkpt>
      <trkpt lat="48.96101" lon="2.1276">
        <ele>31.9</ele>
        <time>2022-03-08T10:01:33Z</time>
      </trkpt>
      <trkpt lat="48.96105" lon="2.12764">
        <ele>30.2</ele>
        <time>2022-03-08T10:01:37Z</time>
      </trkpt>
      <trkpt lat="48.9611" lon="2.12768">
        <ele>28.8</ele>
        <time>2022-03-08T10:01:42Z</time>
      </trkpt>
      <trkpt lat="48.96116" lon="2.12772">
        <ele>29.4</ele>
        <time>2022-03-08T10:01:46Z</time>
      </trkpt>
      <trkpt lat="48.96121" lon="2.12774">
        <ele>30.1</ele>
        <time>2022-03-08T10:01:50Z</time>
      </trkpt>
      <trkpt lat="48.96125" lon="2.12777">
        <ele>29.6</ele>
        <time>2022-03-08T10:01:54Z</time>
      </trkpt>
      <trkpt lat="48.96128" lon="2.12782">
        <ele>30.2</ele>
        <time>2022-03-08T10:01:58Z</time>
      </trkpt>
      <trkpt lat="48.96129" lon="2.12791">
        <ele>31.7</ele>
        <time>2022-03-08T10:02:02Z</time>
      </trkpt>
      <trkpt lat="48.96128" lon="2.12799">
        <ele>33.6</ele>
        <time>2022-03-08T10:02:05Z</time>
      </trkpt>
      <trkpt lat="48.96127" lon="2.12807">
        <ele>35.3</ele>
        <time>2022-03-08T10:02:09Z</time>
      </trkpt>
      <trkpt lat="48.9613" lon="2.12812">
        <ele>34.9</ele>
        <time>2022-03-08T10:02:12Z</time>
      </trkpt>
      <trkpt lat="48.96136" lon="2.12815">
        <ele>33.7</ele>
        <time>2022-03-08T10:02:16Z</time>
      </trkpt>
      <trkpt lat="48.9614" lon="2.12812">
        <ele>32.1</ele>
        <time>2022-03-08T10:02:23Z</time>
      </trkpt>
      <trkpt lat="48.96135" lon="2.12815">
        <ele>30.8</ele>
        <time>2022-03-08T10:02:54Z</time>
      </trkpt>
      <trkpt lat="48.96133" lon="2.12807">
        <ele>29.5</ele>
        <time>2022-03-08T10:02:57Z</time>
      </trkpt>
      <trkpt lat="48.96138" lon="2.12808">
        <ele>27.6</ele>
        <time>2022-03-08T10:03:00Z</time>
      </trkpt>
      <trkpt lat="48.96142" lon="2.12813">
        <ele>26.8</ele>
        <time>2022-03-08T10:03:01Z</time>
      </trkpt>
      <trkpt lat="48.96147" lon="2.12818">
        <ele>25.7</ele>
        <time>2022-03-08T10:03:03Z</time>
      </trkpt>
      <trkpt lat="48.96151" lon="2.12822">
        <ele>25.1</ele>
        <time>2022-03-08T10:03:06Z</time>
      </trkpt>
      <trkpt lat="48.96154" lon="2.12827">
        <ele>24.8</ele>
        <time>2022-03-08T10:03:08Z</time>
      </trkpt>
      <trkpt lat="48.96158" lon="2.12833">
        <ele>24.6</ele>
        <time>2022-03-08T10:03:11Z</time>
      </trkpt>
      <trkpt lat="48.96161" lon="2.12838">
        <ele>24.7</ele>
        <time>2022-03-08T10:03:14Z</time>
      </trkpt>
      <trkpt lat="48.96165" lon="2.12843">
        <ele>25.2</ele>
        <time>2022-03-08T10:03:17Z</time>
      </trkpt>
      <trkpt lat="48.96169" lon="2.12848">
        <ele>25.9</ele>
        <time>2022-03-08T10:03:19Z</time>
      </trkpt>
      <trkpt lat="48.96174" lon="2.12852">
        <ele>27.5</ele>
        <time>2022-03-08T10:03:23Z</time>
      </trkpt>
      <trkpt lat="48.96178" lon="2.12858">
        <ele>28.8</ele>
        <time>2022-03-08T10:03:26Z</time>
      </trkpt>
      <trkpt lat="48.96181" lon="2.12862">
        <ele>29.1</ele>
        <time>2022-03-08T10:03:28Z</time>
      </trkpt>
      <trkpt lat="48.96186" lon="2.12868">
        <ele>29</ele>
        <time>2022-03-08T10:03:31Z</time>
      </trkpt>
      <trkpt lat="48.96189" lon="2.12872">
        <ele>28.6</ele>
        <time>2022-03-08T10:03:34Z</time>
      </trkpt>
      <trkpt lat="48.96194" lon="2.12877">
        <ele>28</ele>
        <time>2022-03-08T10:03:38Z</time>
      </trkpt>
      <trkpt lat="48.96197" lon="2.12882">
        <ele>28.2</ele>
        <time>2022-03-08T10:03:40Z</time>
      </trkpt>
      <trkpt lat="48.962" lon="2.12887">
        <ele>28.9</ele>
        <time>2022-03-08T10:03:43Z</time>
      </trkpt>
      <trkpt lat="48.96205" lon="2.12894">
        <ele>30.6</ele>
        <time>2022-03-08T10:03:47Z</time>
      </trkpt>
      <trkpt lat="48.96209" lon="2.12899">
        <ele>32.3</ele>
        <time>2022-03-08T10:03:50Z</time>
      </trkpt>
      <trkpt lat="48.96213" lon="2.12904">
        <ele>32.4</ele>
        <time>2022-03-08T10:03:53Z</time>
      </trkpt>
      <trkpt lat="48.96217" lon="2.1291">
        <ele>31.9</ele>
        <time>2022-03-08T10:03:57Z</time>
      </trkpt>
      <trkpt lat="48.96221" lon="2.12915">
        <ele>31.9</ele>
        <time>2022-03-08T10:04:01Z</time>
      </trkpt>
      <trkpt lat="48.96224" lon="2.12921">
        <ele>32.1</ele>
        <time>2022-03-08T10:04:04Z</time>
      </trkpt>
      <trkpt lat="48.96228" lon="2.12927">
        <ele>32.6</ele>
        <time>2022-03-08T10:04:08Z</time>
      </trkpt>
      <trkpt lat="48.96232" lon="2.12934">
        <ele>33.5</ele>
        <time>2022-03-08T10:04:11Z</time>
      </trkpt>
      <trkpt lat="48.96235" lon="2.1294">
        <ele>34.3</ele>
        <time>2022-03-08T10:04:14Z</time>
      </trkpt>
      <trkpt lat="48.96239" lon="2.12947">
        <ele>35.9</ele>
        <time>2022-03-08T10:04:18Z</time>
      </trkpt>
      <trkpt lat="48.96243" lon="2.12952">
        <ele>36.4</ele>
        <time>2022-03-08T10:04:21Z</time>
      </trkpt>
      <trkpt lat="48.96246" lon="2.12958">
        <ele>37.2</ele>
        <time>2022-03-08T10:04:24Z</time>
      </trkpt>
      <trkpt lat="48.9625" lon="2.12965">
        <ele>38.3</ele>
        <time>2022-03-08T10:04:28Z</time>
      </trkpt>
      <trkpt lat="48.96254" lon="2.1297">
        <ele>38.8</ele>
        <time>2022-03-08T10:04:32Z</time>
      </trkpt>
      <trkpt lat="48.96258" lon="2.12975">
        <ele>39.1</ele>
        <time>2022-03-08T10:04:36Z</time>
      </trkpt>
      <trkpt lat="48.96262" lon="2.12981">
        <ele>39.2</ele>
        <time>2022-03-08T10:04:39Z</time>
      </trkpt>
      <trkpt lat="48.96266" lon="2.12986">
        <ele>39.1</ele>
        <time>2022-03-08T10:04:43Z</time>
      </trkpt>
      <trkpt lat="48.9627" lon="2.12991">
        <ele>39.3</ele>
        <time>2022-03-08T10:04:47Z</time>
      </trkpt>
      <trkpt lat="48.96274" lon="2.12997">
        <ele>41</ele>
        <time>2022-03-08T10:04:50Z</time>
      </trkpt>
      <trkpt lat="48.96278" lon="2.13003">
        <ele>41</ele>
        <time>2022-03-08T10:04:54Z</time>
      </trkpt>
      <trkpt lat="48.96281" lon="2.13008">
        <ele>40.4</ele>
        <time>2022-03-08T10:04:57Z</time>
      </trkpt>
      <trkpt lat="48.96285" lon="2.13012">
        <ele>39.4</ele>
        <time>2022-03-08T10:05:01Z</time>
      </trkpt>
      <trkpt lat="48.9629" lon="2.13018">
        <ele>39.2</ele>
        <time>2022-03-08T10:05:04Z</time>
      </trkpt>
      <trkpt lat="48.96294" lon="2.13024">
        <ele>38.8</ele>
        <time>2022-03-08T10:05:08Z</time>
      </trkpt>
      <trkpt lat="48.96299" lon="2.1303">
        <ele>38.3</ele>
        <time>2022-03-08T10:05:12Z</time>
      </trkpt>
      <trkpt lat="48.96303" lon="2.13035">
        <ele>37.5</ele>
        <time>2022-03-08T10:05:15Z</time>
      </trkpt>
      <trkpt lat="48.96306" lon="2.13041">
        <ele>36.6</ele>
        <time>2022-03-08T10:05:19Z</time>
      </trkpt>
      <trkpt lat="48.9631" lon="2.13046">
        <ele>36.6</ele>
        <time>2022-03-08T10:05:22Z</time>
      </trkpt>
      <trkpt lat="48.96313" lon="2.13051">
        <ele>37.1</ele>
        <time>2022-03-08T10:05:26Z</time>
      </trkpt>
      <trkpt lat="48.96317" lon="2.13056">
        <ele>38.4</ele>
        <time>2022-03-08T10:05:29Z</time>
      </trkpt>
      <trkpt lat="48.9632" lon="2.13061">
        <ele>38.6</ele>
        <time>2022-03-08T10:05:33Z</time>
      </trkpt>
      <trkpt lat="48.96324" lon="2.13067">
        <ele>37.4</ele>
        <time>2022-03-08T10:05:38Z</time>
      </trkpt>
      <trkpt lat="48.96329" lon="2.13072">
        <ele>36.9</ele>
        <time>2022-03-08T10:05:42Z</time>
      </trkpt>
      <trkpt lat="48.96334" lon="2.13076">
        <ele>37.4</ele>
        <time>2022-03-08T10:05:46Z</time>
      </trkpt>
      <trkpt lat="48.96338" lon="2.13081">
        <ele>37.3</ele>
        <time>2022-03-08T10:05:50Z</time>
      </trkpt>
      <trkpt lat="48.96343" lon="2.13086">
        <ele>36.8</ele>
        <time>2022-03-08T10:05:53Z</time>
      </trkpt>
      <trkpt lat="48.96348" lon="2.13092">
        <ele>36.5</ele>
        <time>2022-03-08T10:05:58Z</time>
      </trkpt>
      <trkpt lat="48.96352" lon="2.13097">
        <ele>36.6</ele>
        <time>2022-03-08T10:06:02Z</time>
      </trkpt>
      <trkpt lat="48.96357" lon="2.13103">
        <ele>37</ele>
        <time>2022-03-08T10:06:05Z</time>
      </trkpt>
      <trkpt lat="48.96361" lon="2.13109">
        <ele>38.3</ele>
        <time>2022-03-08T10:06:09Z</time>
      </trkpt>
      <trkpt lat="48.96366" lon="2.13113">
        <ele>38.7</ele>
        <time>2022-03-08T10:06:13Z</time>
      </trkpt>
      <trkpt lat="48.96371" lon="2.13117">
        <ele>38.6</ele>
        <time>2022-03-08T10:06:17Z</time>
      </trkpt>
      <trkpt lat="48.96375" lon="2.13122">
        <ele>38.3</ele>
        <time>2022-03-08T10:06:20Z</time>
      </trkpt>
      <trkpt lat="48.96381" lon="2.13127">
        <ele>38.7</ele>
        <time>2022-03-08T10:06:25Z</time>
      </trkpt>
      <trkpt lat="48.96385" lon="2.13132">
        <ele>38.6</ele>
        <time>2022-03-08T10:06:29Z</time>
      </trkpt>
      <trkpt lat="48.96389" lon="2.13138">
        <ele>37.2</ele>
        <time>2022-03-08T10:06:32Z</time>
      </trkpt>
      <trkpt lat="48.96393" lon="2.13145">
        <ele>36.3</ele>
        <time>2022-03-08T10:06:36Z</time>
      </trkpt>
      <trkpt lat="48.96397" lon="2.1315">
        <ele>36.6</ele>
        <time>2022-03-08T10:06:41Z</time>
      </trkpt>
      <trkpt lat="48.96401" lon="2.13155">
        <ele>37.3</ele>
        <time>2022-03-08T10:06:44Z</time>
      </trkpt>
      <trkpt lat="48.96404" lon="2.13161">
        <ele>37.9</ele>
        <time>2022-03-08T10:06:48Z</time>
      </trkpt>
      <trkpt lat="48.96408" lon="2.13168">
        <ele>37.7</ele>
        <time>2022-03-08T10:06:52Z</time>
      </trkpt>
      <trkpt lat="48.96412" lon="2.13174">
        <ele>37.4</ele>
        <time>2022-03-08T10:06:56Z</time>
      </trkpt>
      <trkpt lat="48.96415" lon="2.1318">
        <ele>37.5</ele>
        <time>2022-03-08T10:06:59Z</time>
      </trkpt>
      <trkpt lat="48.96419" lon="2.13186">
        <ele>38</ele>
        <time>2022-03-08T10:07:03Z</time>
      </trkpt>
      <trkpt lat="48.96424" lon="2.1319">
        <ele>38.1</ele>
        <time>2022-03-08T10:07:06Z</time>
      </trkpt>
      <trkpt lat="48.96428" lon="2.13194">
        <ele>37.3</ele>
        <time>2022-03-08T10:07:09Z</time>
      </trkpt>
      <trkpt lat="48.96432" lon="2.13199">
        <ele>36.1</ele>
        <time>2022-03-08T10:07:13Z</time>
      </trkpt>
      <trkpt lat="48.96437" lon="2.13205">
        <ele>36.3</ele>
        <time>2022-03-08T10:07:18Z</time>
      </trkpt>
      <trkpt lat="48.96441" lon="2.13211">
        <ele>36.9</ele>
        <time>2022-03-08T10:07:22Z</time>
      </trkpt>
      <trkpt lat="48.96445" lon="2.13215">
        <ele>37.2</ele>
        <time>2022-03-08T10:07:25Z</time>
      </trkpt>
      <trkpt lat="48.9645" lon="2.1322">
        <ele>37.5</ele>
        <time>2022-03-08T10:07:30Z</time>
      </trkpt>
      <trkpt lat="48.96453" lon="2.13225">
        <ele>37.1</ele>
        <time>2022-03-08T10:07:33Z</time>
      </trkpt>
      <trkpt lat="48.96456" lon="2.13232">
        <ele>36.4</ele>
        <time>2022-03-08T10:07:37Z</time>
      </trkpt>
      <trkpt lat="48.9646" lon="2.13238">
        <ele>35.9</ele>
        <time>2022-03-08T10:07:40Z</time>
      </trkpt>
      <trkpt lat="48.96464" lon="2.13244">
        <ele>36.2</ele>
        <time>2022-03-08T10:07:44Z</time>
      </trkpt>
      <trkpt lat="48.96468" lon="2.13249">
        <ele>35.7</ele>
        <time>2022-03-08T10:07:48Z</time>
      </trkpt>
      <trkpt lat="48.96472" lon="2.13253">
        <ele>34.5</ele>
        <time>2022-03-08T10:07:52Z</time>
      </trkpt>
      <trkpt lat="48.96476" lon="2.13258">
        <ele>32.7</ele>
        <time>2022-03-08T10:07:56Z</time>
      </trkpt>
      <trkpt lat="48.9648" lon="2.13263">
        <ele>33.4</ele>
        <time>2022-03-08T10:08:01Z</time>
      </trkpt>
      <trkpt lat="48.96479" lon="2.13271">
        <ele>39</ele>
        <time>2022-03-08T10:08:38Z</time>
      </trkpt>
      <trkpt lat="48.96474" lon="2.13269">
        <ele>35.4</ele>
        <time>2022-03-08T10:08:49Z</time>
      </trkpt>
      <trkpt lat="48.96469" lon="2.13271">
        <ele>35.4</ele>
        <time>2022-03-08T10:08:55Z</time>
      </trkpt>
      <trkpt lat="48.96464" lon="2.13269">
        <ele>37.7</ele>
        <time>2022-03-08T10:09:01Z</time>
      </trkpt>
      <trkpt lat="48.9646" lon="2.13274">
        <ele>39.1</ele>
        <time>2022-03-08T10:09:04Z</time>
      </trkpt>
      <trkpt lat="48.96456" lon="2.13278">
        <ele>39.9</ele>
        <time>2022-03-08T10:09:07Z</time>
      </trkpt>
      <trkpt lat="48.96451" lon="2.13278">
        <ele>40.3</ele>
        <time>2022-03-08T10:09:11Z</time>
      </trkpt>
      <trkpt lat="48.96445" lon="2.13282">
        <ele>40.4</ele>
        <time>2022-03-08T10:09:15Z</time>
      </trkpt>
      <trkpt lat="48.96448" lon="2.1329">
        <ele>38.9</ele>
        <time>2022-03-08T10:09:19Z</time>
      </trkpt>
      <trkpt lat="48.96452" lon="2.13285">
        <ele>36.3</ele>
        <time>2022-03-08T10:09:23Z</time>
      </trkpt>
      <trkpt lat="48.96456" lon="2.13287">
        <ele>35.1</ele>
        <time>2022-03-08T10:09:25Z</time>
      </trkpt>
      <trkpt lat="48.96459" lon="2.13293">
        <ele>33.5</ele>
        <time>2022-03-08T10:10:27Z</time>
      </trkpt>
      <trkpt lat="48.96458" lon="2.133">
        <ele>30.9</ele>
        <time>2022-03-08T10:11:41Z</time>
      </trkpt>
      <trkpt lat="48.96456" lon="2.13306">
        <ele>30.5</ele>
        <time>2022-03-08T10:11:44Z</time>
      </trkpt>
      <trkpt lat="48.96452" lon="2.13311">
        <ele>30.5</ele>
        <time>2022-03-08T10:11:48Z</time>
      </trkpt>
      <trkpt lat="48.96447" lon="2.13316">
        <ele>30.5</ele>
        <time>2022-03-08T10:11:57Z</time>
      </trkpt>
      <trkpt lat="48.96443" lon="2.13322">
        <ele>31</ele>
        <time>2022-03-08T10:12:00Z</time>
      </trkpt>
      <trkpt lat="48.96439" lon="2.13325">
        <ele>32.1</ele>
        <time>2022-03-08T10:12:03Z</time>
      </trkpt>
      <trkpt lat="48.96434" lon="2.1333">
        <ele>33</ele>
        <time>2022-03-08T10:12:06Z</time>
      </trkpt>
      <trkpt lat="48.96431" lon="2.13335">
        <ele>33.3</ele>
        <time>2022-03-08T10:12:10Z</time>
      </trkpt>
      <trkpt lat="48.96428" lon="2.13339">
        <ele>33.5</ele>
        <time>2022-03-08T10:12:14Z</time>
      </trkpt>
      <trkpt lat="48.96424" lon="2.13344">
        <ele>35.2</ele>
        <time>2022-03-08T10:12:18Z</time>
      </trkpt>
      <trkpt lat="48.96419" lon="2.13348">
        <ele>37.1</ele>
        <time>2022-03-08T10:12:22Z</time>
      </trkpt>
      <trkpt lat="48.96415" lon="2.13355">
        <ele>37.5</ele>
        <time>2022-03-08T10:12:27Z</time>
      </trkpt>
      <trkpt lat="48.96411" lon="2.13361">
        <ele>36.7</ele>
        <time>2022-03-08T10:12:31Z</time>
      </trkpt>
      <trkpt lat="48.96406" lon="2.13365">
        <ele>35.7</ele>
        <time>2022-03-08T10:12:35Z</time>
      </trkpt>
      <trkpt lat="48.96403" lon="2.13372">
        <ele>34.8</ele>
        <time>2022-03-08T10:12:39Z</time>
      </trkpt>
      <trkpt lat="48.96405" lon="2.13381">
        <ele>33.9</ele>
        <time>2022-03-08T10:12:43Z</time>
      </trkpt>
      <trkpt lat="48.96406" lon="2.13388">
        <ele>33.8</ele>
        <time>2022-03-08T10:12:45Z</time>
      </trkpt>
      <trkpt lat="48.96411" lon="2.13395">
        <ele>33.9</ele>
        <time>2022-03-08T10:12:49Z</time>
      </trkpt>
      <trkpt lat="48.9641" lon="2.13402">
        <ele>34.2</ele>
        <time>2022-03-08T10:12:52Z</time>
      </trkpt>
      <trkpt lat="48.96405" lon="2.13407">
        <ele>34.4</ele>
        <time>2022-03-08T10:12:57Z</time>
      </trkpt>
      <trkpt lat="48.96401" lon="2.13411">
        <ele>33.9</ele>
        <time>2022-03-08T10:13:01Z</time>
      </trkpt>
      <trkpt lat="48.96396" lon="2.13415">
        <ele>35.1</ele>
        <time>2022-03-08T10:13:06Z</time>
      </trkpt>
      <trkpt lat="48.96391" lon="2.13418">
        <ele>35.4</ele>
        <time>2022-03-08T10:13:09Z</time>
      </trkpt>
      <trkpt lat="48.96386" lon="2.1342">
        <ele>33.7</ele>
        <time>2022-03-08T10:13:13Z</time>
      </trkpt>
      <trkpt lat="48.96381" lon="2.13424">
        <ele>31.6</ele>
        <time>2022-03-08T10:13:17Z</time>
      </trkpt>
      <trkpt lat="48.96379" lon="2.1343">
        <ele>30.8</ele>
        <time>2022-03-08T10:13:22Z</time>
      </trkpt>
      <trkpt lat="48.96379" lon="2.13438">
        <ele>30.1</ele>
        <time>2022-03-08T10:13:25Z</time>
      </trkpt>
      <trkpt lat="48.96375" lon="2.13443">
        <ele>29.6</ele>
        <time>2022-03-08T10:13:29Z</time>
      </trkpt>
      <trkpt lat="48.96372" lon="2.13448">
        <ele>30.5</ele>
        <time>2022-03-08T10:13:33Z</time>
      </trkpt>
      <trkpt lat="48.96367" lon="2.13451">
        <ele>32.2</ele>
        <time>2022-03-08T10:13:37Z</time>
      </trkpt>
      <trkpt lat="48.96365" lon="2.13457">
        <ele>33.3</ele>
        <time>2022-03-08T10:13:41Z</time>
      </trkpt>
      <trkpt lat="48.96362" lon="2.13463">
        <ele>33.1</ele>
        <time>2022-03-08T10:13:44Z</time>
      </trkpt>
      <trkpt lat="48.96357" lon="2.13466">
        <ele>32.9</ele>
        <time>2022-03-08T10:13:48Z</time>
      </trkpt>
      <trkpt lat="48.96352" lon="2.1347">
        <ele>32.9</ele>
        <time>2022-03-08T10:13:52Z</time>
      </trkpt>
      <trkpt lat="48.96348" lon="2.13475">
        <ele>33.7</ele>
        <time>2022-03-08T10:13:56Z</time>
      </trkpt>
      <trkpt lat="48.96346" lon="2.13481">
        <ele>34.4</ele>
        <time>2022-03-08T10:14:00Z</time>
      </trkpt>
      <trkpt lat="48.96343" lon="2.13487">
        <ele>35.6</ele>
        <time>2022-03-08T10:14:04Z</time>
      </trkpt>
      <trkpt lat="48.96338" lon="2.13492">
        <ele>36.7</ele>
        <time>2022-03-08T10:14:08Z</time>
      </trkpt>
      <trkpt lat="48.96334" lon="2.13496">
        <ele>37.5</ele>
        <time>2022-03-08T10:14:12Z</time>
      </trkpt>
      <trkpt lat="48.9633" lon="2.13499">
        <ele>37.5</ele>
        <time>2022-03-08T10:14:15Z</time>
      </trkpt>
      <trkpt lat="48.96326" lon="2.13503">
        <ele>37.1</ele>
        <time>2022-03-08T10:14:19Z</time>
      </trkpt>
      <trkpt lat="48.96322" lon="2.13509">
        <ele>36.9</ele>
        <time>2022-03-08T10:14:23Z</time>
      </trkpt>
      <trkpt lat="48.96319" lon="2.13515">
        <ele>37.2</ele>
        <time>2022-03-08T10:14:27Z</time>
      </trkpt>
      <trkpt lat="48.96315" lon="2.1352">
        <ele>37.6</ele>
        <time>2022-03-08T10:14:31Z</time>
      </trkpt>
      <trkpt lat="48.96312" lon="2.13527">
        <ele>37.8</ele>
        <time>2022-03-08T10:14:35Z</time>
      </trkpt>
      <trkpt lat="48.96309" lon="2.13534">
        <ele>38.3</ele>
        <time>2022-03-08T10:14:40Z</time>
      </trkpt>
      <trkpt lat="48.96307" lon="2.13541">
        <ele>38.7</ele>
        <time>2022-03-08T10:14:44Z</time>
      </trkpt>
      <trkpt lat="48.96304" lon="2.13548">
        <ele>38.1</ele>
        <time>2022-03-08T10:14:48Z</time>
      </trkpt>
      <trkpt lat="48.96301" lon="2.13553">
        <ele>37.8</ele>
        <time>2022-03-08T10:14:52Z</time>
      </trkpt>
      <trkpt lat="48.96297" lon="2.13559">
        <ele>37.7</ele>
        <time>2022-03-08T10:14:56Z</time>
      </trkpt>
      <trkpt lat="48.96294" lon="2.13566">
        <ele>37.4</ele>
        <time>2022-03-08T10:15:00Z</time>
      </trkpt>
      <trkpt lat="48.9629" lon="2.13572">
        <ele>37.3</ele>
        <time>2022-03-08T10:15:05Z</time>
      </trkpt>
      <trkpt lat="48.96286" lon="2.13577">
        <ele>37</ele>
        <time>2022-03-08T10:15:09Z</time>
      </trkpt>
      <trkpt lat="48.96283" lon="2.13582">
        <ele>34.8</ele>
        <time>2022-03-08T10:15:14Z</time>
      </trkpt>
      <trkpt lat="48.96281" lon="2.13588">
        <ele>33.6</ele>
        <time>2022-03-08T10:15:18Z</time>
      </trkpt>
      <trkpt lat="48.96278" lon="2.13596">
        <ele>33.5</ele>
        <time>2022-03-08T10:15:24Z</time>
      </trkpt>
      <trkpt lat="48.96275" lon="2.13602">
        <ele>33.5</ele>
        <time>2022-03-08T10:15:28Z</time>
      </trkpt>
      <trkpt lat="48.96271" lon="2.13607">
        <ele>33.4</ele>
        <time>2022-03-08T10:15:32Z</time>
      </trkpt>
      <trkpt lat="48.96268" lon="2.13613">
        <ele>32.2</ele>
        <time>2022-03-08T10:15:36Z</time>
      </trkpt>
      <trkpt lat="48.96264" lon="2.13618">
        <ele>31.6</ele>
        <time>2022-03-08T10:15:40Z</time>
      </trkpt>
      <trkpt lat="48.96261" lon="2.13623">
        <ele>32.1</ele>
        <time>2022-03-08T10:15:44Z</time>
      </trkpt>
      <trkpt lat="48.96258" lon="2.13628">
        <ele>33.7</ele>
        <time>2022-03-08T10:15:47Z</time>
      </trkpt>
      <trkpt lat="48.96255" lon="2.13634">
        <ele>34.4</ele>
        <time>2022-03-08T10:15:51Z</time>
      </trkpt>
      <trkpt lat="48.96251" lon="2.1364">
        <ele>34.8</ele>
        <time>2022-03-08T10:15:55Z</time>
      </trkpt>
      <trkpt lat="48.96248" lon="2.13646">
        <ele>35.1</ele>
        <time>2022-03-08T10:15:59Z</time>
      </trkpt>
      <trkpt lat="48.96244" lon="2.13652">
        <ele>34.3</ele>
        <time>2022-03-08T10:16:03Z</time>
      </trkpt>
      <trkpt lat="48.96242" lon="2.13657">
        <ele>33.5</ele>
        <time>2022-03-08T10:16:06Z</time>
      </trkpt>
      <trkpt lat="48.96238" lon="2.13664">
        <ele>33</ele>
        <time>2022-03-08T10:16:10Z</time>
      </trkpt>
      <trkpt lat="48.96234" lon="2.1367">
        <ele>33.4</ele>
        <time>2022-03-08T10:16:14Z</time>
      </trkpt>
      <trkpt lat="48.9623" lon="2.13676">
        <ele>33.6</ele>
        <time>2022-03-08T10:16:19Z</time>
      </trkpt>
      <trkpt lat="48.96227" lon="2.13681">
        <ele>33.6</ele>
        <time>2022-03-08T10:16:22Z</time>
      </trkpt>
      <trkpt lat="48.96223" lon="2.13686">
        <ele>33.3</ele>
        <time>2022-03-08T10:16:25Z</time>
      </trkpt>
      <trkpt lat="48.9622" lon="2.13692">
        <ele>33</ele>
        <time>2022-03-08T10:16:29Z</time>
      </trkpt>
      <trkpt lat="48.96218" lon="2.13698">
        <ele>32.8</ele>
        <time>2022-03-08T10:16:33Z</time>
      </trkpt>
      <trkpt lat="48.96214" lon="2.13702">
        <ele>33.1</ele>
        <time>2022-03-08T10:16:35Z</time>
      </trkpt>
      <trkpt lat="48.96211" lon="2.1371">
        <ele>33.5</ele>
        <time>2022-03-08T10:16:39Z</time>
      </trkpt>
      <trkpt lat="48.96207" lon="2.13716">
        <ele>33.2</ele>
        <time>2022-03-08T10:16:43Z</time>
      </trkpt>
      <trkpt lat="48.96204" lon="2.13723">
        <ele>32.7</ele>
        <time>2022-03-08T10:16:47Z</time>
      </trkpt>
      <trkpt lat="48.962" lon="2.13729">
        <ele>32.6</ele>
        <time>2022-03-08T10:16:51Z</time>
      </trkpt>
      <trkpt lat="48.96197" lon="2.13735">
        <ele>32.9</ele>
        <time>2022-03-08T10:16:56Z</time>
      </trkpt>
      <trkpt lat="48.96194" lon="2.13741">
        <ele>33.6</ele>
        <time>2022-03-08T10:16:59Z</time>
      </trkpt>
      <trkpt lat="48.96191" lon="2.13746">
        <ele>34.1</ele>
        <time>2022-03-08T10:17:03Z</time>
      </trkpt>
      <trkpt lat="48.96188" lon="2.13752">
        <ele>33.5</ele>
        <time>2022-03-08T10:17:07Z</time>
      </trkpt>
      <trkpt lat="48.96183" lon="2.13758">
        <ele>32.6</ele>
        <time>2022-03-08T10:17:11Z</time>
      </trkpt>
      <trkpt lat="48.9618" lon="2.13763">
        <ele>33</ele>
        <time>2022-03-08T10:17:14Z</time>
      </trkpt>
      <trkpt lat="48.96177" lon="2.1377">
        <ele>33.3</ele>
        <time>2022-03-08T10:17:18Z</time>
      </trkpt>
      <trkpt lat="48.96174" lon="2.13777">
        <ele>33.3</ele>
        <time>2022-03-08T10:17:22Z</time>
      </trkpt>
      <trkpt lat="48.9617" lon="2.13784">
        <ele>33.2</ele>
        <time>2022-03-08T10:17:27Z</time>
      </trkpt>
      <trkpt lat="48.96165" lon="2.13789">
        <ele>33</ele>
        <time>2022-03-08T10:17:31Z</time>
      </trkpt>
      <trkpt lat="48.96162" lon="2.13795">
        <ele>32.5</ele>
        <time>2022-03-08T10:17:35Z</time>
      </trkpt>
      <trkpt lat="48.96159" lon="2.13801">
        <ele>32.1</ele>
        <time>2022-03-08T10:17:39Z</time>
      </trkpt>
      <trkpt lat="48.96156" lon="2.13806">
        <ele>31.9</ele>
        <time>2022-03-08T10:17:42Z</time>
      </trkpt>
      <trkpt lat="48.96152" lon="2.13814">
        <ele>31.8</ele>
        <time>2022-03-08T10:17:46Z</time>
      </trkpt>
      <trkpt lat="48.9615" lon="2.13819">
        <ele>31.7</ele>
        <time>2022-03-08T10:17:49Z</time>
      </trkpt>
      <trkpt lat="48.96146" lon="2.13826">
        <ele>31.8</ele>
        <time>2022-03-08T10:17:53Z</time>
      </trkpt>
      <trkpt lat="48.96142" lon="2.13831">
        <ele>32.3</ele>
        <time>2022-03-08T10:17:57Z</time>
      </trkpt>
      <trkpt lat="48.96138" lon="2.13837">
        <ele>33.2</ele>
        <time>2022-03-08T10:18:01Z</time>
      </trkpt>
      <trkpt lat="48.96135" lon="2.13844">
        <ele>33.5</ele>
        <time>2022-03-08T10:18:06Z</time>
      </trkpt>
      <trkpt lat="48.96132" lon="2.13849">
        <ele>33.8</ele>
        <time>2022-03-08T10:18:09Z</time>
      </trkpt>
      <trkpt lat="48.96128" lon="2.13856">
        <ele>34.2</ele>
        <time>2022-03-08T10:18:13Z</time>
      </trkpt>
      <trkpt lat="48.96124" lon="2.13862">
        <ele>34.5</ele>
        <time>2022-03-08T10:18:17Z</time>
      </trkpt>
      <trkpt lat="48.9612" lon="2.13868">
        <ele>34.3</ele>
        <time>2022-03-08T10:18:21Z</time>
      </trkpt>
      <trkpt lat="48.96118" lon="2.13874">
        <ele>33.8</ele>
        <time>2022-03-08T10:18:25Z</time>
      </trkpt>
      <trkpt lat="48.96114" lon="2.13881">
        <ele>33.6</ele>
        <time>2022-03-08T10:18:30Z</time>
      </trkpt>
      <trkpt lat="48.96111" lon="2.13887">
        <ele>33.9</ele>
        <time>2022-03-08T10:18:33Z</time>
      </trkpt>
      <trkpt lat="48.96108" lon="2.13893">
        <ele>34.6</ele>
        <time>2022-03-08T10:18:37Z</time>
      </trkpt>
      <trkpt lat="48.96104" lon="2.13897">
        <ele>35.4</ele>
        <time>2022-03-08T10:18:40Z</time>
      </trkpt>
      <trkpt lat="48.96101" lon="2.13903">
        <ele>35.8</ele>
        <time>2022-03-08T10:18:44Z</time>
      </trkpt>
      <trkpt lat="48.96098" lon="2.13909">
        <ele>35.9</ele>
        <time>2022-03-08T10:18:48Z</time>
      </trkpt>
      <trkpt lat="48.96095" lon="2.13915">
        <ele>36.2</ele>
        <time>2022-03-08T10:18:52Z</time>
      </trkpt>
      <trkpt lat="48.96091" lon="2.13922">
        <ele>36.7</ele>
        <time>2022-03-08T10:18:56Z</time>
      </trkpt>
      <trkpt lat="48.96088" lon="2.13928">
        <ele>37</ele>
        <time>2022-03-08T10:19:00Z</time>
      </trkpt>
      <trkpt lat="48.96085" lon="2.13934">
        <ele>37.3</ele>
        <time>2022-03-08T10:19:04Z</time>
      </trkpt>
      <trkpt lat="48.96081" lon="2.13939">
        <ele>37.1</ele>
        <time>2022-03-08T10:19:08Z</time>
      </trkpt>
      <trkpt lat="48.96077" lon="2.13945">
        <ele>36.7</ele>
        <time>2022-03-08T10:19:12Z</time>
      </trkpt>
      <trkpt lat="48.96074" lon="2.13951">
        <ele>36</ele>
        <time>2022-03-08T10:19:16Z</time>
      </trkpt>
      <trkpt lat="48.96071" lon="2.13958">
        <ele>35.3</ele>
        <time>2022-03-08T10:19:21Z</time>
      </trkpt>
      <trkpt lat="48.96068" lon="2.13964">
        <ele>34.9</ele>
        <time>2022-03-08T10:19:24Z</time>
      </trkpt>
      <trkpt lat="48.96064" lon="2.1397">
        <ele>34.7</ele>
        <time>2022-03-08T10:19:28Z</time>
      </trkpt>
      <trkpt lat="48.96061" lon="2.13975">
        <ele>34.4</ele>
        <time>2022-03-08T10:19:33Z</time>
      </trkpt>
      <trkpt lat="48.96058" lon="2.13982">
        <ele>34.4</ele>
        <time>2022-03-08T10:19:37Z</time>
      </trkpt>
      <trkpt lat="48.96055" lon="2.13988">
        <ele>34.6</ele>
        <time>2022-03-08T10:19:41Z</time>
      </trkpt>
      <trkpt lat="48.96052" lon="2.13994">
        <ele>34.6</ele>
        <time>2022-03-08T10:19:45Z</time>
      </trkpt>
      <trkpt lat="48.96048" lon="2.14001">
        <ele>34.6</ele>
        <time>2022-03-08T10:19:49Z</time>
      </trkpt>
      <trkpt lat="48.96045" lon="2.14007">
        <ele>34.5</ele>
        <time>2022-03-08T10:19:54Z</time>
      </trkpt>
      <trkpt lat="48.96042" lon="2.14013">
        <ele>34.5</ele>
        <time>2022-03-08T10:19:58Z</time>
      </trkpt>
      <trkpt lat="48.96039" lon="2.1402">
        <ele>35.2</ele>
        <time>2022-03-08T10:20:02Z</time>
      </trkpt>
      <trkpt lat="48.96035" lon="2.14025">
        <ele>36.3</ele>
        <time>2022-03-08T10:20:07Z</time>
      </trkpt>
      <trkpt lat="48.96031" lon="2.14032">
        <ele>37.2</ele>
        <time>2022-03-08T10:20:11Z</time>
      </trkpt>
      <trkpt lat="48.96028" lon="2.14038">
        <ele>37.5</ele>
        <time>2022-03-08T10:20:15Z</time>
      </trkpt>
      <trkpt lat="48.96025" lon="2.14044">
        <ele>37.6</ele>
        <time>2022-03-08T10:20:19Z</time>
      </trkpt>
      <trkpt lat="48.96022" lon="2.1405">
        <ele>37.5</ele>
        <time>2022-03-08T10:20:23Z</time>
      </trkpt>
      <trkpt lat="48.96019" lon="2.14056">
        <ele>36.8</ele>
        <time>2022-03-08T10:20:27Z</time>
      </trkpt>
      <trkpt lat="48.96016" lon="2.14063">
        <ele>35.9</ele>
        <time>2022-03-08T10:20:31Z</time>
      </trkpt>
      <trkpt lat="48.96013" lon="2.14069">
        <ele>35.6</ele>
        <time>2022-03-08T10:20:35Z</time>
      </trkpt>
      <trkpt lat="48.9601" lon="2.14074">
        <ele>35.7</ele>
        <time>2022-03-08T10:20:39Z</time>
      </trkpt>
      <trkpt lat="48.96007" lon="2.14082">
        <ele>35.9</ele>
        <time>2022-03-08T10:20:44Z</time>
      </trkpt>
      <trkpt lat="48.96003" lon="2.14088">
        <ele>36.3</ele>
        <time>2022-03-08T10:20:48Z</time>
      </trkpt>
      <trkpt lat="48.95999" lon="2.14094">
        <ele>36.5</ele>
        <time>2022-03-08T10:20:52Z</time>
      </trkpt>
      <trkpt lat="48.95996" lon="2.14102">
        <ele>36.3</ele>
        <time>2022-03-08T10:20:57Z</time>
      </trkpt>
      <trkpt lat="48.95993" lon="2.14108">
        <ele>36.1</ele>
        <time>2022-03-08T10:21:00Z</time>
      </trkpt>
      <trkpt lat="48.9599" lon="2.14113">
        <ele>36</ele>
        <time>2022-03-08T10:21:03Z</time>
      </trkpt>
      <trkpt lat="48.95987" lon="2.14118">
        <ele>35.9</ele>
        <time>2022-03-08T10:21:07Z</time>
      </trkpt>
      <trkpt lat="48.95984" lon="2.14124">
        <ele>35.7</ele>
        <time>2022-03-08T10:21:11Z</time>
      </trkpt>
      <trkpt lat="48.9598" lon="2.1413">
        <ele>35.7</ele>
        <time>2022-03-08T10:21:15Z</time>
      </trkpt>
      <trkpt lat="48.95977" lon="2.14136">
        <ele>35.7</ele>
        <time>2022-03-08T10:21:19Z</time>
      </trkpt>
      <trkpt lat="48.95973" lon="2.14143">
        <ele>35.8</ele>
        <time>2022-03-08T10:21:24Z</time>
      </trkpt>
      <trkpt lat="48.9597" lon="2.14148">
        <ele>35.7</ele>
        <time>2022-03-08T10:21:27Z</time>
      </trkpt>
      <trkpt lat="48.95967" lon="2.14155">
        <ele>35.7</ele>
        <time>2022-03-08T10:21:31Z</time>
      </trkpt>
      <trkpt lat="48.95964" lon="2.14161">
        <ele>35.6</ele>
        <time>2022-03-08T10:21:35Z</time>
      </trkpt>
      <trkpt lat="48.9596" lon="2.14167">
        <ele>35.6</ele>
        <time>2022-03-08T10:21:39Z</time>
      </trkpt>
      <trkpt lat="48.95957" lon="2.14173">
        <ele>35.4</ele>
        <time>2022-03-08T10:21:42Z</time>
      </trkpt>
      <trkpt lat="48.95954" lon="2.14179">
        <ele>35.4</ele>
        <time>2022-03-08T10:21:47Z</time>
      </trkpt>
      <trkpt lat="48.9595" lon="2.14185">
        <ele>35.2</ele>
        <time>2022-03-08T10:21:51Z</time>
      </trkpt>
      <trkpt lat="48.95947" lon="2.14191">
        <ele>34.6</ele>
        <time>2022-03-08T10:21:57Z</time>
      </trkpt>
      <trkpt lat="48.95944" lon="2.14196">
        <ele>34.2</ele>
        <time>2022-03-08T10:22:00Z</time>
      </trkpt>
      <trkpt lat="48.9594" lon="2.14201">
        <ele>34</ele>
        <time>2022-03-08T10:22:03Z</time>
      </trkpt>
      <trkpt lat="48.95936" lon="2.14207">
        <ele>34</ele>
        <time>2022-03-08T10:22:08Z</time>
      </trkpt>
      <trkpt lat="48.95932" lon="2.14213">
        <ele>34.6</ele>
        <time>2022-03-08T10:22:12Z</time>
      </trkpt>
      <trkpt lat="48.95928" lon="2.14219">
        <ele>35.1</ele>
        <time>2022-03-08T10:22:16Z</time>
      </trkpt>
      <trkpt lat="48.95925" lon="2.14223">
        <ele>35.3</ele>
        <time>2022-03-08T10:22:20Z</time>
      </trkpt>
      <trkpt lat="48.95921" lon="2.14229">
        <ele>35.3</ele>
        <time>2022-03-08T10:22:24Z</time>
      </trkpt>
      <trkpt lat="48.95917" lon="2.14234">
        <ele>35.5</ele>
        <time>2022-03-08T10:22:28Z</time>
      </trkpt>
      <trkpt lat="48.95914" lon="2.1424">
        <ele>35.7</ele>
        <time>2022-03-08T10:22:33Z</time>
      </trkpt>
      <trkpt lat="48.95911" lon="2.14246">
        <ele>35.9</ele>
        <time>2022-03-08T10:22:37Z</time>
      </trkpt>
      <trkpt lat="48.95908" lon="2.14251">
        <ele>35.8</ele>
        <time>2022-03-08T10:22:40Z</time>
      </trkpt>
      <trkpt lat="48.95904" lon="2.14256">
        <ele>35.4</ele>
        <time>2022-03-08T10:22:45Z</time>
      </trkpt>
      <trkpt lat="48.95902" lon="2.14263">
        <ele>35.7</ele>
        <time>2022-03-08T10:22:50Z</time>
      </trkpt>
      <trkpt lat="48.95898" lon="2.14268">
        <ele>37.2</ele>
        <time>2022-03-08T10:22:56Z</time>
      </trkpt>
      <trkpt lat="48.95904" lon="2.14271">
        <ele>38.6</ele>
        <time>2022-03-08T10:23:17Z</time>
      </trkpt>
      <trkpt lat="48.95909" lon="2.14273">
        <ele>39.7</ele>
        <time>2022-03-08T10:23:23Z</time>
      </trkpt>
      <trkpt lat="48.95914" lon="2.14275">
        <ele>42</ele>
        <time>2022-03-08T10:23:28Z</time>
      </trkpt>
      <trkpt lat="48.95908" lon="2.14273">
        <ele>37</ele>
        <time>2022-03-08T10:24:13Z</time>
      </trkpt>
      <trkpt lat="48.95904" lon="2.14269">
        <ele>36.2</ele>
        <time>2022-03-08T10:24:19Z</time>
      </trkpt>
      <trkpt lat="48.95903" lon="2.14262">
        <ele>35.2</ele>
        <time>2022-03-08T10:24:25Z</time>
      </trkpt>
      <trkpt lat="48.95898" lon="2.14257">
        <ele>35.5</ele>
        <time>2022-03-08T10:24:30Z</time>
      </trkpt>
      <trkpt lat="48.95894" lon="2.14254">
        <ele>36.4</ele>
        <time>2022-03-08T10:24:33Z</time>
      </trkpt>
      <trkpt lat="48.95889" lon="2.14251">
        <ele>36.8</ele>
        <time>2022-03-08T10:24:37Z</time>
      </trkpt>
      <trkpt lat="48.95884" lon="2.14248">
        <ele>36.6</ele>
        <time>2022-03-08T10:24:41Z</time>
      </trkpt>
      <trkpt lat="48.95879" lon="2.14244">
        <ele>35.6</ele>
        <time>2022-03-08T10:24:46Z</time>
      </trkpt>
      <trkpt lat="48.95875" lon="2.14241">
        <ele>34.5</ele>
        <time>2022-03-08T10:24:50Z</time>
      </trkpt>
      <trkpt lat="48.95871" lon="2.14237">
        <ele>34.1</ele>
        <time>2022-03-08T10:24:54Z</time>
      </trkpt>
      <trkpt lat="48.95867" lon="2.14233">
        <ele>33.3</ele>
        <time>2022-03-08T10:24:58Z</time>
      </trkpt>
      <trkpt lat="48.95863" lon="2.14226">
        <ele>31.2</ele>
        <time>2022-03-08T10:25:07Z</time>
      </trkpt>
      <trkpt lat="48.95861" lon="2.14219">
        <ele>30.2</ele>
        <time>2022-03-08T10:25:10Z</time>
      </trkpt>
      <trkpt lat="48.95859" lon="2.14213">
        <ele>29.5</ele>
        <time>2022-03-08T10:25:13Z</time>
      </trkpt>
      <trkpt lat="48.95855" lon="2.14207">
        <ele>29.1</ele>
        <time>2022-03-08T10:25:17Z</time>
      </trkpt>
      <trkpt lat="48.95851" lon="2.14201">
        <ele>29.7</ele>
        <time>2022-03-08T10:25:21Z</time>
      </trkpt>
      <trkpt lat="48.95847" lon="2.14196">
        <ele>30.9</ele>
        <time>2022-03-08T10:25:25Z</time>
      </trkpt>
      <trkpt lat="48.95843" lon="2.1419">
        <ele>31.1</ele>
        <time>2022-03-08T10:25:29Z</time>
      </trkpt>
      <trkpt lat="48.95839" lon="2.14185">
        <ele>31.1</ele>
        <time>2022-03-08T10:25:32Z</time>
      </trkpt>
      <trkpt lat="48.95836" lon="2.14179">
        <ele>32.1</ele>
        <time>2022-03-08T10:25:36Z</time>
      </trkpt>
      <trkpt lat="48.95833" lon="2.14173">
        <ele>33.5</ele>
        <time>2022-03-08T10:25:39Z</time>
      </trkpt>
      <trkpt lat="48.95828" lon="2.14166">
        <ele>34.6</ele>
        <time>2022-03-08T10:25:44Z</time>
      </trkpt>
      <trkpt lat="48.95825" lon="2.14161">
        <ele>34.6</ele>
        <time>2022-03-08T10:25:47Z</time>
      </trkpt>
      <trkpt lat="48.95822" lon="2.14156">
        <ele>34.6</ele>
        <time>2022-03-08T10:25:51Z</time>
      </trkpt>
      <trkpt lat="48.95819" lon="2.1415">
        <ele>34.3</ele>
        <time>2022-03-08T10:25:55Z</time>
      </trkpt>
      <trkpt lat="48.95816" lon="2.14145">
        <ele>33.5</ele>
        <time>2022-03-08T10:25:58Z</time>
      </trkpt>
      <trkpt lat="48.95811" lon="2.1414">
        <ele>32.6</ele>
        <time>2022-03-08T10:26:01Z</time>
      </trkpt>
      <trkpt lat="48.95808" lon="2.14135">
        <ele>32.7</ele>
        <time>2022-03-08T10:26:04Z</time>
      </trkpt>
      <trkpt lat="48.95804" lon="2.14129">
        <ele>33.2</ele>
        <time>2022-03-08T10:26:08Z</time>
      </trkpt>
      <trkpt lat="48.958" lon="2.14123">
        <ele>33.1</ele>
        <time>2022-03-08T10:26:13Z</time>
      </trkpt>
      <trkpt lat="48.95796" lon="2.14117">
        <ele>32.5</ele>
        <time>2022-03-08T10:26:17Z</time>
      </trkpt>
      <trkpt lat="48.95793" lon="2.14111">
        <ele>32.6</ele>
        <time>2022-03-08T10:26:21Z</time>
      </trkpt>
      <trkpt lat="48.95789" lon="2.14105">
        <ele>32.8</ele>
        <time>2022-03-08T10:26:25Z</time>
      </trkpt>
      <trkpt lat="48.95784" lon="2.141">
        <ele>32.3</ele>
        <time>2022-03-08T10:26:30Z</time>
      </trkpt>
      <trkpt lat="48.95779" lon="2.14096">
        <ele>30.8</ele>
        <time>2022-03-08T10:26:34Z</time>
      </trkpt>
      <trkpt lat="48.95775" lon="2.1409">
        <ele>30.5</ele>
        <time>2022-03-08T10:26:39Z</time>
      </trkpt>
      <trkpt lat="48.95772" lon="2.14083">
        <ele>31.3</ele>
        <time>2022-03-08T10:26:43Z</time>
      </trkpt>
      <trkpt lat="48.95769" lon="2.14076">
        <ele>31.9</ele>
        <time>2022-03-08T10:26:48Z</time>
      </trkpt>
      <trkpt lat="48.95764" lon="2.14073">
        <ele>32.6</ele>
        <time>2022-03-08T10:26:52Z</time>
      </trkpt>
      <trkpt lat="48.95759" lon="2.14069">
        <ele>32.7</ele>
        <time>2022-03-08T10:26:57Z</time>
      </trkpt>
      <trkpt lat="48.95758" lon="2.14061">
        <ele>32.4</ele>
        <time>2022-03-08T10:27:01Z</time>
      </trkpt>
      <trkpt lat="48.95756" lon="2.14054">
        <ele>32.5</ele>
        <time>2022-03-08T10:27:05Z</time>
      </trkpt>
      <trkpt lat="48.95754" lon="2.14047">
        <ele>32.7</ele>
        <time>2022-03-08T10:27:09Z</time>
      </trkpt>
      <trkpt lat="48.95753" lon="2.1404">
        <ele>32.6</ele>
        <time>2022-03-08T10:27:13Z</time>
      </trkpt>
      <trkpt lat="48.95755" lon="2.14031">
        <ele>33.8</ele>
        <time>2022-03-08T10:27:16Z</time>
      </trkpt>
      <trkpt lat="48.95756" lon="2.14023">
        <ele>35.7</ele>
        <time>2022-03-08T10:27:20Z</time>
      </trkpt>
      <trkpt lat="48.95757" lon="2.14015">
        <ele>36.1</ele>
        <time>2022-03-08T10:27:24Z</time>
      </trkpt>
      <trkpt lat="48.95757" lon="2.14008">
        <ele>36.3</ele>
        <time>2022-03-08T10:27:27Z</time>
      </trkpt>
      <trkpt lat="48.95756" lon="2.13999">
        <ele>37.1</ele>
        <time>2022-03-08T10:27:31Z</time>
      </trkpt>
      <trkpt lat="48.95757" lon="2.13991">
        <ele>37.7</ele>
        <time>2022-03-08T10:27:35Z</time>
      </trkpt>
      <trkpt lat="48.95756" lon="2.13983">
        <ele>37.5</ele>
        <time>2022-03-08T10:27:40Z</time>
      </trkpt>
      <trkpt lat="48.95756" lon="2.13975">
        <ele>38</ele>
        <time>2022-03-08T10:27:45Z</time>
      </trkpt>
      <trkpt lat="48.95757" lon="2.13967">
        <ele>39.6</ele>
        <time>2022-03-08T10:27:49Z</time>
      </trkpt>
      <trkpt lat="48.95758" lon="2.13958">
        <ele>41.5</ele>
        <time>2022-03-08T10:27:53Z</time>
      </trkpt>
      <trkpt lat="48.95757" lon="2.13951">
        <ele>42.2</ele>
        <time>2022-03-08T10:27:57Z</time>
      </trkpt>
      <trkpt lat="48.95757" lon="2.13943">
        <ele>41.1</ele>
        <time>2022-03-08T10:28:01Z</time>
      </trkpt>
      <trkpt lat="48.95756" lon="2.13935">
        <ele>39.2</ele>
        <time>2022-03-08T10:28:06Z</time>
      </trkpt>
      <trkpt lat="48.95758" lon="2.13928">
        <ele>38.2</ele>
        <time>2022-03-08T10:28:11Z</time>
      </trkpt>
      <trkpt lat="48.95758" lon="2.13921">
        <ele>37.3</ele>
        <time>2022-03-08T10:28:36Z</time>
      </trkpt>
      <trkpt lat="48.95754" lon="2.13916">
        <ele>37.2</ele>
        <time>2022-03-08T10:28:41Z</time>
      </trkpt>
      <trkpt lat="48.95751" lon="2.1391">
        <ele>37.5</ele>
        <time>2022-03-08T10:28:44Z</time>
      </trkpt>
      <trkpt lat="48.95751" lon="2.13903">
        <ele>36.8</ele>
        <time>2022-03-08T10:28:48Z</time>
      </trkpt>
      <trkpt lat="48.95753" lon="2.13895">
        <ele>34.8</ele>
        <time>2022-03-08T10:28:53Z</time>
      </trkpt>
      <trkpt lat="48.95755" lon="2.13888">
        <ele>34.4</ele>
        <time>2022-03-08T10:28:57Z</time>
      </trkpt>
      <trkpt lat="48.95755" lon="2.13881">
        <ele>36.8</ele>
        <time>2022-03-08T10:29:01Z</time>
      </trkpt>
      <trkpt lat="48.95755" lon="2.13873">
        <ele>39.9</ele>
        <time>2022-03-08T10:29:06Z</time>
      </trkpt>
      <trkpt lat="48.95755" lon="2.13865">
        <ele>40.1</ele>
        <time>2022-03-08T10:29:10Z</time>
      </trkpt>
      <trkpt lat="48.95754" lon="2.13856">
        <ele>37.9</ele>
        <time>2022-03-08T10:29:14Z</time>
      </trkpt>
      <trkpt lat="48.95754" lon="2.13848">
        <ele>35.9</ele>
        <time>2022-03-08T10:29:18Z</time>
      </trkpt>
      <trkpt lat="48.95754" lon="2.1384">
        <ele>35.7</ele>
        <time>2022-03-08T10:29:22Z</time>
      </trkpt>
      <trkpt lat="48.95755" lon="2.13832">
        <ele>36.5</ele>
        <time>2022-03-08T10:29:26Z</time>
      </trkpt>
      <trkpt lat="48.95755" lon="2.13824">
        <ele>36.8</ele>
        <time>2022-03-08T10:29:30Z</time>
      </trkpt>
      <trkpt lat="48.95755" lon="2.13815">
        <ele>36.4</ele>
        <time>2022-03-08T10:29:34Z</time>
      </trkpt>
      <trkpt lat="48.95755" lon="2.13808">
        <ele>36.2</ele>
        <time>2022-03-08T10:29:38Z</time>
      </trkpt>
      <trkpt lat="48.95755" lon="2.13801">
        <ele>36</ele>
        <time>2022-03-08T10:29:41Z</time>
      </trkpt>
      <trkpt lat="48.95757" lon="2.13793">
        <ele>35.8</ele>
        <time>2022-03-08T10:29:45Z</time>
      </trkpt>
      <trkpt lat="48.95759" lon="2.13785">
        <ele>35.7</ele>
        <time>2022-03-08T10:29:49Z</time>
      </trkpt>
      <trkpt lat="48.95761" lon="2.13778">
        <ele>36.7</ele>
        <time>2022-03-08T10:29:53Z</time>
      </trkpt>
      <trkpt lat="48.95764" lon="2.13772">
        <ele>38.4</ele>
        <time>2022-03-08T10:29:56Z</time>
      </trkpt>
      <trkpt lat="48.95764" lon="2.13764">
        <ele>38.7</ele>
        <time>2022-03-08T10:30:00Z</time>
      </trkpt>
      <trkpt lat="48.95763" lon="2.13755">
        <ele>38.2</ele>
        <time>2022-03-08T10:30:04Z</time>
      </trkpt>
      <trkpt lat="48.95761" lon="2.13749">
        <ele>37.9</ele>
        <time>2022-03-08T10:30:07Z</time>
      </trkpt>
      <trkpt lat="48.9576" lon="2.13742">
        <ele>37.8</ele>
        <time>2022-03-08T10:30:11Z</time>
      </trkpt>
      <trkpt lat="48.95759" lon="2.13735">
        <ele>37.3</ele>
        <time>2022-03-08T10:30:14Z</time>
      </trkpt>
      <trkpt lat="48.95759" lon="2.13727">
        <ele>36.8</ele>
        <time>2022-03-08T10:30:18Z</time>
      </trkpt>
      <trkpt lat="48.95761" lon="2.13719">
        <ele>36.6</ele>
        <time>2022-03-08T10:30:21Z</time>
      </trkpt>
      <trkpt lat="48.95763" lon="2.13711">
        <ele>37.7</ele>
        <time>2022-03-08T10:30:25Z</time>
      </trkpt>
      <trkpt lat="48.95763" lon="2.13704">
        <ele>38.5</ele>
        <time>2022-03-08T10:30:29Z</time>
      </trkpt>
      <trkpt lat="48.95761" lon="2.13696">
        <ele>38.4</ele>
        <time>2022-03-08T10:30:33Z</time>
      </trkpt>
      <trkpt lat="48.95757" lon="2.13688">
        <ele>38.2</ele>
        <time>2022-03-08T10:30:37Z</time>
      </trkpt>
      <trkpt lat="48.95754" lon="2.13682">
        <ele>38.4</ele>
        <time>2022-03-08T10:30:41Z</time>
      </trkpt>
      <trkpt lat="48.95751" lon="2.13676">
        <ele>37.9</ele>
        <time>2022-03-08T10:30:45Z</time>
      </trkpt>
      <trkpt lat="48.95748" lon="2.13669">
        <ele>36.2</ele>
        <time>2022-03-08T10:30:49Z</time>
      </trkpt>
      <trkpt lat="48.95746" lon="2.13662">
        <ele>35.1</ele>
        <time>2022-03-08T10:30:52Z</time>
      </trkpt>
      <trkpt lat="48.95744" lon="2.13654">
        <ele>34.6</ele>
        <time>2022-03-08T10:30:57Z</time>
      </trkpt>
      <trkpt lat="48.95744" lon="2.13646">
        <ele>35</ele>
        <time>2022-03-08T10:31:01Z</time>
      </trkpt>
      <trkpt lat="48.95746" lon="2.13639">
        <ele>36.2</ele>
        <time>2022-03-08T10:31:05Z</time>
      </trkpt>
      <trkpt lat="48.95749" lon="2.13633">
        <ele>37</ele>
        <time>2022-03-08T10:31:10Z</time>
      </trkpt>
      <trkpt lat="48.95752" lon="2.13627">
        <ele>37.2</ele>
        <time>2022-03-08T10:31:14Z</time>
      </trkpt>
      <trkpt lat="48.95756" lon="2.13622">
        <ele>36.8</ele>
        <time>2022-03-08T10:31:18Z</time>
      </trkpt>
      <trkpt lat="48.95761" lon="2.13618">
        <ele>37.2</ele>
        <time>2022-03-08T10:31:22Z</time>
      </trkpt>
      <trkpt lat="48.95764" lon="2.13613">
        <ele>38.4</ele>
        <time>2022-03-08T10:31:27Z</time>
      </trkpt>
      <trkpt lat="48.95766" lon="2.13605">
        <ele>38.5</ele>
        <time>2022-03-08T10:31:31Z</time>
      </trkpt>
      <trkpt lat="48.95766" lon="2.13598">
        <ele>38.5</ele>
        <time>2022-03-08T10:31:34Z</time>
      </trkpt>
      <trkpt lat="48.95764" lon="2.13591">
        <ele>38.1</ele>
        <time>2022-03-08T10:31:37Z</time>
      </trkpt>
      <trkpt lat="48.95763" lon="2.13584">
        <ele>38.3</ele>
        <time>2022-03-08T10:31:41Z</time>
      </trkpt>
      <trkpt lat="48.9576" lon="2.13577">
        <ele>38.3</ele>
        <time>2022-03-08T10:31:45Z</time>
      </trkpt>
      <trkpt lat="48.95763" lon="2.1357">
        <ele>39.1</ele>
        <time>2022-03-08T10:31:49Z</time>
      </trkpt>
      <trkpt lat="48.95766" lon="2.13563">
        <ele>41.5</ele>
        <time>2022-03-08T10:31:53Z</time>
      </trkpt>
      <trkpt lat="48.95765" lon="2.13554">
        <ele>43.7</ele>
        <time>2022-03-08T10:31:57Z</time>
      </trkpt>
      <trkpt lat="48.95764" lon="2.13546">
        <ele>43.8</ele>
        <time>2022-03-08T10:32:01Z</time>
      </trkpt>
      <trkpt lat="48.95765" lon="2.13538">
        <ele>43.5</ele>
        <time>2022-03-08T10:32:05Z</time>
      </trkpt>
      <trkpt lat="48.95765" lon="2.1353">
        <ele>43.7</ele>
        <time>2022-03-08T10:32:10Z</time>
      </trkpt>
      <trkpt lat="48.95765" lon="2.13522">
        <ele>44.6</ele>
        <time>2022-03-08T10:32:14Z</time>
      </trkpt>
      <trkpt lat="48.95766" lon="2.13514">
        <ele>45.8</ele>
        <time>2022-03-08T10:32:18Z</time>
      </trkpt>
      <trkpt lat="48.95767" lon="2.13508">
        <ele>46.3</ele>
        <time>2022-03-08T10:32:21Z</time>
      </trkpt>
      <trkpt lat="48.95768" lon="2.13499">
        <ele>45.3</ele>
        <time>2022-03-08T10:32:25Z</time>
      </trkpt>
      <trkpt lat="48.95768" lon="2.1349">
        <ele>44.5</ele>
        <time>2022-03-08T10:32:30Z</time>
      </trkpt>
      <trkpt lat="48.95768" lon="2.13483">
        <ele>44</ele>
        <time>2022-03-08T10:32:33Z</time>
      </trkpt>
      <trkpt lat="48.95768" lon="2.13476">
        <ele>43.9</ele>
        <time>2022-03-08T10:32:36Z</time>
      </trkpt>
      <trkpt lat="48.95766" lon="2.13469">
        <ele>43.6</ele>
        <time>2022-03-08T10:32:40Z</time>
      </trkpt>
      <trkpt lat="48.95765" lon="2.13462">
        <ele>43.7</ele>
        <time>2022-03-08T10:32:43Z</time>
      </trkpt>
      <trkpt lat="48.95764" lon="2.13454">
        <ele>44.3</ele>
        <time>2022-03-08T10:32:48Z</time>
      </trkpt>
      <trkpt lat="48.95761" lon="2.13445">
        <ele>44.5</ele>
        <time>2022-03-08T10:32:52Z</time>
      </trkpt>
      <trkpt lat="48.95757" lon="2.13439">
        <ele>43.4</ele>
        <time>2022-03-08T10:32:57Z</time>
      </trkpt>
      <trkpt lat="48.95752" lon="2.13435">
        <ele>40.7</ele>
        <time>2022-03-08T10:33:01Z</time>
      </trkpt>
      <trkpt lat="48.95748" lon="2.13432">
        <ele>39.1</ele>
        <time>2022-03-08T10:33:05Z</time>
      </trkpt>
      <trkpt lat="48.95743" lon="2.13429">
        <ele>38.1</ele>
        <time>2022-03-08T10:33:16Z</time>
      </trkpt>
      <trkpt lat="48.95739" lon="2.13424">
        <ele>37.9</ele>
        <time>2022-03-08T10:33:19Z</time>
      </trkpt>
      <trkpt lat="48.95735" lon="2.13419">
        <ele>39</ele>
        <time>2022-03-08T10:33:23Z</time>
      </trkpt>
      <trkpt lat="48.95731" lon="2.13413">
        <ele>40.5</ele>
        <time>2022-03-08T10:33:27Z</time>
      </trkpt>
      <trkpt lat="48.95726" lon="2.1341">
        <ele>39.9</ele>
        <time>2022-03-08T10:33:31Z</time>
      </trkpt>
      <trkpt lat="48.95722" lon="2.13406">
        <ele>38.6</ele>
        <time>2022-03-08T10:33:35Z</time>
      </trkpt>
      <trkpt lat="48.95716" lon="2.13405">
        <ele>38.5</ele>
        <time>2022-03-08T10:33:39Z</time>
      </trkpt>
      <trkpt lat="48.95711" lon="2.13402">
        <ele>38.4</ele>
        <time>2022-03-08T10:33:43Z</time>
      </trkpt>
      <trkpt lat="48.95706" lon="2.13398">
        <ele>38.1</ele>
        <time>2022-03-08T10:33:47Z</time>
      </trkpt>
      <trkpt lat="48.95702" lon="2.13394">
        <ele>37.4</ele>
        <time>2022-03-08T10:33:51Z</time>
      </trkpt>
      <trkpt lat="48.95697" lon="2.13391">
        <ele>37.9</ele>
        <time>2022-03-08T10:33:55Z</time>
      </trkpt>
      <trkpt lat="48.95693" lon="2.13386">
        <ele>39.9</ele>
        <time>2022-03-08T10:33:59Z</time>
      </trkpt>
      <trkpt lat="48.95688" lon="2.13381">
        <ele>41.4</ele>
        <time>2022-03-08T10:34:03Z</time>
      </trkpt>
      <trkpt lat="48.95683" lon="2.13378">
        <ele>41.5</ele>
        <time>2022-03-08T10:34:07Z</time>
      </trkpt>
      <trkpt lat="48.95679" lon="2.13373">
        <ele>40.2</ele>
        <time>2022-03-08T10:34:12Z</time>
      </trkpt>
      <trkpt lat="48.95674" lon="2.13368">
        <ele>38.7</ele>
        <time>2022-03-08T10:34:16Z</time>
      </trkpt>
      <trkpt lat="48.95669" lon="2.13365">
        <ele>37.6</ele>
        <time>2022-03-08T10:34:20Z</time>
      </trkpt>
      <trkpt lat="48.95664" lon="2.13362">
        <ele>37.2</ele>
        <time>2022-03-08T10:34:24Z</time>
      </trkpt>
      <trkpt lat="48.95659" lon="2.13362">
        <ele>37</ele>
        <time>2022-03-08T10:34:28Z</time>
      </trkpt>
      <trkpt lat="48.95654" lon="2.13363">
        <ele>37.1</ele>
        <time>2022-03-08T10:34:32Z</time>
      </trkpt>
      <trkpt lat="48.95648" lon="2.13361">
        <ele>37.9</ele>
        <time>2022-03-08T10:34:36Z</time>
      </trkpt>
      <trkpt lat="48.95643" lon="2.13358">
        <ele>38.5</ele>
        <time>2022-03-08T10:34:40Z</time>
      </trkpt>
      <trkpt lat="48.95639" lon="2.13355">
        <ele>38.1</ele>
        <time>2022-03-08T10:34:44Z</time>
      </trkpt>
      <trkpt lat="48.95636" lon="2.1335">
        <ele>37.8</ele>
        <time>2022-03-08T10:34:49Z</time>
      </trkpt>
      <trkpt lat="48.95632" lon="2.13347">
        <ele>37.6</ele>
        <time>2022-03-08T10:34:54Z</time>
      </trkpt>
      <trkpt lat="48.95632" lon="2.13338">
        <ele>37.2</ele>
        <time>2022-03-08T10:35:32Z</time>
      </trkpt>
      <trkpt lat="48.95628" lon="2.13333">
        <ele>36.3</ele>
        <time>2022-03-08T10:35:37Z</time>
      </trkpt>
      <trkpt lat="48.95624" lon="2.13331">
        <ele>35.5</ele>
        <time>2022-03-08T10:35:42Z</time>
      </trkpt>
      <trkpt lat="48.95621" lon="2.13326">
        <ele>35.4</ele>
        <time>2022-03-08T10:35:47Z</time>
      </trkpt>
      <trkpt lat="48.95618" lon="2.13319">
        <ele>36</ele>
        <time>2022-03-08T10:35:52Z</time>
      </trkpt>
      <trkpt lat="48.95613" lon="2.13319">
        <ele>35.8</ele>
        <time>2022-03-08T10:35:57Z</time>
      </trkpt>
      <trkpt lat="48.95608" lon="2.13317">
        <ele>34.2</ele>
        <time>2022-03-08T10:36:01Z</time>
      </trkpt>
      <trkpt lat="48.95602" lon="2.13313">
        <ele>32.8</ele>
        <time>2022-03-08T10:36:05Z</time>
      </trkpt>
      <trkpt lat="48.95598" lon="2.1331">
        <ele>32.3</ele>
        <time>2022-03-08T10:36:10Z</time>
      </trkpt>
      <trkpt lat="48.95592" lon="2.13307">
        <ele>32</ele>
        <time>2022-03-08T10:36:14Z</time>
      </trkpt>
      <trkpt lat="48.95588" lon="2.13305">
        <ele>31.5</ele>
        <time>2022-03-08T10:36:18Z</time>
      </trkpt>
      <trkpt lat="48.95584" lon="2.13302">
        <ele>31.2</ele>
        <time>2022-03-08T10:36:22Z</time>
      </trkpt>
      <trkpt lat="48.9558" lon="2.13296">
        <ele>31.3</ele>
        <time>2022-03-08T10:36:26Z</time>
      </trkpt>
      <trkpt lat="48.95575" lon="2.13293">
        <ele>31.6</ele>
        <time>2022-03-08T10:36:31Z</time>
      </trkpt>
      <trkpt lat="48.95571" lon="2.13289">
        <ele>31.7</ele>
        <time>2022-03-08T10:36:35Z</time>
      </trkpt>
      <trkpt lat="48.95567" lon="2.13285">
        <ele>30.9</ele>
        <time>2022-03-08T10:36:38Z</time>
      </trkpt>
      <trkpt lat="48.95562" lon="2.13281">
        <ele>29.8</ele>
        <time>2022-03-08T10:36:42Z</time>
      </trkpt>
      <trkpt lat="48.95557" lon="2.13278">
        <ele>29.6</ele>
        <time>2022-03-08T10:36:47Z</time>
      </trkpt>
      <trkpt lat="48.95552" lon="2.13273">
        <ele>31.1</ele>
        <time>2022-03-08T10:36:51Z</time>
      </trkpt>
      <trkpt lat="48.95548" lon="2.13268">
        <ele>33</ele>
        <time>2022-03-08T10:36:55Z</time>
      </trkpt>
      <trkpt lat="48.95543" lon="2.13264">
        <ele>33.9</ele>
        <time>2022-03-08T10:36:59Z</time>
      </trkpt>
      <trkpt lat="48.95539" lon="2.13261">
        <ele>33.9</ele>
        <time>2022-03-08T10:37:03Z</time>
      </trkpt>
      <trkpt lat="48.95534" lon="2.13257">
        <ele>34.2</ele>
        <time>2022-03-08T10:37:08Z</time>
      </trkpt>
      <trkpt lat="48.95529" lon="2.13254">
        <ele>34.6</ele>
        <time>2022-03-08T10:37:13Z</time>
      </trkpt>
      <trkpt lat="48.95524" lon="2.13251">
        <ele>34.4</ele>
        <time>2022-03-08T10:37:16Z</time>
      </trkpt>
      <trkpt lat="48.95519" lon="2.13247">
        <ele>34.5</ele>
        <time>2022-03-08T10:37:21Z</time>
      </trkpt>
      <trkpt lat="48.95516" lon="2.13243">
        <ele>34.5</ele>
        <time>2022-03-08T10:37:24Z</time>
      </trkpt>
      <trkpt lat="48.95511" lon="2.13238">
        <ele>34.8</ele>
        <time>2022-03-08T10:37:28Z</time>
      </trkpt>
      <trkpt lat="48.95507" lon="2.13234">
        <ele>35.4</ele>
        <time>2022-03-08T10:37:32Z</time>
      </trkpt>
      <trkpt lat="48.95503" lon="2.13229">
        <ele>36</ele>
        <time>2022-03-08T10:37:36Z</time>
      </trkpt>
      <trkpt lat="48.95499" lon="2.13225">
        <ele>35.9</ele>
        <time>2022-03-08T10:37:40Z</time>
      </trkpt>
      <trkpt lat="48.95495" lon="2.13221">
        <ele>35.8</ele>
        <time>2022-03-08T10:37:44Z</time>
      </trkpt>
      <trkpt lat="48.95491" lon="2.13215">
        <ele>36.9</ele>
        <time>2022-03-08T10:37:48Z</time>
      </trkpt>
      <trkpt lat="48.95488" lon="2.1321">
        <ele>38</ele>
        <time>2022-03-08T10:37:51Z</time>
      </trkpt>
      <trkpt lat="48.95483" lon="2.13206">
        <ele>37.8</ele>
        <time>2022-03-08T10:37:56Z</time>
      </trkpt>
      <trkpt lat="48.95478" lon="2.13203">
        <ele>36.8</ele>
        <time>2022-03-08T10:38:00Z</time>
      </trkpt>
      <trkpt lat="48.95473" lon="2.13201">
        <ele>36.2</ele>
        <time>2022-03-08T10:38:04Z</time>
      </trkpt>
      <trkpt lat="48.95468" lon="2.13199">
        <ele>36.1</ele>
        <time>2022-03-08T10:38:09Z</time>
      </trkpt>
      <trkpt lat="48.95464" lon="2.13195">
        <ele>36.7</ele>
        <time>2022-03-08T10:38:12Z</time>
      </trkpt>
      <trkpt lat="48.9546" lon="2.13192">
        <ele>37.5</ele>
        <time>2022-03-08T10:38:17Z</time>
      </trkpt>
      <trkpt lat="48.95455" lon="2.13188">
        <ele>38.9</ele>
        <time>2022-03-08T10:38:21Z</time>
      </trkpt>
      <trkpt lat="48.95451" lon="2.13183">
        <ele>40.8</ele>
        <time>2022-03-08T10:38:25Z</time>
      </trkpt>
      <trkpt lat="48.95446" lon="2.13177">
        <ele>41.8</ele>
        <time>2022-03-08T10:38:30Z</time>
      </trkpt>
      <trkpt lat="48.95441" lon="2.13174">
        <ele>41.6</ele>
        <time>2022-03-08T10:38:34Z</time>
      </trkpt>
      <trkpt lat="48.95437" lon="2.13172">
        <ele>40.9</ele>
        <time>2022-03-08T10:38:39Z</time>
      </trkpt>
      <trkpt lat="48.95432" lon="2.1317">
        <ele>40.5</ele>
        <time>2022-03-08T10:38:43Z</time>
      </trkpt>
      <trkpt lat="48.95428" lon="2.13166">
        <ele>40.5</ele>
        <time>2022-03-08T10:39:02Z</time>
      </trkpt>
      <trkpt lat="48.95425" lon="2.13172">
        <ele>43.9</ele>
        <time>2022-03-08T10:39:14Z</time>
      </trkpt>
      <trkpt lat="48.95419" lon="2.1317">
        <ele>44.7</ele>
        <time>2022-03-08T10:39:19Z</time>
      </trkpt>
      <trkpt lat="48.95415" lon="2.13166">
        <ele>45.2</ele>
        <time>2022-03-08T10:39:23Z</time>
      </trkpt>
      <trkpt lat="48.95412" lon="2.13161">
        <ele>44.5</ele>
        <time>2022-03-08T10:39:29Z</time>
      </trkpt>
      <trkpt lat="48.9541" lon="2.13155">
        <ele>44</ele>
        <time>2022-03-08T10:39:37Z</time>
      </trkpt>
      <trkpt lat="48.95414" lon="2.13151">
        <ele>45.5</ele>
        <time>2022-03-08T10:39:41Z</time>
      </trkpt>
      <trkpt lat="48.95413" lon="2.13143">
        <ele>46.3</ele>
        <time>2022-03-08T10:39:49Z</time>
      </trkpt>
      <trkpt lat="48.9541" lon="2.13138">
        <ele>41.2</ele>
        <time>2022-03-08T10:40:00Z</time>
      </trkpt>
      <trkpt lat="48.95407" lon="2.13142">
        <ele>33.4</ele>
        <time>2022-03-08T10:40:09Z</time>
      </trkpt>
      <trkpt lat="48.95404" lon="2.13149">
        <ele>32.8</ele>
        <time>2022-03-08T10:40:11Z</time>
      </trkpt>
      <trkpt lat="48.95404" lon="2.13156">
        <ele>33</ele>
        <time>2022-03-08T10:40:12Z</time>
      </trkpt>
      <trkpt lat="48.95403" lon="2.13165">
        <ele>34</ele>
        <time>2022-03-08T10:40:15Z</time>
      </trkpt>
      <trkpt lat="48.95399" lon="2.13174">
        <ele>37.5</ele>
        <time>2022-03-08T10:40:18Z</time>
      </trkpt>
      <trkpt lat="48.95394" lon="2.13181">
        <ele>40.3</ele>
        <time>2022-03-08T10:40:22Z</time>
      </trkpt>
      <trkpt lat="48.95391" lon="2.13186">
        <ele>42</ele>
        <time>2022-03-08T10:40:26Z</time>
      </trkpt>
      <trkpt lat="48.95387" lon="2.1319">
        <ele>42.5</ele>
        <time>2022-03-08T10:40:28Z</time>
      </trkpt>
      <trkpt lat="48.9538" lon="2.13194">
        <ele>43.1</ele>
        <time>2022-03-08T10:40:31Z</time>
      </trkpt>
      <trkpt lat="48.95376" lon="2.13198">
        <ele>44.2</ele>
        <time>2022-03-08T10:40:34Z</time>
      </trkpt>
      <trkpt lat="48.95372" lon="2.13203">
        <ele>45.5</ele>
        <time>2022-03-08T10:40:37Z</time>
      </trkpt>
      <trkpt lat="48.95369" lon="2.13209">
        <ele>46.1</ele>
        <time>2022-03-08T10:40:41Z</time>
      </trkpt>
      <trkpt lat="48.95365" lon="2.13214">
        <ele>46.6</ele>
        <time>2022-03-08T10:40:44Z</time>
      </trkpt>
      <trkpt lat="48.95362" lon="2.13219">
        <ele>47.7</ele>
        <time>2022-03-08T10:40:47Z</time>
      </trkpt>
      <trkpt lat="48.95358" lon="2.13225">
        <ele>48.5</ele>
        <time>2022-03-08T10:40:51Z</time>
      </trkpt>
      <trkpt lat="48.95355" lon="2.13229">
        <ele>48.3</ele>
        <time>2022-03-08T10:40:55Z</time>
      </trkpt>
      <trkpt lat="48.95351" lon="2.13232">
        <ele>47.2</ele>
        <time>2022-03-08T10:40:58Z</time>
      </trkpt>
      <trkpt lat="48.95346" lon="2.13238">
        <ele>46.5</ele>
        <time>2022-03-08T10:41:03Z</time>
      </trkpt>
      <trkpt lat="48.95342" lon="2.13245">
        <ele>45</ele>
        <time>2022-03-08T10:41:07Z</time>
      </trkpt>
      <trkpt lat="48.95338" lon="2.13248">
        <ele>43.7</ele>
        <time>2022-03-08T10:41:10Z</time>
      </trkpt>
      <trkpt lat="48.95333" lon="2.13253">
        <ele>43.2</ele>
        <time>2022-03-08T10:41:15Z</time>
      </trkpt>
      <trkpt lat="48.95329" lon="2.13259">
        <ele>43.4</ele>
        <time>2022-03-08T10:41:18Z</time>
      </trkpt>
      <trkpt lat="48.95324" lon="2.13264">
        <ele>43.7</ele>
        <time>2022-03-08T10:41:22Z</time>
      </trkpt>
      <trkpt lat="48.95319" lon="2.13265">
        <ele>43.4</ele>
        <time>2022-03-08T10:41:26Z</time>
      </trkpt>
      <trkpt lat="48.95315" lon="2.13262">
        <ele>42.4</ele>
        <time>2022-03-08T10:41:29Z</time>
      </trkpt>
      <trkpt lat="48.9531" lon="2.13259">
        <ele>41.6</ele>
        <time>2022-03-08T10:41:33Z</time>
      </trkpt>
      <trkpt lat="48.95305" lon="2.13255">
        <ele>40.2</ele>
        <time>2022-03-08T10:41:37Z</time>
      </trkpt>
      <trkpt lat="48.953" lon="2.13252">
        <ele>38.9</ele>
        <time>2022-03-08T10:41:41Z</time>
      </trkpt>
      <trkpt lat="48.95295" lon="2.1325">
        <ele>38.3</ele>
        <time>2022-03-08T10:41:45Z</time>
      </trkpt>
      <trkpt lat="48.95289" lon="2.13249">
        <ele>39.2</ele>
        <time>2022-03-08T10:41:48Z</time>
      </trkpt>
      <trkpt lat="48.95284" lon="2.13248">
        <ele>40</ele>
        <time>2022-03-08T10:41:52Z</time>
      </trkpt>
      <trkpt lat="48.95279" lon="2.13249">
        <ele>39.4</ele>
        <time>2022-03-08T10:41:56Z</time>
      </trkpt>
      <trkpt lat="48.95274" lon="2.13248">
        <ele>38.6</ele>
        <time>2022-03-08T10:42:00Z</time>
      </trkpt>
      <trkpt lat="48.95268" lon="2.13247">
        <ele>36.9</ele>
        <time>2022-03-08T10:42:04Z</time>
      </trkpt>
      <trkpt lat="48.95264" lon="2.13243">
        <ele>35.6</ele>
        <time>2022-03-08T10:42:07Z</time>
      </trkpt>
      <trkpt lat="48.95259" lon="2.13241">
        <ele>35.3</ele>
        <time>2022-03-08T10:42:11Z</time>
      </trkpt>
      <trkpt lat="48.95255" lon="2.1324">
        <ele>33.6</ele>
        <time>2022-03-08T10:42:15Z</time>
      </trkpt>
      <trkpt lat="48.95249" lon="2.13237">
        <ele>32.1</ele>
        <time>2022-03-08T10:42:19Z</time>
      </trkpt>
      <trkpt lat="48.95245" lon="2.13236">
        <ele>31.1</ele>
        <time>2022-03-08T10:42:23Z</time>
      </trkpt>
      <trkpt lat="48.95239" lon="2.13235">
        <ele>29.9</ele>
        <time>2022-03-08T10:42:27Z</time>
      </trkpt>
      <trkpt lat="48.95234" lon="2.13233">
        <ele>28.4</ele>
        <time>2022-03-08T10:42:30Z</time>
      </trkpt>
      <trkpt lat="48.95227" lon="2.13231">
        <ele>28.2</ele>
        <time>2022-03-08T10:42:38Z</time>
      </trkpt>
      <trkpt lat="48.95222" lon="2.13228">
        <ele>29.5</ele>
        <time>2022-03-08T10:42:41Z</time>
      </trkpt>
      <trkpt lat="48.95217" lon="2.13224">
        <ele>32.4</ele>
        <time>2022-03-08T10:42:44Z</time>
      </trkpt>
      <trkpt lat="48.95199" lon="2.13206">
        <ele>42.7</ele>
        <time>2022-03-08T10:42:57Z</time>
      </trkpt>
      <trkpt lat="48.95194" lon="2.13204">
        <ele>43.7</ele>
        <time>2022-03-08T10:43:01Z</time>
      </trkpt>
      <trkpt lat="48.95188" lon="2.132">
        <ele>44.5</ele>
        <time>2022-03-08T10:43:05Z</time>
      </trkpt>
      <trkpt lat="48.95183" lon="2.13198">
        <ele>44.5</ele>
        <time>2022-03-08T10:43:08Z</time>
      </trkpt>
      <trkpt lat="48.95178" lon="2.13196">
        <ele>44.2</ele>
        <time>2022-03-08T10:43:12Z</time>
      </trkpt>
      <trkpt lat="48.95174" lon="2.13193">
        <ele>44.6</ele>
        <time>2022-03-08T10:43:15Z</time>
      </trkpt>
      <trkpt lat="48.95168" lon="2.1319">
        <ele>45.6</ele>
        <time>2022-03-08T10:43:19Z</time>
      </trkpt>
      <trkpt lat="48.95164" lon="2.13188">
        <ele>46.3</ele>
        <time>2022-03-08T10:43:23Z</time>
      </trkpt>
      <trkpt lat="48.95158" lon="2.13186">
        <ele>46.2</ele>
        <time>2022-03-08T10:43:27Z</time>
      </trkpt>
      <trkpt lat="48.95154" lon="2.13184">
        <ele>45.9</ele>
        <time>2022-03-08T10:43:31Z</time>
      </trkpt>
      <trkpt lat="48.95148" lon="2.13181">
        <ele>44.6</ele>
        <time>2022-03-08T10:43:34Z</time>
      </trkpt>
      <trkpt lat="48.95143" lon="2.13179">
        <ele>43.2</ele>
        <time>2022-03-08T10:43:38Z</time>
      </trkpt>
      <trkpt lat="48.95138" lon="2.13178">
        <ele>42.6</ele>
        <time>2022-03-08T10:43:42Z</time>
      </trkpt>
      <trkpt lat="48.95133" lon="2.13174">
        <ele>43.3</ele>
        <time>2022-03-08T10:43:46Z</time>
      </trkpt>
      <trkpt lat="48.95128" lon="2.1317">
        <ele>44.6</ele>
        <time>2022-03-08T10:43:50Z</time>
      </trkpt>
      <trkpt lat="48.95124" lon="2.13166">
        <ele>44.9</ele>
        <time>2022-03-08T10:43:53Z</time>
      </trkpt>
      <trkpt lat="48.9512" lon="2.13162">
        <ele>44.8</ele>
        <time>2022-03-08T10:43:56Z</time>
      </trkpt>
      <trkpt lat="48.95116" lon="2.13159">
        <ele>44.6</ele>
        <time>2022-03-08T10:44:00Z</time>
      </trkpt>
      <trkpt lat="48.9511" lon="2.13157">
        <ele>44.9</ele>
        <time>2022-03-08T10:44:04Z</time>
      </trkpt>
      <trkpt lat="48.95106" lon="2.13155">
        <ele>45.6</ele>
        <time>2022-03-08T10:44:07Z</time>
      </trkpt>
      <trkpt lat="48.951" lon="2.13154">
        <ele>46.2</ele>
        <time>2022-03-08T10:44:12Z</time>
      </trkpt>
      <trkpt lat="48.95095" lon="2.13152">
        <ele>46.4</ele>
        <time>2022-03-08T10:44:15Z</time>
      </trkpt>
      <trkpt lat="48.9509" lon="2.1315">
        <ele>45.6</ele>
        <time>2022-03-08T10:44:19Z</time>
      </trkpt>
      <trkpt lat="48.95085" lon="2.13149">
        <ele>44.8</ele>
        <time>2022-03-08T10:44:23Z</time>
      </trkpt>
      <trkpt lat="48.9508" lon="2.13148">
        <ele>44.3</ele>
        <time>2022-03-08T10:44:27Z</time>
      </trkpt>
      <trkpt lat="48.95075" lon="2.13147">
        <ele>44</ele>
        <time>2022-03-08T10:44:31Z</time>
      </trkpt>
      <trkpt lat="48.9507" lon="2.13146">
        <ele>42.6</ele>
        <time>2022-03-08T10:44:34Z</time>
      </trkpt>
      <trkpt lat="48.95065" lon="2.13144">
        <ele>41.5</ele>
        <time>2022-03-08T10:44:38Z</time>
      </trkpt>
      <trkpt lat="48.9506" lon="2.13141">
        <ele>42.4</ele>
        <time>2022-03-08T10:44:42Z</time>
      </trkpt>
      <trkpt lat="48.95054" lon="2.13136">
        <ele>43.5</ele>
        <time>2022-03-08T10:44:47Z</time>
      </trkpt>
      <trkpt lat="48.95049" lon="2.1313">
        <ele>44.7</ele>
        <time>2022-03-08T10:44:51Z</time>
      </trkpt>
      <trkpt lat="48.95045" lon="2.13126">
        <ele>45.2</ele>
        <time>2022-03-08T10:44:54Z</time>
      </trkpt>
      <trkpt lat="48.9504" lon="2.13124">
        <ele>45.7</ele>
        <time>2022-03-08T10:44:58Z</time>
      </trkpt>
      <trkpt lat="48.95035" lon="2.13122">
        <ele>45.5</ele>
        <time>2022-03-08T10:45:01Z</time>
      </trkpt>
      <trkpt lat="48.9503" lon="2.13121">
        <ele>45.8</ele>
        <time>2022-03-08T10:45:05Z</time>
      </trkpt>
      <trkpt lat="48.95025" lon="2.13118">
        <ele>46.1</ele>
        <time>2022-03-08T10:45:09Z</time>
      </trkpt>
      <trkpt lat="48.9502" lon="2.13115">
        <ele>46.1</ele>
        <time>2022-03-08T10:45:12Z</time>
      </trkpt>
      <trkpt lat="48.95016" lon="2.13114">
        <ele>45.4</ele>
        <time>2022-03-08T10:45:16Z</time>
      </trkpt>
      <trkpt lat="48.95011" lon="2.13112">
        <ele>44.7</ele>
        <time>2022-03-08T10:45:20Z</time>
      </trkpt>
      <trkpt lat="48.95005" lon="2.13109">
        <ele>44.3</ele>
        <time>2022-03-08T10:45:25Z</time>
      </trkpt>
      <trkpt lat="48.95" lon="2.13106">
        <ele>44.7</ele>
        <time>2022-03-08T10:45:29Z</time>
      </trkpt>
      <trkpt lat="48.94995" lon="2.13103">
        <ele>45.5</ele>
        <time>2022-03-08T10:45:32Z</time>
      </trkpt>
      <trkpt lat="48.9499" lon="2.13101">
        <ele>46</ele>
        <time>2022-03-08T10:45:36Z</time>
      </trkpt>
      <trkpt lat="48.94985" lon="2.13098">
        <ele>46.1</ele>
        <time>2022-03-08T10:45:40Z</time>
      </trkpt>
      <trkpt lat="48.9498" lon="2.13095">
        <ele>46.5</ele>
        <time>2022-03-08T10:45:44Z</time>
      </trkpt>
      <trkpt lat="48.94975" lon="2.13092">
        <ele>47</ele>
        <time>2022-03-08T10:45:48Z</time>
      </trkpt>
      <trkpt lat="48.9497" lon="2.1309">
        <ele>47.5</ele>
        <time>2022-03-08T10:45:51Z</time>
      </trkpt>
      <trkpt lat="48.94965" lon="2.13088">
        <ele>48.1</ele>
        <time>2022-03-08T10:45:55Z</time>
      </trkpt>
      <trkpt lat="48.9496" lon="2.13086">
        <ele>48.9</ele>
        <time>2022-03-08T10:45:59Z</time>
      </trkpt>
      <trkpt lat="48.94955" lon="2.13083">
        <ele>48.5</ele>
        <time>2022-03-08T10:46:03Z</time>
      </trkpt>
      <trkpt lat="48.94949" lon="2.1308">
        <ele>47.1</ele>
        <time>2022-03-08T10:46:08Z</time>
      </trkpt>
      <trkpt lat="48.94944" lon="2.13078">
        <ele>46.2</ele>
        <time>2022-03-08T10:46:12Z</time>
      </trkpt>
      <trkpt lat="48.94939" lon="2.13077">
        <ele>45.4</ele>
        <time>2022-03-08T10:46:15Z</time>
      </trkpt>
      <trkpt lat="48.94933" lon="2.13077">
        <ele>44.3</ele>
        <time>2022-03-08T10:46:19Z</time>
      </trkpt>
      <trkpt lat="48.94928" lon="2.13077">
        <ele>42.7</ele>
        <time>2022-03-08T10:46:23Z</time>
      </trkpt>
      <trkpt lat="48.94924" lon="2.13075">
        <ele>41.6</ele>
        <time>2022-03-08T10:46:26Z</time>
      </trkpt>
      <trkpt lat="48.94919" lon="2.13073">
        <ele>41.3</ele>
        <time>2022-03-08T10:46:31Z</time>
      </trkpt>
      <trkpt lat="48.94914" lon="2.1307">
        <ele>41.2</ele>
        <time>2022-03-08T10:46:34Z</time>
      </trkpt>
      <trkpt lat="48.9491" lon="2.13069">
        <ele>41.7</ele>
        <time>2022-03-08T10:46:37Z</time>
      </trkpt>
      <trkpt lat="48.94905" lon="2.13067">
        <ele>42</ele>
        <time>2022-03-08T10:46:41Z</time>
      </trkpt>
      <trkpt lat="48.949" lon="2.13064">
        <ele>42.2</ele>
        <time>2022-03-08T10:46:45Z</time>
      </trkpt>
      <trkpt lat="48.94894" lon="2.13062">
        <ele>42.2</ele>
        <time>2022-03-08T10:46:49Z</time>
      </trkpt>
      <trkpt lat="48.94889" lon="2.1306">
        <ele>42.1</ele>
        <time>2022-03-08T10:46:54Z</time>
      </trkpt>
      <trkpt lat="48.94883" lon="2.13058">
        <ele>41.8</ele>
        <time>2022-03-08T10:46:59Z</time>
      </trkpt>
      <trkpt lat="48.94878" lon="2.13056">
        <ele>40.8</ele>
        <time>2022-03-08T10:47:02Z</time>
      </trkpt>
      <trkpt lat="48.94873" lon="2.13053">
        <ele>39.9</ele>
        <time>2022-03-08T10:47:06Z</time>
      </trkpt>
      <trkpt lat="48.94868" lon="2.13049">
        <ele>40.4</ele>
        <time>2022-03-08T10:47:10Z</time>
      </trkpt>
      <trkpt lat="48.94862" lon="2.13045">
        <ele>41.3</ele>
        <time>2022-03-08T10:47:14Z</time>
      </trkpt>
      <trkpt lat="48.94858" lon="2.13042">
        <ele>43.1</ele>
        <time>2022-03-08T10:47:18Z</time>
      </trkpt>
      <trkpt lat="48.94853" lon="2.13038">
        <ele>45.9</ele>
        <time>2022-03-08T10:47:22Z</time>
      </trkpt>
      <trkpt lat="48.94849" lon="2.13034">
        <ele>48.2</ele>
        <time>2022-03-08T10:47:26Z</time>
      </trkpt>
      <trkpt lat="48.94844" lon="2.13032">
        <ele>48.4</ele>
        <time>2022-03-08T10:47:30Z</time>
      </trkpt>
      <trkpt lat="48.9484" lon="2.13029">
        <ele>49.4</ele>
        <time>2022-03-08T10:47:34Z</time>
      </trkpt>
      <trkpt lat="48.94835" lon="2.13026">
        <ele>51</ele>
        <time>2022-03-08T10:47:37Z</time>
      </trkpt>
      <trkpt lat="48.94829" lon="2.13025">
        <ele>50.9</ele>
        <time>2022-03-08T10:47:41Z</time>
      </trkpt>
      <trkpt lat="48.94823" lon="2.13024">
        <ele>49.7</ele>
        <time>2022-03-08T10:47:45Z</time>
      </trkpt>
      <trkpt lat="48.94819" lon="2.13022">
        <ele>48.6</ele>
        <time>2022-03-08T10:47:49Z</time>
      </trkpt>
      <trkpt lat="48.94814" lon="2.13019">
        <ele>48</ele>
        <time>2022-03-08T10:47:53Z</time>
      </trkpt>
      <trkpt lat="48.94809" lon="2.13016">
        <ele>47</ele>
        <time>2022-03-08T10:47:57Z</time>
      </trkpt>
      <trkpt lat="48.94805" lon="2.13013">
        <ele>47</ele>
        <time>2022-03-08T10:48:00Z</time>
      </trkpt>
      <trkpt lat="48.948" lon="2.1301">
        <ele>48</ele>
        <time>2022-03-08T10:48:04Z</time>
      </trkpt>
      <trkpt lat="48.94795" lon="2.13005">
        <ele>50.2</ele>
        <time>2022-03-08T10:48:08Z</time>
      </trkpt>
      <trkpt lat="48.9479" lon="2.13004">
        <ele>50.7</ele>
        <time>2022-03-08T10:48:12Z</time>
      </trkpt>
      <trkpt lat="48.94785" lon="2.13002">
        <ele>50.8</ele>
        <time>2022-03-08T10:48:15Z</time>
      </trkpt>
      <trkpt lat="48.94781" lon="2.13001">
        <ele>50.8</ele>
        <time>2022-03-08T10:48:19Z</time>
      </trkpt>
      <trkpt lat="48.94776" lon="2.13">
        <ele>50.8</ele>
        <time>2022-03-08T10:48:23Z</time>
      </trkpt>
      <trkpt lat="48.94771" lon="2.12996">
        <ele>51.1</ele>
        <time>2022-03-08T10:48:27Z</time>
      </trkpt>
      <trkpt lat="48.94766" lon="2.12993">
        <ele>50.9</ele>
        <time>2022-03-08T10:48:31Z</time>
      </trkpt>
      <trkpt lat="48.94761" lon="2.1299">
        <ele>50.4</ele>
        <time>2022-03-08T10:48:35Z</time>
      </trkpt>
      <trkpt lat="48.94756" lon="2.12988">
        <ele>51.3</ele>
        <time>2022-03-08T10:48:39Z</time>
      </trkpt>
      <trkpt lat="48.94751" lon="2.12984">
        <ele>52.6</ele>
        <time>2022-03-08T10:48:43Z</time>
      </trkpt>
      <trkpt lat="48.94745" lon="2.12983">
        <ele>53.4</ele>
        <time>2022-03-08T10:48:47Z</time>
      </trkpt>
      <trkpt lat="48.94741" lon="2.12982">
        <ele>53.9</ele>
        <time>2022-03-08T10:48:52Z</time>
      </trkpt>
      <trkpt lat="48.94736" lon="2.12981">
        <ele>53.6</ele>
        <time>2022-03-08T10:48:56Z</time>
      </trkpt>
      <trkpt lat="48.94731" lon="2.12981">
        <ele>52.1</ele>
        <time>2022-03-08T10:49:00Z</time>
      </trkpt>
      <trkpt lat="48.94726" lon="2.12978">
        <ele>50.3</ele>
        <time>2022-03-08T10:49:04Z</time>
      </trkpt>
      <trkpt lat="48.94721" lon="2.12977">
        <ele>49.4</ele>
        <time>2022-03-08T10:49:08Z</time>
      </trkpt>
      <trkpt lat="48.94716" lon="2.12974">
        <ele>48.8</ele>
        <time>2022-03-08T10:49:12Z</time>
      </trkpt>
      <trkpt lat="48.94713" lon="2.1297">
        <ele>49.1</ele>
        <time>2022-03-08T10:49:14Z</time>
      </trkpt>
      <trkpt lat="48.94709" lon="2.12967">
        <ele>50.1</ele>
        <time>2022-03-08T10:49:17Z</time>
      </trkpt>
      <trkpt lat="48.94704" lon="2.12963">
        <ele>52.2</ele>
        <time>2022-03-08T10:49:21Z</time>
      </trkpt>
      <trkpt lat="48.94698" lon="2.1296">
        <ele>54.5</ele>
        <time>2022-03-08T10:49:25Z</time>
      </trkpt>
      <trkpt lat="48.94693" lon="2.12957">
        <ele>54.8</ele>
        <time>2022-03-08T10:49:29Z</time>
      </trkpt>
      <trkpt lat="48.94688" lon="2.12954">
        <ele>53</ele>
        <time>2022-03-08T10:49:33Z</time>
      </trkpt>
      <trkpt lat="48.94683" lon="2.12951">
        <ele>51.3</ele>
        <time>2022-03-08T10:49:37Z</time>
      </trkpt>
      <trkpt lat="48.94677" lon="2.1295">
        <ele>50.9</ele>
        <time>2022-03-08T10:49:41Z</time>
      </trkpt>
      <trkpt lat="48.94672" lon="2.12949">
        <ele>50.4</ele>
        <time>2022-03-08T10:49:45Z</time>
      </trkpt>
      <trkpt lat="48.94667" lon="2.12947">
        <ele>50</ele>
        <time>2022-03-08T10:49:49Z</time>
      </trkpt>
      <trkpt lat="48.94662" lon="2.12945">
        <ele>50.2</ele>
        <time>2022-03-08T10:49:53Z</time>
      </trkpt>
      <trkpt lat="48.94656" lon="2.12943">
        <ele>51.1</ele>
        <time>2022-03-08T10:49:57Z</time>
      </trkpt>
      <trkpt lat="48.94652" lon="2.1294">
        <ele>52.4</ele>
        <time>2022-03-08T10:50:01Z</time>
      </trkpt>
      <trkpt lat="48.94647" lon="2.12936">
        <ele>52.8</ele>
        <time>2022-03-08T10:50:05Z</time>
      </trkpt>
      <trkpt lat="48.94642" lon="2.12933">
        <ele>52.2</ele>
        <time>2022-03-08T10:50:09Z</time>
      </trkpt>
      <trkpt lat="48.94637" lon="2.1293">
        <ele>51.7</ele>
        <time>2022-03-08T10:50:13Z</time>
      </trkpt>
      <trkpt lat="48.94632" lon="2.12927">
        <ele>52</ele>
        <time>2022-03-08T10:50:17Z</time>
      </trkpt>
      <trkpt lat="48.94627" lon="2.12923">
        <ele>53.2</ele>
        <time>2022-03-08T10:50:21Z</time>
      </trkpt>
      <trkpt lat="48.94623" lon="2.1292">
        <ele>54.9</ele>
        <time>2022-03-08T10:50:25Z</time>
      </trkpt>
      <trkpt lat="48.94618" lon="2.12917">
        <ele>56.4</ele>
        <time>2022-03-08T10:50:29Z</time>
      </trkpt>
      <trkpt lat="48.94613" lon="2.12915">
        <ele>56.6</ele>
        <time>2022-03-08T10:50:33Z</time>
      </trkpt>
      <trkpt lat="48.94608" lon="2.12912">
        <ele>56.4</ele>
        <time>2022-03-08T10:50:37Z</time>
      </trkpt>
      <trkpt lat="48.94603" lon="2.12911">
        <ele>55.8</ele>
        <time>2022-03-08T10:50:41Z</time>
      </trkpt>
      <trkpt lat="48.94597" lon="2.12911">
        <ele>54.5</ele>
        <time>2022-03-08T10:50:45Z</time>
      </trkpt>
      <trkpt lat="48.94592" lon="2.12911">
        <ele>52.7</ele>
        <time>2022-03-08T10:50:49Z</time>
      </trkpt>
      <trkpt lat="48.94587" lon="2.12911">
        <ele>51.6</ele>
        <time>2022-03-08T10:50:53Z</time>
      </trkpt>
      <trkpt lat="48.94582" lon="2.1291">
        <ele>52.2</ele>
        <time>2022-03-08T10:50:57Z</time>
      </trkpt>
      <trkpt lat="48.94577" lon="2.12906">
        <ele>53.6</ele>
        <time>2022-03-08T10:51:01Z</time>
      </trkpt>
      <trkpt lat="48.94573" lon="2.12904">
        <ele>54.1</ele>
        <time>2022-03-08T10:51:04Z</time>
      </trkpt>
      <trkpt lat="48.94569" lon="2.12902">
        <ele>53.9</ele>
        <time>2022-03-08T10:51:08Z</time>
      </trkpt>
      <trkpt lat="48.94564" lon="2.12898">
        <ele>53.8</ele>
        <time>2022-03-08T10:51:11Z</time>
      </trkpt>
      <trkpt lat="48.9456" lon="2.12894">
        <ele>54.1</ele>
        <time>2022-03-08T10:51:15Z</time>
      </trkpt>
      <trkpt lat="48.94556" lon="2.12891">
        <ele>54.9</ele>
        <time>2022-03-08T10:51:19Z</time>
      </trkpt>
      <trkpt lat="48.9455" lon="2.12889">
        <ele>55</ele>
        <time>2022-03-08T10:51:23Z</time>
      </trkpt>
      <trkpt lat="48.94545" lon="2.12885">
        <ele>54.9</ele>
        <time>2022-03-08T10:51:27Z</time>
      </trkpt>
      <trkpt lat="48.94541" lon="2.12881">
        <ele>55.6</ele>
        <time>2022-03-08T10:51:31Z</time>
      </trkpt>
      <trkpt lat="48.94535" lon="2.12879">
        <ele>55.1</ele>
        <time>2022-03-08T10:51:35Z</time>
      </trkpt>
      <trkpt lat="48.94531" lon="2.12878">
        <ele>54</ele>
        <time>2022-03-08T10:51:39Z</time>
      </trkpt>
      <trkpt lat="48.94526" lon="2.12876">
        <ele>53.9</ele>
        <time>2022-03-08T10:51:43Z</time>
      </trkpt>
      <trkpt lat="48.94521" lon="2.12874">
        <ele>55.5</ele>
        <time>2022-03-08T10:51:47Z</time>
      </trkpt>
      <trkpt lat="48.94516" lon="2.12871">
        <ele>57.4</ele>
        <time>2022-03-08T10:51:51Z</time>
      </trkpt>
      <trkpt lat="48.94511" lon="2.12868">
        <ele>58.1</ele>
        <time>2022-03-08T10:51:54Z</time>
      </trkpt>
      <trkpt lat="48.94506" lon="2.12865">
        <ele>57.6</ele>
        <time>2022-03-08T10:51:58Z</time>
      </trkpt>
      <trkpt lat="48.94501" lon="2.12864">
        <ele>57.6</ele>
        <time>2022-03-08T10:52:02Z</time>
      </trkpt>
      <trkpt lat="48.94496" lon="2.12863">
        <ele>58.6</ele>
        <time>2022-03-08T10:52:06Z</time>
      </trkpt>
      <trkpt lat="48.94491" lon="2.12861">
        <ele>59.1</ele>
        <time>2022-03-08T10:52:10Z</time>
      </trkpt>
      <trkpt lat="48.94486" lon="2.12859">
        <ele>59.5</ele>
        <time>2022-03-08T10:52:13Z</time>
      </trkpt>
      <trkpt lat="48.94481" lon="2.12856">
        <ele>59</ele>
        <time>2022-03-08T10:52:18Z</time>
      </trkpt>
      <trkpt lat="48.94476" lon="2.12855">
        <ele>58.6</ele>
        <time>2022-03-08T10:52:21Z</time>
      </trkpt>
      <trkpt lat="48.94472" lon="2.12854">
        <ele>57.9</ele>
        <time>2022-03-08T10:52:24Z</time>
      </trkpt>
      <trkpt lat="48.94467" lon="2.12853">
        <ele>57.3</ele>
        <time>2022-03-08T10:52:28Z</time>
      </trkpt>
      <trkpt lat="48.94462" lon="2.12851">
        <ele>57.3</ele>
        <time>2022-03-08T10:52:32Z</time>
      </trkpt>
      <trkpt lat="48.94456" lon="2.12849">
        <ele>58</ele>
        <time>2022-03-08T10:52:35Z</time>
      </trkpt>
      <trkpt lat="48.94452" lon="2.12846">
        <ele>58.4</ele>
        <time>2022-03-08T10:52:39Z</time>
      </trkpt>
      <trkpt lat="48.94446" lon="2.12844">
        <ele>58.7</ele>
        <time>2022-03-08T10:52:43Z</time>
      </trkpt>
      <trkpt lat="48.94442" lon="2.12841">
        <ele>58.8</ele>
        <time>2022-03-08T10:52:47Z</time>
      </trkpt>
      <trkpt lat="48.94437" lon="2.12839">
        <ele>57.9</ele>
        <time>2022-03-08T10:52:51Z</time>
      </trkpt>
      <trkpt lat="48.94433" lon="2.12837">
        <ele>55.9</ele>
        <time>2022-03-08T10:52:55Z</time>
      </trkpt>
      <trkpt lat="48.94428" lon="2.12833">
        <ele>54.6</ele>
        <time>2022-03-08T10:52:59Z</time>
      </trkpt>
      <trkpt lat="48.94423" lon="2.12832">
        <ele>54.7</ele>
        <time>2022-03-08T10:53:03Z</time>
      </trkpt>
      <trkpt lat="48.94418" lon="2.12829">
        <ele>55.7</ele>
        <time>2022-03-08T10:53:07Z</time>
      </trkpt>
      <trkpt lat="48.94413" lon="2.12826">
        <ele>55.7</ele>
        <time>2022-03-08T10:53:11Z</time>
      </trkpt>
      <trkpt lat="48.94408" lon="2.12823">
        <ele>55.8</ele>
        <time>2022-03-08T10:53:15Z</time>
      </trkpt>
      <trkpt lat="48.94403" lon="2.1282">
        <ele>55.8</ele>
        <time>2022-03-08T10:53:20Z</time>
      </trkpt>
      <trkpt lat="48.94398" lon="2.12816">
        <ele>55.9</ele>
        <time>2022-03-08T10:53:24Z</time>
      </trkpt>
      <trkpt lat="48.94393" lon="2.12814">
        <ele>56.2</ele>
        <time>2022-03-08T10:53:28Z</time>
      </trkpt>
      <trkpt lat="48.94388" lon="2.1281">
        <ele>56.4</ele>
        <time>2022-03-08T10:53:33Z</time>
      </trkpt>
      <trkpt lat="48.94383" lon="2.12807">
        <ele>55.7</ele>
        <time>2022-03-08T10:53:37Z</time>
      </trkpt>
      <trkpt lat="48.94378" lon="2.12804">
        <ele>55.2</ele>
        <time>2022-03-08T10:53:41Z</time>
      </trkpt>
      <trkpt lat="48.94374" lon="2.12801">
        <ele>55.7</ele>
        <time>2022-03-08T10:53:45Z</time>
      </trkpt>
      <trkpt lat="48.94368" lon="2.12798">
        <ele>56.9</ele>
        <time>2022-03-08T10:53:50Z</time>
      </trkpt>
      <trkpt lat="48.94364" lon="2.12796">
        <ele>57</ele>
        <time>2022-03-08T10:53:54Z</time>
      </trkpt>
      <trkpt lat="48.94358" lon="2.12794">
        <ele>55.6</ele>
        <time>2022-03-08T10:53:59Z</time>
      </trkpt>
      <trkpt lat="48.94353" lon="2.12792">
        <ele>54.6</ele>
        <time>2022-03-08T10:54:03Z</time>
      </trkpt>
      <trkpt lat="48.9435" lon="2.12784">
        <ele>55.1</ele>
        <time>2022-03-08T10:54:07Z</time>
      </trkpt>
      <trkpt lat="48.9435" lon="2.12777">
        <ele>56.3</ele>
        <time>2022-03-08T10:54:10Z</time>
      </trkpt>
      <trkpt lat="48.94351" lon="2.1277">
        <ele>56.9</ele>
        <time>2022-03-08T10:54:13Z</time>
      </trkpt>
      <trkpt lat="48.94353" lon="2.12762">
        <ele>57.7</ele>
        <time>2022-03-08T10:54:17Z</time>
      </trkpt>
      <trkpt lat="48.94352" lon="2.12754">
        <ele>58.1</ele>
        <time>2022-03-08T10:54:22Z</time>
      </trkpt>
      <trkpt lat="48.9435" lon="2.12747">
        <ele>57.1</ele>
        <time>2022-03-08T10:54:27Z</time>
      </trkpt>
      <trkpt lat="48.94349" lon="2.1274">
        <ele>55.4</ele>
        <time>2022-03-08T10:54:30Z</time>
      </trkpt>
      <trkpt lat="48.9435" lon="2.12732">
        <ele>54.5</ele>
        <time>2022-03-08T10:54:36Z</time>
      </trkpt>
      <trkpt lat="48.94355" lon="2.12733">
        <ele>55.4</ele>
        <time>2022-03-08T10:54:49Z</time>
      </trkpt>
      <trkpt lat="48.94352" lon="2.1274">
        <ele>51.1</ele>
        <time>2022-03-08T10:55:15Z</time>
      </trkpt>
      <trkpt lat="48.94347" lon="2.1274">
        <ele>51.4</ele>
        <time>2022-03-08T10:55:21Z</time>
      </trkpt>
      <trkpt lat="48.94342" lon="2.12737">
        <ele>51.9</ele>
        <time>2022-03-08T10:55:25Z</time>
      </trkpt>
      <trkpt lat="48.94338" lon="2.12735">
        <ele>54</ele>
        <time>2022-03-08T10:55:40Z</time>
      </trkpt>
      <trkpt lat="48.94333" lon="2.12732">
        <ele>54.7</ele>
        <time>2022-03-08T10:55:43Z</time>
      </trkpt>
      <trkpt lat="48.94338" lon="2.12732">
        <ele>54.4</ele>
        <time>2022-03-08T10:56:08Z</time>
      </trkpt>
      <trkpt lat="48.94341" lon="2.12737">
        <ele>54.6</ele>
        <time>2022-03-08T10:57:16Z</time>
      </trkpt>
      <trkpt lat="48.94337" lon="2.12733">
        <ele>51.2</ele>
        <time>2022-03-08T10:58:09Z</time>
      </trkpt>
      <trkpt lat="48.94338" lon="2.12724">
        <ele>51.4</ele>
        <time>2022-03-08T10:58:15Z</time>
      </trkpt>
      <trkpt lat="48.94338" lon="2.12716">
        <ele>51.5</ele>
        <time>2022-03-08T10:58:19Z</time>
      </trkpt>
      <trkpt lat="48.94339" lon="2.12709">
        <ele>51.7</ele>
        <time>2022-03-08T10:58:26Z</time>
      </trkpt>
      <trkpt lat="48.9434" lon="2.12701">
        <ele>51.7</ele>
        <time>2022-03-08T10:58:29Z</time>
      </trkpt>
      <trkpt lat="48.9434" lon="2.12693">
        <ele>51.3</ele>
        <time>2022-03-08T10:58:33Z</time>
      </trkpt>
      <trkpt lat="48.94341" lon="2.12684">
        <ele>51.1</ele>
        <time>2022-03-08T10:58:37Z</time>
      </trkpt>
      <trkpt lat="48.94341" lon="2.12676">
        <ele>51.6</ele>
        <time>2022-03-08T10:58:41Z</time>
      </trkpt>
      <trkpt lat="48.94342" lon="2.12668">
        <ele>52.3</ele>
        <time>2022-03-08T10:58:45Z</time>
      </trkpt>
      <trkpt lat="48.94343" lon="2.12661">
        <ele>52.8</ele>
        <time>2022-03-08T10:58:48Z</time>
      </trkpt>
      <trkpt lat="48.94344" lon="2.12652">
        <ele>54</ele>
        <time>2022-03-08T10:58:52Z</time>
      </trkpt>
      <trkpt lat="48.94345" lon="2.12644">
        <ele>54.7</ele>
        <time>2022-03-08T10:58:56Z</time>
      </trkpt>
      <trkpt lat="48.94346" lon="2.12636">
        <ele>55.3</ele>
        <time>2022-03-08T10:59:00Z</time>
      </trkpt>
      <trkpt lat="48.94346" lon="2.12628">
        <ele>57.1</ele>
        <time>2022-03-08T10:59:04Z</time>
      </trkpt>
      <trkpt lat="48.94344" lon="2.1262">
        <ele>58.5</ele>
        <time>2022-03-08T10:59:08Z</time>
      </trkpt>
      <trkpt lat="48.94343" lon="2.12611">
        <ele>58.5</ele>
        <time>2022-03-08T10:59:13Z</time>
      </trkpt>
      <trkpt lat="48.94344" lon="2.12602">
        <ele>57.8</ele>
        <time>2022-03-08T10:59:17Z</time>
      </trkpt>
      <trkpt lat="48.94344" lon="2.12595">
        <ele>56.8</ele>
        <time>2022-03-08T10:59:21Z</time>
      </trkpt>
      <trkpt lat="48.94345" lon="2.12586">
        <ele>55.7</ele>
        <time>2022-03-08T10:59:25Z</time>
      </trkpt>
      <trkpt lat="48.94345" lon="2.12578">
        <ele>55.2</ele>
        <time>2022-03-08T10:59:28Z</time>
      </trkpt>
      <trkpt lat="48.94344" lon="2.12571">
        <ele>54.4</ele>
        <time>2022-03-08T10:59:31Z</time>
      </trkpt>
      <trkpt lat="48.94344" lon="2.12562">
        <ele>53.3</ele>
        <time>2022-03-08T10:59:35Z</time>
      </trkpt>
      <trkpt lat="48.94343" lon="2.12554">
        <ele>52.7</ele>
        <time>2022-03-08T10:59:39Z</time>
      </trkpt>
      <trkpt lat="48.94343" lon="2.12546">
        <ele>53.2</ele>
        <time>2022-03-08T10:59:43Z</time>
      </trkpt>
      <trkpt lat="48.94343" lon="2.12538">
        <ele>53.4</ele>
        <time>2022-03-08T10:59:48Z</time>
      </trkpt>
      <trkpt lat="48.94343" lon="2.12531">
        <ele>53</ele>
        <time>2022-03-08T10:59:51Z</time>
      </trkpt>
      <trkpt lat="48.94344" lon="2.12524">
        <ele>52.7</ele>
        <time>2022-03-08T10:59:55Z</time>
      </trkpt>
      <trkpt lat="48.94345" lon="2.12516">
        <ele>53.2</ele>
        <time>2022-03-08T10:59:59Z</time>
      </trkpt>
      <trkpt lat="48.94346" lon="2.12507">
        <ele>53.9</ele>
        <time>2022-03-08T11:00:02Z</time>
      </trkpt>
      <trkpt lat="48.94347" lon="2.12499">
        <ele>53.2</ele>
        <time>2022-03-08T11:00:06Z</time>
      </trkpt>
      <trkpt lat="48.94348" lon="2.12491">
        <ele>52.2</ele>
        <time>2022-03-08T11:00:10Z</time>
      </trkpt>
      <trkpt lat="48.94347" lon="2.12484">
        <ele>52.1</ele>
        <time>2022-03-08T11:00:14Z</time>
      </trkpt>
      <trkpt lat="48.94347" lon="2.12477">
        <ele>52.3</ele>
        <time>2022-03-08T11:00:18Z</time>
      </trkpt>
      <trkpt lat="48.94348" lon="2.1247">
        <ele>52.5</ele>
        <time>2022-03-08T11:00:21Z</time>
      </trkpt>
      <trkpt lat="48.94348" lon="2.12463">
        <ele>52.5</ele>
        <time>2022-03-08T11:00:25Z</time>
      </trkpt>
      <trkpt lat="48.94348" lon="2.12456">
        <ele>52.3</ele>
        <time>2022-03-08T11:00:28Z</time>
      </trkpt>
      <trkpt lat="48.94348" lon="2.12449">
        <ele>51.7</ele>
        <time>2022-03-08T11:00:32Z</time>
      </trkpt>
      <trkpt lat="48.94348" lon="2.12442">
        <ele>50.8</ele>
        <time>2022-03-08T11:00:35Z</time>
      </trkpt>
      <trkpt lat="48.94348" lon="2.12434">
        <ele>50.5</ele>
        <time>2022-03-08T11:00:39Z</time>
      </trkpt>
      <trkpt lat="48.94348" lon="2.12425">
        <ele>50.7</ele>
        <time>2022-03-08T11:00:43Z</time>
      </trkpt>
      <trkpt lat="48.94348" lon="2.12416">
        <ele>51.2</ele>
        <time>2022-03-08T11:00:47Z</time>
      </trkpt>
      <trkpt lat="48.94348" lon="2.12408">
        <ele>51</ele>
        <time>2022-03-08T11:00:51Z</time>
      </trkpt>
      <trkpt lat="48.94348" lon="2.12401">
        <ele>51.3</ele>
        <time>2022-03-08T11:00:55Z</time>
      </trkpt>
      <trkpt lat="48.9435" lon="2.12393">
        <ele>52.2</ele>
        <time>2022-03-08T11:00:59Z</time>
      </trkpt>
      <trkpt lat="48.94351" lon="2.12385">
        <ele>54.1</ele>
        <time>2022-03-08T11:01:03Z</time>
      </trkpt>
      <trkpt lat="48.94352" lon="2.12377">
        <ele>55.2</ele>
        <time>2022-03-08T11:01:07Z</time>
      </trkpt>
      <trkpt lat="48.94353" lon="2.12369">
        <ele>56.1</ele>
        <time>2022-03-08T11:01:10Z</time>
      </trkpt>
      <trkpt lat="48.94353" lon="2.12361">
        <ele>56.5</ele>
        <time>2022-03-08T11:01:14Z</time>
      </trkpt>
      <trkpt lat="48.94354" lon="2.12353">
        <ele>57.3</ele>
        <time>2022-03-08T11:01:18Z</time>
      </trkpt>
      <trkpt lat="48.94355" lon="2.12345">
        <ele>58.1</ele>
        <time>2022-03-08T11:01:22Z</time>
      </trkpt>
      <trkpt lat="48.94354" lon="2.12337">
        <ele>59.2</ele>
        <time>2022-03-08T11:01:26Z</time>
      </trkpt>
      <trkpt lat="48.94354" lon="2.12329">
        <ele>60</ele>
        <time>2022-03-08T11:01:30Z</time>
      </trkpt>
      <trkpt lat="48.94354" lon="2.1232">
        <ele>60.7</ele>
        <time>2022-03-08T11:01:35Z</time>
      </trkpt>
      <trkpt lat="48.94354" lon="2.12311">
        <ele>60.3</ele>
        <time>2022-03-08T11:01:39Z</time>
      </trkpt>
      <trkpt lat="48.94354" lon="2.12303">
        <ele>60.6</ele>
        <time>2022-03-08T11:01:44Z</time>
      </trkpt>
      <trkpt lat="48.94352" lon="2.12296">
        <ele>60.9</ele>
        <time>2022-03-08T11:01:48Z</time>
      </trkpt>
      <trkpt lat="48.94353" lon="2.12288">
        <ele>60.3</ele>
        <time>2022-03-08T11:01:51Z</time>
      </trkpt>
      <trkpt lat="48.94353" lon="2.1228">
        <ele>59</ele>
        <time>2022-03-08T11:01:55Z</time>
      </trkpt>
      <trkpt lat="48.94355" lon="2.12272">
        <ele>58.5</ele>
        <time>2022-03-08T11:01:59Z</time>
      </trkpt>
      <trkpt lat="48.94356" lon="2.12263">
        <ele>58.2</ele>
        <time>2022-03-08T11:02:03Z</time>
      </trkpt>
      <trkpt lat="48.94356" lon="2.12255">
        <ele>58.9</ele>
        <time>2022-03-08T11:02:07Z</time>
      </trkpt>
      <trkpt lat="48.94357" lon="2.12247">
        <ele>59</ele>
        <time>2022-03-08T11:02:11Z</time>
      </trkpt>
      <trkpt lat="48.94357" lon="2.1224">
        <ele>58.2</ele>
        <time>2022-03-08T11:02:14Z</time>
      </trkpt>
      <trkpt lat="48.94357" lon="2.12233">
        <ele>57.9</ele>
        <time>2022-03-08T11:02:18Z</time>
      </trkpt>
      <trkpt lat="48.94355" lon="2.12226">
        <ele>59.3</ele>
        <time>2022-03-08T11:02:23Z</time>
      </trkpt>
      <trkpt lat="48.94352" lon="2.12232">
        <ele>61.2</ele>
        <time>2022-03-08T11:02:27Z</time>
      </trkpt>
      <trkpt lat="48.94347" lon="2.1224">
        <ele>62.1</ele>
        <time>2022-03-08T11:04:02Z</time>
      </trkpt>
      <trkpt lat="48.94347" lon="2.12233">
        <ele>60.1</ele>
        <time>2022-03-08T11:07:14Z</time>
      </trkpt>
      <trkpt lat="48.94352" lon="2.12227">
        <ele>59.1</ele>
        <time>2022-03-08T11:07:19Z</time>
      </trkpt>
      <trkpt lat="48.94354" lon="2.12219">
        <ele>58.7</ele>
        <time>2022-03-08T11:07:22Z</time>
      </trkpt>
      <trkpt lat="48.94354" lon="2.12211">
        <ele>59.1</ele>
        <time>2022-03-08T11:07:27Z</time>
      </trkpt>
      <trkpt lat="48.94354" lon="2.12204">
        <ele>60.1</ele>
        <time>2022-03-08T11:07:31Z</time>
      </trkpt>
      <trkpt lat="48.94354" lon="2.12195">
        <ele>60.1</ele>
        <time>2022-03-08T11:07:36Z</time>
      </trkpt>
      <trkpt lat="48.94353" lon="2.12188">
        <ele>59.8</ele>
        <time>2022-03-08T11:07:40Z</time>
      </trkpt>
      <trkpt lat="48.9435" lon="2.12181">
        <ele>59.4</ele>
        <time>2022-03-08T11:07:44Z</time>
      </trkpt>
      <trkpt lat="48.94351" lon="2.12173">
        <ele>59</ele>
        <time>2022-03-08T11:07:48Z</time>
      </trkpt>
      <trkpt lat="48.94352" lon="2.12164">
        <ele>58.4</ele>
        <time>2022-03-08T11:07:53Z</time>
      </trkpt>
      <trkpt lat="48.94354" lon="2.12156">
        <ele>58.6</ele>
        <time>2022-03-08T11:07:57Z</time>
      </trkpt>
      <trkpt lat="48.94355" lon="2.12149">
        <ele>58.7</ele>
        <time>2022-03-08T11:08:01Z</time>
      </trkpt>
      <trkpt lat="48.94355" lon="2.12141">
        <ele>58.5</ele>
        <time>2022-03-08T11:08:05Z</time>
      </trkpt>
      <trkpt lat="48.94354" lon="2.12133">
        <ele>57.7</ele>
        <time>2022-03-08T11:08:09Z</time>
      </trkpt>
      <trkpt lat="48.94354" lon="2.12125">
        <ele>56.6</ele>
        <time>2022-03-08T11:08:12Z</time>
      </trkpt>
      <trkpt lat="48.94355" lon="2.12117">
        <ele>55.3</ele>
        <time>2022-03-08T11:08:16Z</time>
      </trkpt>
      <trkpt lat="48.94355" lon="2.1211">
        <ele>55.1</ele>
        <time>2022-03-08T11:08:20Z</time>
      </trkpt>
      <trkpt lat="48.94355" lon="2.12102">
        <ele>55.6</ele>
        <time>2022-03-08T11:08:24Z</time>
      </trkpt>
      <trkpt lat="48.94355" lon="2.12094">
        <ele>55.7</ele>
        <time>2022-03-08T11:08:28Z</time>
      </trkpt>
      <trkpt lat="48.94355" lon="2.12086">
        <ele>56</ele>
        <time>2022-03-08T11:08:32Z</time>
      </trkpt>
      <trkpt lat="48.94355" lon="2.12078">
        <ele>56</ele>
        <time>2022-03-08T11:08:36Z</time>
      </trkpt>
      <trkpt lat="48.94356" lon="2.1207">
        <ele>56.3</ele>
        <time>2022-03-08T11:08:39Z</time>
      </trkpt>
      <trkpt lat="48.94357" lon="2.12062">
        <ele>55.8</ele>
        <time>2022-03-08T11:08:43Z</time>
      </trkpt>
      <trkpt lat="48.94358" lon="2.12054">
        <ele>55.7</ele>
        <time>2022-03-08T11:08:47Z</time>
      </trkpt>
      <trkpt lat="48.94359" lon="2.12047">
        <ele>56.3</ele>
        <time>2022-03-08T11:08:51Z</time>
      </trkpt>
      <trkpt lat="48.94359" lon="2.12038">
        <ele>55.6</ele>
        <time>2022-03-08T11:08:55Z</time>
      </trkpt>
      <trkpt lat="48.94359" lon="2.12031">
        <ele>55.6</ele>
        <time>2022-03-08T11:08:59Z</time>
      </trkpt>
      <trkpt lat="48.94359" lon="2.12024">
        <ele>55.8</ele>
        <time>2022-03-08T11:09:02Z</time>
      </trkpt>
      <trkpt lat="48.9436" lon="2.12016">
        <ele>56.1</ele>
        <time>2022-03-08T11:09:07Z</time>
      </trkpt>
      <trkpt lat="48.9436" lon="2.12009">
        <ele>55.4</ele>
        <time>2022-03-08T11:09:11Z</time>
      </trkpt>
      <trkpt lat="48.9436" lon="2.12001">
        <ele>53.6</ele>
        <time>2022-03-08T11:09:14Z</time>
      </trkpt>
      <trkpt lat="48.94359" lon="2.11993">
        <ele>53.1</ele>
        <time>2022-03-08T11:09:18Z</time>
      </trkpt>
      <trkpt lat="48.94359" lon="2.11985">
        <ele>54.2</ele>
        <time>2022-03-08T11:09:22Z</time>
      </trkpt>
      <trkpt lat="48.9436" lon="2.11978">
        <ele>55.3</ele>
        <time>2022-03-08T11:09:26Z</time>
      </trkpt>
      <trkpt lat="48.94361" lon="2.11969">
        <ele>56.4</ele>
        <time>2022-03-08T11:09:30Z</time>
      </trkpt>
      <trkpt lat="48.9436" lon="2.11961">
        <ele>56.7</ele>
        <time>2022-03-08T11:09:35Z</time>
      </trkpt>
      <trkpt lat="48.94361" lon="2.11953">
        <ele>56.2</ele>
        <time>2022-03-08T11:09:38Z</time>
      </trkpt>
      <trkpt lat="48.94361" lon="2.11944">
        <ele>55.5</ele>
        <time>2022-03-08T11:09:43Z</time>
      </trkpt>
      <trkpt lat="48.94361" lon="2.11936">
        <ele>55.4</ele>
        <time>2022-03-08T11:09:47Z</time>
      </trkpt>
      <trkpt lat="48.94362" lon="2.11927">
        <ele>55.8</ele>
        <time>2022-03-08T11:09:51Z</time>
      </trkpt>
      <trkpt lat="48.94362" lon="2.11919">
        <ele>56.4</ele>
        <time>2022-03-08T11:09:55Z</time>
      </trkpt>
      <trkpt lat="48.94362" lon="2.11912">
        <ele>58.1</ele>
        <time>2022-03-08T11:09:59Z</time>
      </trkpt>
      <trkpt lat="48.94362" lon="2.11905">
        <ele>58.2</ele>
        <time>2022-03-08T11:10:02Z</time>
      </trkpt>
      <trkpt lat="48.94362" lon="2.11896">
        <ele>56.7</ele>
        <time>2022-03-08T11:10:06Z</time>
      </trkpt>
      <trkpt lat="48.94361" lon="2.11888">
        <ele>54.7</ele>
        <time>2022-03-08T11:10:10Z</time>
      </trkpt>
      <trkpt lat="48.94361" lon="2.1188">
        <ele>54.9</ele>
        <time>2022-03-08T11:10:14Z</time>
      </trkpt>
      <trkpt lat="48.94361" lon="2.11873">
        <ele>56.3</ele>
        <time>2022-03-08T11:10:17Z</time>
      </trkpt>
      <trkpt lat="48.9436" lon="2.11865">
        <ele>57.1</ele>
        <time>2022-03-08T11:10:22Z</time>
      </trkpt>
      <trkpt lat="48.9436" lon="2.11858">
        <ele>57.3</ele>
        <time>2022-03-08T11:10:25Z</time>
      </trkpt>
      <trkpt lat="48.9436" lon="2.11851">
        <ele>57.4</ele>
        <time>2022-03-08T11:10:29Z</time>
      </trkpt>
      <trkpt lat="48.9436" lon="2.11843">
        <ele>58.3</ele>
        <time>2022-03-08T11:10:32Z</time>
      </trkpt>
      <trkpt lat="48.94359" lon="2.11835">
        <ele>58.4</ele>
        <time>2022-03-08T11:10:35Z</time>
      </trkpt>
      <trkpt lat="48.94359" lon="2.11828">
        <ele>58.5</ele>
        <time>2022-03-08T11:10:38Z</time>
      </trkpt>
      <trkpt lat="48.9436" lon="2.11819">
        <ele>58.5</ele>
        <time>2022-03-08T11:10:42Z</time>
      </trkpt>
      <trkpt lat="48.94361" lon="2.11811">
        <ele>59</ele>
        <time>2022-03-08T11:10:46Z</time>
      </trkpt>
      <trkpt lat="48.94363" lon="2.11803">
        <ele>58.9</ele>
        <time>2022-03-08T11:10:50Z</time>
      </trkpt>
      <trkpt lat="48.94364" lon="2.11794">
        <ele>58.8</ele>
        <time>2022-03-08T11:10:54Z</time>
      </trkpt>
      <trkpt lat="48.94364" lon="2.11786">
        <ele>59</ele>
        <time>2022-03-08T11:10:58Z</time>
      </trkpt>
      <trkpt lat="48.94364" lon="2.11779">
        <ele>59.9</ele>
        <time>2022-03-08T11:11:02Z</time>
      </trkpt>
      <trkpt lat="48.94364" lon="2.11772">
        <ele>59.6</ele>
        <time>2022-03-08T11:11:06Z</time>
      </trkpt>
      <trkpt lat="48.94364" lon="2.11764">
        <ele>58.9</ele>
        <time>2022-03-08T11:11:10Z</time>
      </trkpt>
      <trkpt lat="48.94366" lon="2.11756">
        <ele>57.7</ele>
        <time>2022-03-08T11:11:14Z</time>
      </trkpt>
      <trkpt lat="48.94367" lon="2.11748">
        <ele>56.7</ele>
        <time>2022-03-08T11:11:18Z</time>
      </trkpt>
      <trkpt lat="48.94368" lon="2.11741">
        <ele>55.9</ele>
        <time>2022-03-08T11:11:22Z</time>
      </trkpt>
      <trkpt lat="48.94369" lon="2.11733">
        <ele>55.6</ele>
        <time>2022-03-08T11:11:26Z</time>
      </trkpt>
      <trkpt lat="48.94369" lon="2.11725">
        <ele>55.7</ele>
        <time>2022-03-08T11:11:29Z</time>
      </trkpt>
      <trkpt lat="48.94369" lon="2.11718">
        <ele>56.3</ele>
        <time>2022-03-08T11:11:33Z</time>
      </trkpt>
      <trkpt lat="48.94369" lon="2.11711">
        <ele>57.2</ele>
        <time>2022-03-08T11:11:36Z</time>
      </trkpt>
      <trkpt lat="48.94369" lon="2.11702">
        <ele>57.6</ele>
        <time>2022-03-08T11:11:41Z</time>
      </trkpt>
      <trkpt lat="48.94371" lon="2.11694">
        <ele>57.2</ele>
        <time>2022-03-08T11:11:47Z</time>
      </trkpt>
      <trkpt lat="48.94373" lon="2.11686">
        <ele>57.1</ele>
        <time>2022-03-08T11:11:51Z</time>
      </trkpt>
      <trkpt lat="48.94375" lon="2.11679">
        <ele>57.6</ele>
        <time>2022-03-08T11:11:55Z</time>
      </trkpt>
      <trkpt lat="48.94376" lon="2.11671">
        <ele>57.2</ele>
        <time>2022-03-08T11:11:58Z</time>
      </trkpt>
      <trkpt lat="48.94377" lon="2.11663">
        <ele>55.9</ele>
        <time>2022-03-08T11:12:02Z</time>
      </trkpt>
      <trkpt lat="48.94378" lon="2.11654">
        <ele>54.5</ele>
        <time>2022-03-08T11:12:06Z</time>
      </trkpt>
      <trkpt lat="48.94379" lon="2.11647">
        <ele>53.2</ele>
        <time>2022-03-08T11:12:10Z</time>
      </trkpt>
      <trkpt lat="48.9438" lon="2.11639">
        <ele>53.4</ele>
        <time>2022-03-08T11:12:14Z</time>
      </trkpt>
      <trkpt lat="48.94381" lon="2.11631">
        <ele>54.3</ele>
        <time>2022-03-08T11:12:18Z</time>
      </trkpt>
      <trkpt lat="48.9438" lon="2.11622">
        <ele>54.8</ele>
        <time>2022-03-08T11:12:23Z</time>
      </trkpt>
      <trkpt lat="48.94381" lon="2.11615">
        <ele>54.7</ele>
        <time>2022-03-08T11:12:27Z</time>
      </trkpt>
      <trkpt lat="48.94382" lon="2.11608">
        <ele>54.4</ele>
        <time>2022-03-08T11:12:31Z</time>
      </trkpt>
      <trkpt lat="48.94384" lon="2.116">
        <ele>54.5</ele>
        <time>2022-03-08T11:12:34Z</time>
      </trkpt>
      <trkpt lat="48.94386" lon="2.11592">
        <ele>55.6</ele>
        <time>2022-03-08T11:12:38Z</time>
      </trkpt>
      <trkpt lat="48.94385" lon="2.11584">
        <ele>56.7</ele>
        <time>2022-03-08T11:12:42Z</time>
      </trkpt>
      <trkpt lat="48.94384" lon="2.11577">
        <ele>56.6</ele>
        <time>2022-03-08T11:12:46Z</time>
      </trkpt>
      <trkpt lat="48.9438" lon="2.1157">
        <ele>56.5</ele>
        <time>2022-03-08T11:12:51Z</time>
      </trkpt>
      <trkpt lat="48.94379" lon="2.11561">
        <ele>56.1</ele>
        <time>2022-03-08T11:12:55Z</time>
      </trkpt>
      <trkpt lat="48.94378" lon="2.11553">
        <ele>54.7</ele>
        <time>2022-03-08T11:13:00Z</time>
      </trkpt>
      <trkpt lat="48.94377" lon="2.11545">
        <ele>53.1</ele>
        <time>2022-03-08T11:13:03Z</time>
      </trkpt>
      <trkpt lat="48.94378" lon="2.11536">
        <ele>53</ele>
        <time>2022-03-08T11:13:07Z</time>
      </trkpt>
      <trkpt lat="48.94378" lon="2.11528">
        <ele>53.2</ele>
        <time>2022-03-08T11:13:11Z</time>
      </trkpt>
      <trkpt lat="48.94378" lon="2.11521">
        <ele>53</ele>
        <time>2022-03-08T11:13:15Z</time>
      </trkpt>
      <trkpt lat="48.94378" lon="2.11512">
        <ele>53.7</ele>
        <time>2022-03-08T11:13:19Z</time>
      </trkpt>
      <trkpt lat="48.94378" lon="2.11505">
        <ele>54.7</ele>
        <time>2022-03-08T11:13:23Z</time>
      </trkpt>
      <trkpt lat="48.94378" lon="2.11496">
        <ele>55.7</ele>
        <time>2022-03-08T11:13:26Z</time>
      </trkpt>
      <trkpt lat="48.94379" lon="2.11487">
        <ele>56.4</ele>
        <time>2022-03-08T11:13:30Z</time>
      </trkpt>
      <trkpt lat="48.9438" lon="2.11478">
        <ele>56.6</ele>
        <time>2022-03-08T11:13:34Z</time>
      </trkpt>
      <trkpt lat="48.9438" lon="2.11469">
        <ele>55.8</ele>
        <time>2022-03-08T11:13:38Z</time>
      </trkpt>
      <trkpt lat="48.9438" lon="2.11461">
        <ele>55.5</ele>
        <time>2022-03-08T11:13:42Z</time>
      </trkpt>
      <trkpt lat="48.94381" lon="2.11454">
        <ele>55.9</ele>
        <time>2022-03-08T11:13:46Z</time>
      </trkpt>
      <trkpt lat="48.94382" lon="2.11446">
        <ele>56.9</ele>
        <time>2022-03-08T11:13:50Z</time>
      </trkpt>
      <trkpt lat="48.94382" lon="2.11437">
        <ele>55.8</ele>
        <time>2022-03-08T11:13:53Z</time>
      </trkpt>
      <trkpt lat="48.94381" lon="2.11428">
        <ele>53.7</ele>
        <time>2022-03-08T11:13:57Z</time>
      </trkpt>
      <trkpt lat="48.94381" lon="2.11421">
        <ele>52.8</ele>
        <time>2022-03-08T11:14:01Z</time>
      </trkpt>
      <trkpt lat="48.9438" lon="2.11413">
        <ele>53.1</ele>
        <time>2022-03-08T11:14:05Z</time>
      </trkpt>
      <trkpt lat="48.9438" lon="2.11406">
        <ele>53.3</ele>
        <time>2022-03-08T11:14:09Z</time>
      </trkpt>
      <trkpt lat="48.94379" lon="2.11399">
        <ele>53.2</ele>
        <time>2022-03-08T11:14:12Z</time>
      </trkpt>
      <trkpt lat="48.94379" lon="2.11392">
        <ele>53.8</ele>
        <time>2022-03-08T11:14:15Z</time>
      </trkpt>
      <trkpt lat="48.9438" lon="2.11384">
        <ele>54.8</ele>
        <time>2022-03-08T11:14:19Z</time>
      </trkpt>
      <trkpt lat="48.9438" lon="2.11376">
        <ele>55.5</ele>
        <time>2022-03-08T11:14:23Z</time>
      </trkpt>
      <trkpt lat="48.94381" lon="2.11369">
        <ele>55.3</ele>
        <time>2022-03-08T11:14:27Z</time>
      </trkpt>
      <trkpt lat="48.9438" lon="2.1136">
        <ele>55</ele>
        <time>2022-03-08T11:14:32Z</time>
      </trkpt>
      <trkpt lat="48.9438" lon="2.11352">
        <ele>55.2</ele>
        <time>2022-03-08T11:14:36Z</time>
      </trkpt>
      <trkpt lat="48.9438" lon="2.11344">
        <ele>55.9</ele>
        <time>2022-03-08T11:14:40Z</time>
      </trkpt>
      <trkpt lat="48.94379" lon="2.11336">
        <ele>57.6</ele>
        <time>2022-03-08T11:14:43Z</time>
      </trkpt>
      <trkpt lat="48.94378" lon="2.11327">
        <ele>59.3</ele>
        <time>2022-03-08T11:14:47Z</time>
      </trkpt>
      <trkpt lat="48.9438" lon="2.1132">
        <ele>59.5</ele>
        <time>2022-03-08T11:14:51Z</time>
      </trkpt>
      <trkpt lat="48.94382" lon="2.11311">
        <ele>59</ele>
        <time>2022-03-08T11:14:56Z</time>
      </trkpt>
      <trkpt lat="48.94381" lon="2.11303">
        <ele>58.8</ele>
        <time>2022-03-08T11:15:00Z</time>
      </trkpt>
      <trkpt lat="48.94379" lon="2.11295">
        <ele>58.4</ele>
        <time>2022-03-08T11:15:03Z</time>
      </trkpt>
      <trkpt lat="48.94379" lon="2.11288">
        <ele>57.7</ele>
        <time>2022-03-08T11:15:07Z</time>
      </trkpt>
      <trkpt lat="48.9438" lon="2.1128">
        <ele>56.8</ele>
        <time>2022-03-08T11:15:11Z</time>
      </trkpt>
      <trkpt lat="48.94382" lon="2.11273">
        <ele>56.5</ele>
        <time>2022-03-08T11:15:15Z</time>
      </trkpt>
      <trkpt lat="48.94384" lon="2.11265">
        <ele>55.9</ele>
        <time>2022-03-08T11:15:19Z</time>
      </trkpt>
      <trkpt lat="48.94384" lon="2.11256">
        <ele>55.5</ele>
        <time>2022-03-08T11:15:22Z</time>
      </trkpt>
      <trkpt lat="48.94383" lon="2.11248">
        <ele>54.9</ele>
        <time>2022-03-08T11:15:26Z</time>
      </trkpt>
      <trkpt lat="48.94384" lon="2.11239">
        <ele>55.5</ele>
        <time>2022-03-08T11:15:30Z</time>
      </trkpt>
      <trkpt lat="48.94385" lon="2.11231">
        <ele>56.8</ele>
        <time>2022-03-08T11:15:34Z</time>
      </trkpt>
      <trkpt lat="48.94386" lon="2.11223">
        <ele>58.6</ele>
        <time>2022-03-08T11:15:37Z</time>
      </trkpt>
      <trkpt lat="48.94386" lon="2.11215">
        <ele>59</ele>
        <time>2022-03-08T11:15:41Z</time>
      </trkpt>
      <trkpt lat="48.94386" lon="2.11207">
        <ele>58.9</ele>
        <time>2022-03-08T11:15:45Z</time>
      </trkpt>
      <trkpt lat="48.94386" lon="2.112">
        <ele>58.8</ele>
        <time>2022-03-08T11:15:49Z</time>
      </trkpt>
      <trkpt lat="48.94386" lon="2.11191">
        <ele>59.2</ele>
        <time>2022-03-08T11:15:52Z</time>
      </trkpt>
      <trkpt lat="48.94386" lon="2.11183">
        <ele>59.9</ele>
        <time>2022-03-08T11:15:56Z</time>
      </trkpt>
      <trkpt lat="48.94386" lon="2.11175">
        <ele>60.1</ele>
        <time>2022-03-08T11:16:00Z</time>
      </trkpt>
      <trkpt lat="48.94387" lon="2.11166">
        <ele>59.9</ele>
        <time>2022-03-08T11:16:04Z</time>
      </trkpt>
      <trkpt lat="48.94388" lon="2.11159">
        <ele>60.3</ele>
        <time>2022-03-08T11:16:08Z</time>
      </trkpt>
      <trkpt lat="48.94388" lon="2.11151">
        <ele>60.1</ele>
        <time>2022-03-08T11:16:11Z</time>
      </trkpt>
      <trkpt lat="48.94388" lon="2.11143">
        <ele>58.7</ele>
        <time>2022-03-08T11:16:15Z</time>
      </trkpt>
      <trkpt lat="48.94388" lon="2.11134">
        <ele>58</ele>
        <time>2022-03-08T11:16:19Z</time>
      </trkpt>
      <trkpt lat="48.94387" lon="2.11126">
        <ele>57.6</ele>
        <time>2022-03-08T11:16:23Z</time>
      </trkpt>
      <trkpt lat="48.94387" lon="2.11118">
        <ele>57.5</ele>
        <time>2022-03-08T11:16:27Z</time>
      </trkpt>
      <trkpt lat="48.94387" lon="2.1111">
        <ele>56.8</ele>
        <time>2022-03-08T11:16:30Z</time>
      </trkpt>
      <trkpt lat="48.94386" lon="2.11102">
        <ele>57.4</ele>
        <time>2022-03-08T11:16:34Z</time>
      </trkpt>
      <trkpt lat="48.94385" lon="2.11095">
        <ele>59.3</ele>
        <time>2022-03-08T11:16:38Z</time>
      </trkpt>
      <trkpt lat="48.94385" lon="2.11088">
        <ele>60</ele>
        <time>2022-03-08T11:16:42Z</time>
      </trkpt>
      <trkpt lat="48.94386" lon="2.11079">
        <ele>60.1</ele>
        <time>2022-03-08T11:16:45Z</time>
      </trkpt>
      <trkpt lat="48.94386" lon="2.11072">
        <ele>59.7</ele>
        <time>2022-03-08T11:16:49Z</time>
      </trkpt>
      <trkpt lat="48.94387" lon="2.11065">
        <ele>59.2</ele>
        <time>2022-03-08T11:16:52Z</time>
      </trkpt>
      <trkpt lat="48.94386" lon="2.11057">
        <ele>58.9</ele>
        <time>2022-03-08T11:16:57Z</time>
      </trkpt>
      <trkpt lat="48.94385" lon="2.1105">
        <ele>59.6</ele>
        <time>2022-03-08T11:17:01Z</time>
      </trkpt>
      <trkpt lat="48.94386" lon="2.11042">
        <ele>62.2</ele>
        <time>2022-03-08T11:17:10Z</time>
      </trkpt>
      <trkpt lat="48.94385" lon="2.11035">
        <ele>61.9</ele>
        <time>2022-03-08T11:17:27Z</time>
      </trkpt>
      <trkpt lat="48.94385" lon="2.11026">
        <ele>61.5</ele>
        <time>2022-03-08T11:17:33Z</time>
      </trkpt>
      <trkpt lat="48.94382" lon="2.1102">
        <ele>60.8</ele>
        <time>2022-03-08T11:17:37Z</time>
      </trkpt>
      <trkpt lat="48.94381" lon="2.11012">
        <ele>59.3</ele>
        <time>2022-03-08T11:17:42Z</time>
      </trkpt>
      <trkpt lat="48.94383" lon="2.11005">
        <ele>57.7</ele>
        <time>2022-03-08T11:17:48Z</time>
      </trkpt>
      <trkpt lat="48.94385" lon="2.10997">
        <ele>56.9</ele>
        <time>2022-03-08T11:17:54Z</time>
      </trkpt>
      <trkpt lat="48.94387" lon="2.1099">
        <ele>58.9</ele>
        <time>2022-03-08T11:17:59Z</time>
      </trkpt>
      <trkpt lat="48.94389" lon="2.10983">
        <ele>60.9</ele>
        <time>2022-03-08T11:18:04Z</time>
      </trkpt>
      <trkpt lat="48.9439" lon="2.10976">
        <ele>61.2</ele>
        <time>2022-03-08T11:18:10Z</time>
      </trkpt>
      <trkpt lat="48.94393" lon="2.1097">
        <ele>61</ele>
        <time>2022-03-08T11:18:14Z</time>
      </trkpt>
      <trkpt lat="48.94394" lon="2.10962">
        <ele>60.5</ele>
        <time>2022-03-08T11:18:18Z</time>
      </trkpt>
      <trkpt lat="48.94395" lon="2.10955">
        <ele>59.9</ele>
        <time>2022-03-08T11:18:22Z</time>
      </trkpt>
      <trkpt lat="48.94394" lon="2.10948">
        <ele>58.5</ele>
        <time>2022-03-08T11:18:27Z</time>
      </trkpt>
      <trkpt lat="48.94395" lon="2.10941">
        <ele>58.9</ele>
        <time>2022-03-08T11:18:31Z</time>
      </trkpt>
      <trkpt lat="48.94398" lon="2.10934">
        <ele>61.7</ele>
        <time>2022-03-08T11:18:35Z</time>
      </trkpt>
      <trkpt lat="48.944" lon="2.10927">
        <ele>65</ele>
        <time>2022-03-08T11:18:40Z</time>
      </trkpt>
      <trkpt lat="48.94401" lon="2.1092">
        <ele>65.3</ele>
        <time>2022-03-08T11:18:44Z</time>
      </trkpt>
      <trkpt lat="48.94402" lon="2.10912">
        <ele>64.3</ele>
        <time>2022-03-08T11:18:49Z</time>
      </trkpt>
      <trkpt lat="48.94403" lon="2.10904">
        <ele>63</ele>
        <time>2022-03-08T11:18:53Z</time>
      </trkpt>
      <trkpt lat="48.94404" lon="2.10896">
        <ele>61.9</ele>
        <time>2022-03-08T11:18:59Z</time>
      </trkpt>
      <trkpt lat="48.94405" lon="2.10889">
        <ele>61.8</ele>
        <time>2022-03-08T11:19:03Z</time>
      </trkpt>
      <trkpt lat="48.94405" lon="2.10881">
        <ele>61.9</ele>
        <time>2022-03-08T11:19:07Z</time>
      </trkpt>
      <trkpt lat="48.94404" lon="2.10873">
        <ele>61.7</ele>
        <time>2022-03-08T11:19:11Z</time>
      </trkpt>
      <trkpt lat="48.94404" lon="2.10865">
        <ele>60.6</ele>
        <time>2022-03-08T11:19:15Z</time>
      </trkpt>
      <trkpt lat="48.94405" lon="2.10857">
        <ele>57.8</ele>
        <time>2022-03-08T11:19:20Z</time>
      </trkpt>
      <trkpt lat="48.94406" lon="2.1085">
        <ele>55.9</ele>
        <time>2022-03-08T11:19:24Z</time>
      </trkpt>
      <trkpt lat="48.94408" lon="2.10841">
        <ele>55.9</ele>
        <time>2022-03-08T11:19:28Z</time>
      </trkpt>
      <trkpt lat="48.94409" lon="2.10834">
        <ele>56.2</ele>
        <time>2022-03-08T11:19:32Z</time>
      </trkpt>
      <trkpt lat="48.94412" lon="2.10827">
        <ele>56.4</ele>
        <time>2022-03-08T11:19:37Z</time>
      </trkpt>
      <trkpt lat="48.94414" lon="2.10819">
        <ele>55.8</ele>
        <time>2022-03-08T11:19:42Z</time>
      </trkpt>
      <trkpt lat="48.94413" lon="2.10811">
        <ele>55.2</ele>
        <time>2022-03-08T11:19:47Z</time>
      </trkpt>
      <trkpt lat="48.94415" lon="2.10804">
        <ele>54.5</ele>
        <time>2022-03-08T11:19:51Z</time>
      </trkpt>
      <trkpt lat="48.94416" lon="2.10797">
        <ele>53.5</ele>
        <time>2022-03-08T11:19:55Z</time>
      </trkpt>
      <trkpt lat="48.94419" lon="2.1079">
        <ele>53.4</ele>
        <time>2022-03-08T11:20:00Z</time>
      </trkpt>
      <trkpt lat="48.94421" lon="2.10784">
        <ele>54.4</ele>
        <time>2022-03-08T11:20:04Z</time>
      </trkpt>
      <trkpt lat="48.9442" lon="2.10777">
        <ele>54.5</ele>
        <time>2022-03-08T11:20:09Z</time>
      </trkpt>
      <trkpt lat="48.94421" lon="2.10769">
        <ele>54</ele>
        <time>2022-03-08T11:20:13Z</time>
      </trkpt>
      <trkpt lat="48.94422" lon="2.10761">
        <ele>53.7</ele>
        <time>2022-03-08T11:20:17Z</time>
      </trkpt>
      <trkpt lat="48.94423" lon="2.10755">
        <ele>53.8</ele>
        <time>2022-03-08T11:20:21Z</time>
      </trkpt>
      <trkpt lat="48.94424" lon="2.10747">
        <ele>54.5</ele>
        <time>2022-03-08T11:20:26Z</time>
      </trkpt>
      <trkpt lat="48.94424" lon="2.10738">
        <ele>56.2</ele>
        <time>2022-03-08T11:20:30Z</time>
      </trkpt>
      <trkpt lat="48.94425" lon="2.10732">
        <ele>57.1</ele>
        <time>2022-03-08T11:20:34Z</time>
      </trkpt>
      <trkpt lat="48.94424" lon="2.10724">
        <ele>48.8</ele>
        <time>2022-03-08T11:20:47Z</time>
      </trkpt>
      <trkpt lat="48.94426" lon="2.10716">
        <ele>47.8</ele>
        <time>2022-03-08T11:20:51Z</time>
      </trkpt>
      <trkpt lat="48.94427" lon="2.10706">
        <ele>47.2</ele>
        <time>2022-03-08T11:20:56Z</time>
      </trkpt>
      <trkpt lat="48.94429" lon="2.10697">
        <ele>46.3</ele>
        <time>2022-03-08T11:21:00Z</time>
      </trkpt>
      <trkpt lat="48.94429" lon="2.1069">
        <ele>45.4</ele>
        <time>2022-03-08T11:21:04Z</time>
      </trkpt>
      <trkpt lat="48.94431" lon="2.10681">
        <ele>44.1</ele>
        <time>2022-03-08T11:21:08Z</time>
      </trkpt>
      <trkpt lat="48.94432" lon="2.10674">
        <ele>43.5</ele>
        <time>2022-03-08T11:21:11Z</time>
      </trkpt>
      <trkpt lat="48.94434" lon="2.10666">
        <ele>43.7</ele>
        <time>2022-03-08T11:21:16Z</time>
      </trkpt>
      <trkpt lat="48.94436" lon="2.10658">
        <ele>45.3</ele>
        <time>2022-03-08T11:21:20Z</time>
      </trkpt>
      <trkpt lat="48.94439" lon="2.10649">
        <ele>47.4</ele>
        <time>2022-03-08T11:21:24Z</time>
      </trkpt>
      <trkpt lat="48.94442" lon="2.10641">
        <ele>48.3</ele>
        <time>2022-03-08T11:21:28Z</time>
      </trkpt>
      <trkpt lat="48.94444" lon="2.10633">
        <ele>48.4</ele>
        <time>2022-03-08T11:21:33Z</time>
      </trkpt>
      <trkpt lat="48.94447" lon="2.10626">
        <ele>49.7</ele>
        <time>2022-03-08T11:21:37Z</time>
      </trkpt>
      <trkpt lat="48.94449" lon="2.10619">
        <ele>51.3</ele>
        <time>2022-03-08T11:21:41Z</time>
      </trkpt>
      <trkpt lat="48.9445" lon="2.10612">
        <ele>53.3</ele>
        <time>2022-03-08T11:21:45Z</time>
      </trkpt>
      <trkpt lat="48.9445" lon="2.10604">
        <ele>55.1</ele>
        <time>2022-03-08T11:21:50Z</time>
      </trkpt>
      <trkpt lat="48.9445" lon="2.10597">
        <ele>55.4</ele>
        <time>2022-03-08T11:21:54Z</time>
      </trkpt>
      <trkpt lat="48.94449" lon="2.10589">
        <ele>55.8</ele>
        <time>2022-03-08T11:21:58Z</time>
      </trkpt>
      <trkpt lat="48.94451" lon="2.10581">
        <ele>56.8</ele>
        <time>2022-03-08T11:22:02Z</time>
      </trkpt>
      <trkpt lat="48.94452" lon="2.10574">
        <ele>56.8</ele>
        <time>2022-03-08T11:22:05Z</time>
      </trkpt>
      <trkpt lat="48.94454" lon="2.10566">
        <ele>56.1</ele>
        <time>2022-03-08T11:22:09Z</time>
      </trkpt>
      <trkpt lat="48.94456" lon="2.10559">
        <ele>57.1</ele>
        <time>2022-03-08T11:22:15Z</time>
      </trkpt>
      <trkpt lat="48.94459" lon="2.10551">
        <ele>57.1</ele>
        <time>2022-03-08T11:22:19Z</time>
      </trkpt>
      <trkpt lat="48.94461" lon="2.10543">
        <ele>56.9</ele>
        <time>2022-03-08T11:22:24Z</time>
      </trkpt>
      <trkpt lat="48.94461" lon="2.10535">
        <ele>57</ele>
        <time>2022-03-08T11:22:28Z</time>
      </trkpt>
      <trkpt lat="48.94462" lon="2.10527">
        <ele>57.5</ele>
        <time>2022-03-08T11:22:32Z</time>
      </trkpt>
      <trkpt lat="48.94462" lon="2.1052">
        <ele>56.9</ele>
        <time>2022-03-08T11:22:37Z</time>
      </trkpt>
      <trkpt lat="48.94461" lon="2.10513">
        <ele>54.9</ele>
        <time>2022-03-08T11:22:41Z</time>
      </trkpt>
      <trkpt lat="48.94463" lon="2.10505">
        <ele>54.8</ele>
        <time>2022-03-08T11:22:45Z</time>
      </trkpt>
      <trkpt lat="48.94464" lon="2.10499">
        <ele>56.2</ele>
        <time>2022-03-08T11:22:48Z</time>
      </trkpt>
      <trkpt lat="48.94466" lon="2.10491">
        <ele>57.9</ele>
        <time>2022-03-08T11:22:52Z</time>
      </trkpt>
      <trkpt lat="48.94467" lon="2.10482">
        <ele>59.1</ele>
        <time>2022-03-08T11:22:57Z</time>
      </trkpt>
      <trkpt lat="48.94467" lon="2.10473">
        <ele>59.1</ele>
        <time>2022-03-08T11:23:01Z</time>
      </trkpt>
      <trkpt lat="48.94467" lon="2.10466">
        <ele>58.2</ele>
        <time>2022-03-08T11:23:04Z</time>
      </trkpt>
      <trkpt lat="48.94468" lon="2.10458">
        <ele>56.1</ele>
        <time>2022-03-08T11:23:09Z</time>
      </trkpt>
      <trkpt lat="48.94466" lon="2.1045">
        <ele>52.9</ele>
        <time>2022-03-08T11:23:13Z</time>
      </trkpt>
      <trkpt lat="48.94465" lon="2.10442">
        <ele>50</ele>
        <time>2022-03-08T11:23:18Z</time>
      </trkpt>
      <trkpt lat="48.94464" lon="2.10435">
        <ele>49.4</ele>
        <time>2022-03-08T11:23:21Z</time>
      </trkpt>
      <trkpt lat="48.94462" lon="2.10428">
        <ele>49.6</ele>
        <time>2022-03-08T11:23:24Z</time>
      </trkpt>
      <trkpt lat="48.94458" lon="2.10423">
        <ele>49.8</ele>
        <time>2022-03-08T11:23:28Z</time>
      </trkpt>
      <trkpt lat="48.94454" lon="2.10418">
        <ele>50.1</ele>
        <time>2022-03-08T11:23:32Z</time>
      </trkpt>
      <trkpt lat="48.9445" lon="2.10413">
        <ele>49.9</ele>
        <time>2022-03-08T11:23:37Z</time>
      </trkpt>
      <trkpt lat="48.94447" lon="2.10407">
        <ele>50.1</ele>
        <time>2022-03-08T11:23:41Z</time>
      </trkpt>
      <trkpt lat="48.94443" lon="2.10401">
        <ele>50.3</ele>
        <time>2022-03-08T11:23:45Z</time>
      </trkpt>
      <trkpt lat="48.94439" lon="2.10397">
        <ele>50.8</ele>
        <time>2022-03-08T11:23:49Z</time>
      </trkpt>
      <trkpt lat="48.94435" lon="2.10391">
        <ele>51.4</ele>
        <time>2022-03-08T11:23:53Z</time>
      </trkpt>
      <trkpt lat="48.94431" lon="2.10386">
        <ele>52.1</ele>
        <time>2022-03-08T11:23:57Z</time>
      </trkpt>
      <trkpt lat="48.94429" lon="2.1038">
        <ele>53.3</ele>
        <time>2022-03-08T11:24:01Z</time>
      </trkpt>
      <trkpt lat="48.94427" lon="2.10373">
        <ele>53.9</ele>
        <time>2022-03-08T11:24:04Z</time>
      </trkpt>
      <trkpt lat="48.94424" lon="2.10367">
        <ele>54</ele>
        <time>2022-03-08T11:24:07Z</time>
      </trkpt>
      <trkpt lat="48.9442" lon="2.10363">
        <ele>53</ele>
        <time>2022-03-08T11:24:11Z</time>
      </trkpt>
      <trkpt lat="48.94415" lon="2.10358">
        <ele>53</ele>
        <time>2022-03-08T11:24:15Z</time>
      </trkpt>
      <trkpt lat="48.9441" lon="2.10352">
        <ele>53.7</ele>
        <time>2022-03-08T11:24:20Z</time>
      </trkpt>
      <trkpt lat="48.94406" lon="2.10346">
        <ele>54.9</ele>
        <time>2022-03-08T11:24:24Z</time>
      </trkpt>
      <trkpt lat="48.94403" lon="2.1034">
        <ele>55.8</ele>
        <time>2022-03-08T11:24:29Z</time>
      </trkpt>
      <trkpt lat="48.944" lon="2.10332">
        <ele>56.8</ele>
        <time>2022-03-08T11:24:33Z</time>
      </trkpt>
      <trkpt lat="48.94398" lon="2.10324">
        <ele>58.7</ele>
        <time>2022-03-08T11:24:37Z</time>
      </trkpt>
      <trkpt lat="48.94395" lon="2.10319">
        <ele>59.7</ele>
        <time>2022-03-08T11:24:40Z</time>
      </trkpt>
      <trkpt lat="48.94392" lon="2.10314">
        <ele>59.7</ele>
        <time>2022-03-08T11:24:43Z</time>
      </trkpt>
      <trkpt lat="48.94389" lon="2.10308">
        <ele>59.1</ele>
        <time>2022-03-08T11:24:48Z</time>
      </trkpt>
      <trkpt lat="48.94385" lon="2.10301">
        <ele>58.7</ele>
        <time>2022-03-08T11:24:52Z</time>
      </trkpt>
      <trkpt lat="48.94382" lon="2.10294">
        <ele>58.9</ele>
        <time>2022-03-08T11:24:57Z</time>
      </trkpt>
      <trkpt lat="48.94379" lon="2.10287">
        <ele>58.5</ele>
        <time>2022-03-08T11:25:01Z</time>
      </trkpt>
      <trkpt lat="48.94376" lon="2.10282">
        <ele>58.7</ele>
        <time>2022-03-08T11:25:05Z</time>
      </trkpt>
      <trkpt lat="48.94372" lon="2.10277">
        <ele>59.6</ele>
        <time>2022-03-08T11:25:09Z</time>
      </trkpt>
      <trkpt lat="48.94368" lon="2.10271">
        <ele>60.9</ele>
        <time>2022-03-08T11:25:13Z</time>
      </trkpt>
      <trkpt lat="48.94365" lon="2.10265">
        <ele>60.8</ele>
        <time>2022-03-08T11:25:17Z</time>
      </trkpt>
      <trkpt lat="48.9436" lon="2.10259">
        <ele>59.5</ele>
        <time>2022-03-08T11:25:22Z</time>
      </trkpt>
      <trkpt lat="48.94357" lon="2.10254">
        <ele>58.8</ele>
        <time>2022-03-08T11:25:26Z</time>
      </trkpt>
      <trkpt lat="48.94354" lon="2.10247">
        <ele>58.3</ele>
        <time>2022-03-08T11:25:30Z</time>
      </trkpt>
      <trkpt lat="48.9435" lon="2.10241">
        <ele>58.3</ele>
        <time>2022-03-08T11:25:34Z</time>
      </trkpt>
      <trkpt lat="48.94346" lon="2.10235">
        <ele>59.4</ele>
        <time>2022-03-08T11:25:39Z</time>
      </trkpt>
      <trkpt lat="48.94342" lon="2.1023">
        <ele>61.1</ele>
        <time>2022-03-08T11:25:43Z</time>
      </trkpt>
      <trkpt lat="48.94337" lon="2.10224">
        <ele>61.2</ele>
        <time>2022-03-08T11:25:47Z</time>
      </trkpt>
      <trkpt lat="48.94334" lon="2.1022">
        <ele>60.7</ele>
        <time>2022-03-08T11:25:50Z</time>
      </trkpt>
      <trkpt lat="48.94329" lon="2.10214">
        <ele>60.7</ele>
        <time>2022-03-08T11:25:54Z</time>
      </trkpt>
      <trkpt lat="48.94326" lon="2.10208">
        <ele>62.3</ele>
        <time>2022-03-08T11:25:58Z</time>
      </trkpt>
      <trkpt lat="48.94323" lon="2.10201">
        <ele>63.4</ele>
        <time>2022-03-08T11:26:03Z</time>
      </trkpt>
      <trkpt lat="48.9432" lon="2.10194">
        <ele>63.2</ele>
        <time>2022-03-08T11:26:07Z</time>
      </trkpt>
      <trkpt lat="48.94316" lon="2.10187">
        <ele>63</ele>
        <time>2022-03-08T11:26:11Z</time>
      </trkpt>
      <trkpt lat="48.94312" lon="2.10184">
        <ele>63.2</ele>
        <time>2022-03-08T11:26:15Z</time>
      </trkpt>
      <trkpt lat="48.94308" lon="2.10179">
        <ele>63.1</ele>
        <time>2022-03-08T11:26:20Z</time>
      </trkpt>
      <trkpt lat="48.94305" lon="2.10172">
        <ele>62.7</ele>
        <time>2022-03-08T11:26:24Z</time>
      </trkpt>
      <trkpt lat="48.94301" lon="2.10166">
        <ele>61.6</ele>
        <time>2022-03-08T11:26:28Z</time>
      </trkpt>
      <trkpt lat="48.94296" lon="2.10163">
        <ele>61.8</ele>
        <time>2022-03-08T11:26:32Z</time>
      </trkpt>
      <trkpt lat="48.94292" lon="2.10158">
        <ele>62.2</ele>
        <time>2022-03-08T11:26:36Z</time>
      </trkpt>
      <trkpt lat="48.94288" lon="2.10153">
        <ele>63</ele>
        <time>2022-03-08T11:26:40Z</time>
      </trkpt>
      <trkpt lat="48.94285" lon="2.10147">
        <ele>63.3</ele>
        <time>2022-03-08T11:26:44Z</time>
      </trkpt>
      <trkpt lat="48.94281" lon="2.10141">
        <ele>63.4</ele>
        <time>2022-03-08T11:26:49Z</time>
      </trkpt>
      <trkpt lat="48.94278" lon="2.10134">
        <ele>63.5</ele>
        <time>2022-03-08T11:26:53Z</time>
      </trkpt>
      <trkpt lat="48.94275" lon="2.10128">
        <ele>63</ele>
        <time>2022-03-08T11:26:57Z</time>
      </trkpt>
      <trkpt lat="48.94271" lon="2.10123">
        <ele>61.4</ele>
        <time>2022-03-08T11:27:01Z</time>
      </trkpt>
      <trkpt lat="48.94267" lon="2.10117">
        <ele>59.9</ele>
        <time>2022-03-08T11:27:06Z</time>
      </trkpt>
      <trkpt lat="48.94264" lon="2.1011">
        <ele>59.6</ele>
        <time>2022-03-08T11:27:10Z</time>
      </trkpt>
      <trkpt lat="48.9426" lon="2.10103">
        <ele>60.2</ele>
        <time>2022-03-08T11:27:14Z</time>
      </trkpt>
      <trkpt lat="48.94257" lon="2.10099">
        <ele>60.9</ele>
        <time>2022-03-08T11:27:18Z</time>
      </trkpt>
      <trkpt lat="48.94253" lon="2.10094">
        <ele>61.2</ele>
        <time>2022-03-08T11:27:21Z</time>
      </trkpt>
      <trkpt lat="48.9425" lon="2.10089">
        <ele>60.7</ele>
        <time>2022-03-08T11:27:25Z</time>
      </trkpt>
      <trkpt lat="48.94246" lon="2.10083">
        <ele>59.5</ele>
        <time>2022-03-08T11:27:29Z</time>
      </trkpt>
      <trkpt lat="48.94243" lon="2.10078">
        <ele>59.2</ele>
        <time>2022-03-08T11:27:34Z</time>
      </trkpt>
      <trkpt lat="48.94239" lon="2.10073">
        <ele>58.5</ele>
        <time>2022-03-08T11:27:38Z</time>
      </trkpt>
      <trkpt lat="48.94234" lon="2.10069">
        <ele>57.4</ele>
        <time>2022-03-08T11:27:42Z</time>
      </trkpt>
      <trkpt lat="48.9423" lon="2.10063">
        <ele>56.4</ele>
        <time>2022-03-08T11:27:46Z</time>
      </trkpt>
      <trkpt lat="48.94225" lon="2.10058">
        <ele>55.6</ele>
        <time>2022-03-08T11:27:51Z</time>
      </trkpt>
      <trkpt lat="48.94222" lon="2.10053">
        <ele>55</ele>
        <time>2022-03-08T11:27:54Z</time>
      </trkpt>
      <trkpt lat="48.94218" lon="2.10048">
        <ele>54.4</ele>
        <time>2022-03-08T11:27:58Z</time>
      </trkpt>
      <trkpt lat="48.94214" lon="2.10042">
        <ele>54.6</ele>
        <time>2022-03-08T11:28:02Z</time>
      </trkpt>
      <trkpt lat="48.94211" lon="2.10036">
        <ele>55.3</ele>
        <time>2022-03-08T11:28:06Z</time>
      </trkpt>
      <trkpt lat="48.94208" lon="2.1003">
        <ele>56.2</ele>
        <time>2022-03-08T11:28:11Z</time>
      </trkpt>
      <trkpt lat="48.94205" lon="2.10023">
        <ele>57.1</ele>
        <time>2022-03-08T11:28:15Z</time>
      </trkpt>
      <trkpt lat="48.94202" lon="2.10017">
        <ele>57.6</ele>
        <time>2022-03-08T11:28:19Z</time>
      </trkpt>
      <trkpt lat="48.94198" lon="2.10013">
        <ele>57.8</ele>
        <time>2022-03-08T11:28:22Z</time>
      </trkpt>
      <trkpt lat="48.94194" lon="2.10006">
        <ele>57.8</ele>
        <time>2022-03-08T11:28:27Z</time>
      </trkpt>
      <trkpt lat="48.94191" lon="2.1">
        <ele>58.1</ele>
        <time>2022-03-08T11:28:31Z</time>
      </trkpt>
      <trkpt lat="48.94187" lon="2.09995">
        <ele>58.1</ele>
        <time>2022-03-08T11:28:35Z</time>
      </trkpt>
      <trkpt lat="48.94182" lon="2.0999">
        <ele>58.7</ele>
        <time>2022-03-08T11:28:40Z</time>
      </trkpt>
      <trkpt lat="48.94179" lon="2.09985">
        <ele>58.8</ele>
        <time>2022-03-08T11:28:44Z</time>
      </trkpt>
      <trkpt lat="48.94175" lon="2.09979">
        <ele>58.8</ele>
        <time>2022-03-08T11:28:48Z</time>
      </trkpt>
      <trkpt lat="48.94171" lon="2.09973">
        <ele>59.4</ele>
        <time>2022-03-08T11:28:52Z</time>
      </trkpt>
      <trkpt lat="48.94168" lon="2.09968">
        <ele>59.1</ele>
        <time>2022-03-08T11:28:56Z</time>
      </trkpt>
      <trkpt lat="48.94163" lon="2.09964">
        <ele>58.4</ele>
        <time>2022-03-08T11:29:00Z</time>
      </trkpt>
      <trkpt lat="48.94159" lon="2.09959">
        <ele>57.8</ele>
        <time>2022-03-08T11:29:04Z</time>
      </trkpt>
      <trkpt lat="48.94155" lon="2.09953">
        <ele>58</ele>
        <time>2022-03-08T11:29:08Z</time>
      </trkpt>
      <trkpt lat="48.94151" lon="2.09947">
        <ele>58.2</ele>
        <time>2022-03-08T11:29:12Z</time>
      </trkpt>
      <trkpt lat="48.94149" lon="2.09941">
        <ele>58.6</ele>
        <time>2022-03-08T11:29:16Z</time>
      </trkpt>
      <trkpt lat="48.94146" lon="2.09935">
        <ele>59.2</ele>
        <time>2022-03-08T11:29:20Z</time>
      </trkpt>
      <trkpt lat="48.94142" lon="2.09929">
        <ele>59.5</ele>
        <time>2022-03-08T11:29:24Z</time>
      </trkpt>
      <trkpt lat="48.94139" lon="2.09925">
        <ele>58.3</ele>
        <time>2022-03-08T11:29:27Z</time>
      </trkpt>
      <trkpt lat="48.94135" lon="2.0992">
        <ele>56.5</ele>
        <time>2022-03-08T11:29:31Z</time>
      </trkpt>
      <trkpt lat="48.94131" lon="2.09915">
        <ele>56.1</ele>
        <time>2022-03-08T11:29:35Z</time>
      </trkpt>
      <trkpt lat="48.94127" lon="2.09909">
        <ele>56.6</ele>
        <time>2022-03-08T11:29:39Z</time>
      </trkpt>
      <trkpt lat="48.94124" lon="2.09904">
        <ele>57.1</ele>
        <time>2022-03-08T11:29:43Z</time>
      </trkpt>
      <trkpt lat="48.9412" lon="2.09899">
        <ele>58.6</ele>
        <time>2022-03-08T11:29:47Z</time>
      </trkpt>
      <trkpt lat="48.94117" lon="2.09893">
        <ele>59.4</ele>
        <time>2022-03-08T11:29:51Z</time>
      </trkpt>
      <trkpt lat="48.94114" lon="2.09888">
        <ele>58.3</ele>
        <time>2022-03-08T11:29:55Z</time>
      </trkpt>
      <trkpt lat="48.94111" lon="2.09883">
        <ele>57.4</ele>
        <time>2022-03-08T11:29:58Z</time>
      </trkpt>
      <trkpt lat="48.94107" lon="2.09878">
        <ele>56.2</ele>
        <time>2022-03-08T11:30:02Z</time>
      </trkpt>
      <trkpt lat="48.94104" lon="2.09872">
        <ele>54.5</ele>
        <time>2022-03-08T11:30:06Z</time>
      </trkpt>
      <trkpt lat="48.94099" lon="2.09868">
        <ele>53.6</ele>
        <time>2022-03-08T11:30:10Z</time>
      </trkpt>
      <trkpt lat="48.94095" lon="2.09864">
        <ele>54</ele>
        <time>2022-03-08T11:30:14Z</time>
      </trkpt>
      <trkpt lat="48.94092" lon="2.09859">
        <ele>54.6</ele>
        <time>2022-03-08T11:30:18Z</time>
      </trkpt>
      <trkpt lat="48.94089" lon="2.09852">
        <ele>54.7</ele>
        <time>2022-03-08T11:30:22Z</time>
      </trkpt>
      <trkpt lat="48.94085" lon="2.09846">
        <ele>54.2</ele>
        <time>2022-03-08T11:30:26Z</time>
      </trkpt>
      <trkpt lat="48.94082" lon="2.09841">
        <ele>53.3</ele>
        <time>2022-03-08T11:30:30Z</time>
      </trkpt>
      <trkpt lat="48.94078" lon="2.09835">
        <ele>53</ele>
        <time>2022-03-08T11:30:34Z</time>
      </trkpt>
      <trkpt lat="48.94074" lon="2.0983">
        <ele>52.8</ele>
        <time>2022-03-08T11:30:38Z</time>
      </trkpt>
      <trkpt lat="48.9407" lon="2.09824">
        <ele>52.2</ele>
        <time>2022-03-08T11:30:42Z</time>
      </trkpt>
      <trkpt lat="48.94066" lon="2.09818">
        <ele>51.8</ele>
        <time>2022-03-08T11:30:46Z</time>
      </trkpt>
      <trkpt lat="48.94062" lon="2.09812">
        <ele>52</ele>
        <time>2022-03-08T11:30:50Z</time>
      </trkpt>
      <trkpt lat="48.94059" lon="2.09807">
        <ele>51.7</ele>
        <time>2022-03-08T11:30:55Z</time>
      </trkpt>
      <trkpt lat="48.94054" lon="2.09801">
        <ele>51.4</ele>
        <time>2022-03-08T11:30:59Z</time>
      </trkpt>
      <trkpt lat="48.9405" lon="2.09795">
        <ele>52.5</ele>
        <time>2022-03-08T11:31:03Z</time>
      </trkpt>
      <trkpt lat="48.94047" lon="2.09789">
        <ele>54</ele>
        <time>2022-03-08T11:31:07Z</time>
      </trkpt>
      <trkpt lat="48.94043" lon="2.09783">
        <ele>54.3</ele>
        <time>2022-03-08T11:31:11Z</time>
      </trkpt>
      <trkpt lat="48.94039" lon="2.09778">
        <ele>53.8</ele>
        <time>2022-03-08T11:31:15Z</time>
      </trkpt>
      <trkpt lat="48.94035" lon="2.09772">
        <ele>53.1</ele>
        <time>2022-03-08T11:31:20Z</time>
      </trkpt>
      <trkpt lat="48.94033" lon="2.09764">
        <ele>54.2</ele>
        <time>2022-03-08T11:31:24Z</time>
      </trkpt>
      <trkpt lat="48.94029" lon="2.09757">
        <ele>56.3</ele>
        <time>2022-03-08T11:31:29Z</time>
      </trkpt>
      <trkpt lat="48.94025" lon="2.09751">
        <ele>57.5</ele>
        <time>2022-03-08T11:31:33Z</time>
      </trkpt>
      <trkpt lat="48.94021" lon="2.09746">
        <ele>57.9</ele>
        <time>2022-03-08T11:31:38Z</time>
      </trkpt>
      <trkpt lat="48.94017" lon="2.09741">
        <ele>57.7</ele>
        <time>2022-03-08T11:31:42Z</time>
      </trkpt>
      <trkpt lat="48.94013" lon="2.09737">
        <ele>56.9</ele>
        <time>2022-03-08T11:31:45Z</time>
      </trkpt>
      <trkpt lat="48.94008" lon="2.09731">
        <ele>55.3</ele>
        <time>2022-03-08T11:31:49Z</time>
      </trkpt>
      <trkpt lat="48.94004" lon="2.09725">
        <ele>53.6</ele>
        <time>2022-03-08T11:31:53Z</time>
      </trkpt>
      <trkpt lat="48.94001" lon="2.09721">
        <ele>52.8</ele>
        <time>2022-03-08T11:31:58Z</time>
      </trkpt>
      <trkpt lat="48.93997" lon="2.09716">
        <ele>52.7</ele>
        <time>2022-03-08T11:32:02Z</time>
      </trkpt>
      <trkpt lat="48.93994" lon="2.09709">
        <ele>51.7</ele>
        <time>2022-03-08T11:32:07Z</time>
      </trkpt>
      <trkpt lat="48.93991" lon="2.09701">
        <ele>51.5</ele>
        <time>2022-03-08T11:32:11Z</time>
      </trkpt>
      <trkpt lat="48.93988" lon="2.09695">
        <ele>52.6</ele>
        <time>2022-03-08T11:32:16Z</time>
      </trkpt>
      <trkpt lat="48.93987" lon="2.09688">
        <ele>54.2</ele>
        <time>2022-03-08T11:32:21Z</time>
      </trkpt>
      <trkpt lat="48.93988" lon="2.0968">
        <ele>55.2</ele>
        <time>2022-03-08T11:32:28Z</time>
      </trkpt>
      <trkpt lat="48.93992" lon="2.09675">
        <ele>56.3</ele>
        <time>2022-03-08T11:32:33Z</time>
      </trkpt>
      <trkpt lat="48.93995" lon="2.09668">
        <ele>57.4</ele>
        <time>2022-03-08T11:32:40Z</time>
      </trkpt>
      <trkpt lat="48.93993" lon="2.09661">
        <ele>57.2</ele>
        <time>2022-03-08T11:32:46Z</time>
      </trkpt>
      <trkpt lat="48.93988" lon="2.09662">
        <ele>56.3</ele>
        <time>2022-03-08T11:32:50Z</time>
      </trkpt>
      <trkpt lat="48.93982" lon="2.09659">
        <ele>55.5</ele>
        <time>2022-03-08T11:32:55Z</time>
      </trkpt>
      <trkpt lat="48.93979" lon="2.09653">
        <ele>55.5</ele>
        <time>2022-03-08T11:33:01Z</time>
      </trkpt>
      <trkpt lat="48.93984" lon="2.09653">
        <ele>55.7</ele>
        <time>2022-03-08T11:33:43Z</time>
      </trkpt>
      <trkpt lat="48.93988" lon="2.09666">
        <ele>55.4</ele>
        <time>2022-03-08T11:33:48Z</time>
      </trkpt>
      <trkpt lat="48.93991" lon="2.09675">
        <ele>57</ele>
        <time>2022-03-08T11:33:51Z</time>
      </trkpt>
      <trkpt lat="48.93995" lon="2.09679">
        <ele>60.7</ele>
        <time>2022-03-08T11:33:54Z</time>
      </trkpt>
      <trkpt lat="48.94001" lon="2.09682">
        <ele>61.5</ele>
        <time>2022-03-08T11:33:58Z</time>
      </trkpt>
      <trkpt lat="48.94005" lon="2.09684">
        <ele>61.6</ele>
        <time>2022-03-08T11:34:01Z</time>
      </trkpt>
      <trkpt lat="48.9401" lon="2.09687">
        <ele>61.5</ele>
        <time>2022-03-08T11:34:06Z</time>
      </trkpt>
      <trkpt lat="48.94014" lon="2.09687">
        <ele>60.3</ele>
        <time>2022-03-08T11:34:11Z</time>
      </trkpt>
    </trkseg>
  </trk>
</gpx>